<?xml version='1.0' encoding='UTF-8'?>
<gpx version="1.1" creator="https://www.komoot.de" xmlns="http://www.topografix.com/GPX/1/1" xmlns:xsi="http://www.w3.org/2001/XMLSchema-instance" xsi:schemaLocation="http://www.topografix.com/GPX/1/1 http://www.topografix.com/GPX/1/1/gpx.xsd">
  <metadata>
    <name>51_610Oltigen</name>
    <author>
      <link href="https://www.komoot.de">
        <text>komoot</text>
        <type>text/html</type>
      </link>
    </author>
  </metadata>
  <trk>
    <name>51_610Oltigen</name>
    <trkseg>
      <trkpt lat="47.541419" lon="7.870784">
        <ele>342.265936</ele>
        <time>2021-11-12T20:33:39.911Z</time>
      </trkpt>
      <trkpt lat="47.541410" lon="7.870791">
        <ele>342.265936</ele>
        <time>2021-11-12T20:33:40.253Z</time>
      </trkpt>
      <trkpt lat="47.540955" lon="7.871169">
        <ele>342.265936</ele>
        <time>2021-11-12T20:33:52.284Z</time>
      </trkpt>
      <trkpt lat="47.540933" lon="7.871187">
        <ele>342.265936</ele>
        <time>2021-11-12T20:33:52.816Z</time>
      </trkpt>
      <trkpt lat="47.540894" lon="7.871220">
        <ele>342.265936</ele>
        <time>2021-11-12T20:33:53.949Z</time>
      </trkpt>
      <trkpt lat="47.540693" lon="7.871390">
        <ele>342.265936</ele>
        <time>2021-11-12T20:33:59.466Z</time>
      </trkpt>
      <trkpt lat="47.540463" lon="7.871584">
        <ele>342.647374</ele>
        <time>2021-11-12T20:34:05.814Z</time>
      </trkpt>
      <trkpt lat="47.540265" lon="7.871808">
        <ele>343.125674</ele>
        <time>2021-11-12T20:34:11.347Z</time>
      </trkpt>
      <trkpt lat="47.540216" lon="7.871851">
        <ele>343.235013</ele>
        <time>2021-11-12T20:34:12.807Z</time>
      </trkpt>
      <trkpt lat="47.540034" lon="7.871970">
        <ele>343.616942</ele>
        <time>2021-11-12T20:34:17.498Z</time>
      </trkpt>
      <trkpt lat="47.539930" lon="7.872041">
        <ele>343.836787</ele>
        <time>2021-11-12T20:34:20.121Z</time>
      </trkpt>
      <trkpt lat="47.539841" lon="7.872151">
        <ele>344.059314</ele>
        <time>2021-11-12T20:34:23.141Z</time>
      </trkpt>
      <trkpt lat="47.539678" lon="7.872430">
        <ele>344.537511</ele>
        <time>2021-11-12T20:34:28.697Z</time>
      </trkpt>
      <trkpt lat="47.539222" lon="7.873416">
        <ele>345.916561</ele>
        <time>2021-11-12T20:34:46.239Z</time>
      </trkpt>
      <trkpt lat="47.538278" lon="7.874319">
        <ele>347.076309</ele>
        <time>2021-11-12T20:35:05.892Z</time>
      </trkpt>
      <trkpt lat="47.537716" lon="7.874966">
        <ele>347.985270</ele>
        <time>2021-11-12T20:35:19.867Z</time>
      </trkpt>
      <trkpt lat="47.537261" lon="7.875237">
        <ele>348.865957</ele>
        <time>2021-11-12T20:35:29.384Z</time>
      </trkpt>
      <trkpt lat="47.537182" lon="7.875293">
        <ele>349.023237</ele>
        <time>2021-11-12T20:35:31.373Z</time>
      </trkpt>
      <trkpt lat="47.536921" lon="7.875537">
        <ele>349.577496</ele>
        <time>2021-11-12T20:35:37.340Z</time>
      </trkpt>
      <trkpt lat="47.536757" lon="7.875759">
        <ele>349.976473</ele>
        <time>2021-11-12T20:35:41.941Z</time>
      </trkpt>
      <trkpt lat="47.536632" lon="7.875912">
        <ele>350.267678</ele>
        <time>2021-11-12T20:35:45.109Z</time>
      </trkpt>
      <trkpt lat="47.536444" lon="7.876177">
        <ele>350.733737</ele>
        <time>2021-11-12T20:35:52.071Z</time>
      </trkpt>
      <trkpt lat="47.535851" lon="7.877319">
        <ele>355.161932</ele>
        <time>2021-11-12T20:36:23.385Z</time>
      </trkpt>
      <trkpt lat="47.535770" lon="7.877432">
        <ele>355.681622</ele>
        <time>2021-11-12T20:36:27.565Z</time>
      </trkpt>
      <trkpt lat="47.535635" lon="7.877484">
        <ele>356.333113</ele>
        <time>2021-11-12T20:36:33.432Z</time>
      </trkpt>
      <trkpt lat="47.535551" lon="7.877487">
        <ele>356.725550</ele>
        <time>2021-11-12T20:36:35.341Z</time>
      </trkpt>
      <trkpt lat="47.535322" lon="7.877590">
        <ele>357.843323</ele>
        <time>2021-11-12T20:36:45.392Z</time>
      </trkpt>
      <trkpt lat="47.535088" lon="7.877742">
        <ele>359.036701</ele>
        <time>2021-11-12T20:36:53.224Z</time>
      </trkpt>
      <trkpt lat="47.534855" lon="7.878090">
        <ele>360.716467</ele>
        <time>2021-11-12T20:37:05.207Z</time>
      </trkpt>
      <trkpt lat="47.534778" lon="7.878270">
        <ele>361.453981</ele>
        <time>2021-11-12T20:37:12.514Z</time>
      </trkpt>
      <trkpt lat="47.534825" lon="7.878414">
        <ele>362.007556</ele>
        <time>2021-11-12T20:37:15.141Z</time>
      </trkpt>
      <trkpt lat="47.534946" lon="7.878790">
        <ele>363.449179</ele>
        <time>2021-11-12T20:37:27.189Z</time>
      </trkpt>
      <trkpt lat="47.534908" lon="7.878975">
        <ele>364.118449</ele>
        <time>2021-11-12T20:37:31.247Z</time>
      </trkpt>
      <trkpt lat="47.534616" lon="7.879490">
        <ele>366.446070</ele>
        <time>2021-11-12T20:37:48.193Z</time>
      </trkpt>
      <trkpt lat="47.533892" lon="7.880353">
        <ele>369.769098</ele>
        <time>2021-11-12T20:38:15.933Z</time>
      </trkpt>
      <trkpt lat="47.533606" lon="7.880961">
        <ele>371.006089</ele>
        <time>2021-11-12T20:38:28.241Z</time>
      </trkpt>
      <trkpt lat="47.533374" lon="7.881639">
        <ele>372.274952</ele>
        <time>2021-11-12T20:38:39.287Z</time>
      </trkpt>
      <trkpt lat="47.533014" lon="7.882949">
        <ele>372.903135</ele>
        <time>2021-11-12T20:38:57.202Z</time>
      </trkpt>
      <trkpt lat="47.532859" lon="7.883508">
        <ele>372.920024</ele>
        <time>2021-11-12T20:39:03.080Z</time>
      </trkpt>
      <trkpt lat="47.532713" lon="7.884122">
        <ele>372.938216</ele>
        <time>2021-11-12T20:39:08.777Z</time>
      </trkpt>
      <trkpt lat="47.532699" lon="7.884224">
        <ele>372.941125</ele>
        <time>2021-11-12T20:39:09.731Z</time>
      </trkpt>
      <trkpt lat="47.532670" lon="7.884773">
        <ele>372.639915</ele>
        <time>2021-11-12T20:39:14.225Z</time>
      </trkpt>
      <trkpt lat="47.532658" lon="7.884989">
        <ele>372.418582</ele>
        <time>2021-11-12T20:39:15.837Z</time>
      </trkpt>
      <trkpt lat="47.532650" lon="7.885569">
        <ele>371.826139</ele>
        <time>2021-11-12T20:39:20.339Z</time>
      </trkpt>
      <trkpt lat="47.532505" lon="7.887120">
        <ele>370.227044</ele>
        <time>2021-11-12T20:39:32.291Z</time>
      </trkpt>
      <trkpt lat="47.532288" lon="7.887728">
        <ele>369.465111</ele>
        <time>2021-11-12T20:39:37.467Z</time>
      </trkpt>
      <trkpt lat="47.532011" lon="7.888896">
        <ele>368.093560</ele>
        <time>2021-11-12T20:39:46.697Z</time>
      </trkpt>
      <trkpt lat="47.531843" lon="7.889349">
        <ele>367.520945</ele>
        <time>2021-11-12T20:39:50.734Z</time>
      </trkpt>
      <trkpt lat="47.531560" lon="7.889776">
        <ele>367.246259</ele>
        <time>2021-11-12T20:39:55.674Z</time>
      </trkpt>
      <trkpt lat="47.531265" lon="7.889937">
        <ele>367.209468</ele>
        <time>2021-11-12T20:39:59.642Z</time>
      </trkpt>
      <trkpt lat="47.531076" lon="7.890029">
        <ele>367.186186</ele>
        <time>2021-11-12T20:40:02.483Z</time>
      </trkpt>
      <trkpt lat="47.530606" lon="7.890373">
        <ele>367.124835</ele>
        <time>2021-11-12T20:40:10.332Z</time>
      </trkpt>
      <trkpt lat="47.530322" lon="7.890690">
        <ele>367.083218</ele>
        <time>2021-11-12T20:40:16.325Z</time>
      </trkpt>
      <trkpt lat="47.529972" lon="7.891210">
        <ele>367.422915</ele>
        <time>2021-11-12T20:40:25.487Z</time>
      </trkpt>
      <trkpt lat="47.529714" lon="7.891609">
        <ele>367.809160</ele>
        <time>2021-11-12T20:40:32.821Z</time>
      </trkpt>
      <trkpt lat="47.529695" lon="7.891638">
        <ele>367.837411</ele>
        <time>2021-11-12T20:40:33.807Z</time>
      </trkpt>
      <trkpt lat="47.529235" lon="7.892158">
        <ele>368.436612</ele>
        <time>2021-11-12T20:40:44.741Z</time>
      </trkpt>
      <trkpt lat="47.528331" lon="7.892682">
        <ele>369.612436</ele>
        <time>2021-11-12T20:41:03.443Z</time>
      </trkpt>
      <trkpt lat="47.528003" lon="7.892732">
        <ele>370.067244</ele>
        <time>2021-11-12T20:41:09.149Z</time>
      </trkpt>
      <trkpt lat="47.527498" lon="7.892650">
        <ele>370.767977</ele>
        <time>2021-11-12T20:41:18.622Z</time>
      </trkpt>
      <trkpt lat="47.527011" lon="7.893061">
        <ele>371.673508</ele>
        <time>2021-11-12T20:41:31.815Z</time>
      </trkpt>
      <trkpt lat="47.526709" lon="7.893617">
        <ele>373.003536</ele>
        <time>2021-11-12T20:41:44.347Z</time>
      </trkpt>
      <trkpt lat="47.526504" lon="7.894030">
        <ele>373.958958</ele>
        <time>2021-11-12T20:41:54.528Z</time>
      </trkpt>
      <trkpt lat="47.526451" lon="7.893983">
        <ele>374.129482</ele>
        <time>2021-11-12T20:41:55.917Z</time>
      </trkpt>
      <trkpt lat="47.526401" lon="7.893964">
        <ele>374.271973</ele>
        <time>2021-11-12T20:41:56.734Z</time>
      </trkpt>
      <trkpt lat="47.526335" lon="7.893960">
        <ele>374.454312</ele>
        <time>2021-11-12T20:41:58.808Z</time>
      </trkpt>
      <trkpt lat="47.526257" lon="7.894278">
        <ele>375.084945</ele>
        <time>2021-11-12T20:42:05.020Z</time>
      </trkpt>
      <trkpt lat="47.525725" lon="7.895110">
        <ele>376.902042</ele>
        <time>2021-11-12T20:42:24.102Z</time>
      </trkpt>
      <trkpt lat="47.525603" lon="7.895265">
        <ele>377.178777</ele>
        <time>2021-11-12T20:42:29.718Z</time>
      </trkpt>
      <trkpt lat="47.525631" lon="7.895442">
        <ele>377.390114</ele>
        <time>2021-11-12T20:42:32.568Z</time>
      </trkpt>
      <trkpt lat="47.525631" lon="7.895583">
        <ele>377.554029</ele>
        <time>2021-11-12T20:42:33.760Z</time>
      </trkpt>
      <trkpt lat="47.525622" lon="7.895944">
        <ele>377.973984</ele>
        <time>2021-11-12T20:42:41.286Z</time>
      </trkpt>
      <trkpt lat="47.525590" lon="7.896117">
        <ele>378.182508</ele>
        <time>2021-11-12T20:42:42.831Z</time>
      </trkpt>
      <trkpt lat="47.525518" lon="7.896336">
        <ele>378.465672</ele>
        <time>2021-11-12T20:42:47.594Z</time>
      </trkpt>
      <trkpt lat="47.524834" lon="7.897636">
        <ele>379.467756</ele>
        <time>2021-11-12T20:43:04.509Z</time>
      </trkpt>
      <trkpt lat="47.524811" lon="7.897697">
        <ele>379.467522</ele>
        <time>2021-11-12T20:43:05.208Z</time>
      </trkpt>
      <trkpt lat="47.524617" lon="7.898216">
        <ele>379.465532</ele>
        <time>2021-11-12T20:43:10.741Z</time>
      </trkpt>
      <trkpt lat="47.524360" lon="7.898951">
        <ele>379.462757</ele>
        <time>2021-11-12T20:43:18.247Z</time>
      </trkpt>
      <trkpt lat="47.524309" lon="7.899115">
        <ele>379.462151</ele>
        <time>2021-11-12T20:43:20.234Z</time>
      </trkpt>
      <trkpt lat="47.523896" lon="7.900001">
        <ele>380.300124</ele>
        <time>2021-11-12T20:43:32.050Z</time>
      </trkpt>
      <trkpt lat="47.523861" lon="7.900049">
        <ele>380.368371</ele>
        <time>2021-11-12T20:43:33.021Z</time>
      </trkpt>
      <trkpt lat="47.523890" lon="7.900131">
        <ele>380.457796</ele>
        <time>2021-11-12T20:43:33.976Z</time>
      </trkpt>
      <trkpt lat="47.523945" lon="7.900256">
        <ele>380.601930</ele>
        <time>2021-11-12T20:43:35.567Z</time>
      </trkpt>
      <trkpt lat="47.523989" lon="7.900340">
        <ele>380.704633</ele>
        <time>2021-11-12T20:43:36.617Z</time>
      </trkpt>
      <trkpt lat="47.523957" lon="7.900371">
        <ele>380.759339</ele>
        <time>2021-11-12T20:43:37.322Z</time>
      </trkpt>
      <trkpt lat="47.523878" lon="7.900445">
        <ele>380.893071</ele>
        <time>2021-11-12T20:43:39.438Z</time>
      </trkpt>
      <trkpt lat="47.523739" lon="7.900557">
        <ele>381.119461</ele>
        <time>2021-11-12T20:43:42.370Z</time>
      </trkpt>
      <trkpt lat="47.523648" lon="7.900606">
        <ele>381.257988</ele>
        <time>2021-11-12T20:43:44.549Z</time>
      </trkpt>
      <trkpt lat="47.523620" lon="7.900698">
        <ele>381.355478</ele>
        <time>2021-11-12T20:43:46.512Z</time>
      </trkpt>
      <trkpt lat="47.523567" lon="7.900820">
        <ele>381.495624</ele>
        <time>2021-11-12T20:43:48.609Z</time>
      </trkpt>
      <trkpt lat="47.523433" lon="7.901043">
        <ele>381.784006</ele>
        <time>2021-11-12T20:43:53.853Z</time>
      </trkpt>
      <trkpt lat="47.523340" lon="7.901197">
        <ele>381.983598</ele>
        <time>2021-11-12T20:43:57.896Z</time>
      </trkpt>
      <trkpt lat="47.523036" lon="7.901580">
        <ele>383.511228</ele>
        <time>2021-11-12T20:44:09.591Z</time>
      </trkpt>
      <trkpt lat="47.522688" lon="7.901843">
        <ele>385.098522</ele>
        <time>2021-11-12T20:44:21.909Z</time>
      </trkpt>
      <trkpt lat="47.522554" lon="7.901999">
        <ele>385.791015</ele>
        <time>2021-11-12T20:44:28.230Z</time>
      </trkpt>
      <trkpt lat="47.522260" lon="7.902356">
        <ele>387.335675</ele>
        <time>2021-11-12T20:44:40.604Z</time>
      </trkpt>
      <trkpt lat="47.522132" lon="7.902476">
        <ele>387.951154</ele>
        <time>2021-11-12T20:44:45.161Z</time>
      </trkpt>
      <trkpt lat="47.522065" lon="7.902526">
        <ele>388.255967</ele>
        <time>2021-11-12T20:44:47.356Z</time>
      </trkpt>
      <trkpt lat="47.522038" lon="7.902562">
        <ele>388.403573</ele>
        <time>2021-11-12T20:44:48.860Z</time>
      </trkpt>
      <trkpt lat="47.522013" lon="7.902637">
        <ele>388.633042</ele>
        <time>2021-11-12T20:44:50.993Z</time>
      </trkpt>
      <trkpt lat="47.521792" lon="7.903347">
        <ele>390.450183</ele>
        <time>2021-11-12T20:45:07.062Z</time>
      </trkpt>
      <trkpt lat="47.521297" lon="7.904312">
        <ele>393.016048</ele>
        <time>2021-11-12T20:45:31.064Z</time>
      </trkpt>
      <trkpt lat="47.520989" lon="7.905130">
        <ele>394.985482</ele>
        <time>2021-11-12T20:45:46.478Z</time>
      </trkpt>
      <trkpt lat="47.520678" lon="7.906050">
        <ele>395.486120</ele>
        <time>2021-11-12T20:45:59.917Z</time>
      </trkpt>
      <trkpt lat="47.520566" lon="7.906668">
        <ele>395.797487</ele>
        <time>2021-11-12T20:46:06.956Z</time>
      </trkpt>
      <trkpt lat="47.520528" lon="7.906930">
        <ele>395.927887</ele>
        <time>2021-11-12T20:46:10.167Z</time>
      </trkpt>
      <trkpt lat="47.520515" lon="7.907103">
        <ele>396.012591</ele>
        <time>2021-11-12T20:46:11.997Z</time>
      </trkpt>
      <trkpt lat="47.520506" lon="7.907236">
        <ele>396.077635</ele>
        <time>2021-11-12T20:46:13.083Z</time>
      </trkpt>
      <trkpt lat="47.520551" lon="7.907422">
        <ele>396.173778</ele>
        <time>2021-11-12T20:46:15.497Z</time>
      </trkpt>
      <trkpt lat="47.520556" lon="7.907429">
        <ele>396.178736</ele>
        <time>2021-11-12T20:46:15.576Z</time>
      </trkpt>
      <trkpt lat="47.520733" lon="7.907655">
        <ele>396.291191</ele>
        <time>2021-11-12T20:46:18.689Z</time>
      </trkpt>
      <trkpt lat="47.520738" lon="7.907839">
        <ele>396.308855</ele>
        <time>2021-11-12T20:46:20.786Z</time>
      </trkpt>
      <trkpt lat="47.520493" lon="7.908683">
        <ele>396.396973</ele>
        <time>2021-11-12T20:46:28.993Z</time>
      </trkpt>
      <trkpt lat="47.519997" lon="7.910833">
        <ele>397.094924</ele>
        <time>2021-11-12T20:46:54.940Z</time>
      </trkpt>
      <trkpt lat="47.519891" lon="7.911129">
        <ele>397.315242</ele>
        <time>2021-11-12T20:46:59.530Z</time>
      </trkpt>
      <trkpt lat="47.519720" lon="7.911522">
        <ele>397.622668</ele>
        <time>2021-11-12T20:47:05.614Z</time>
      </trkpt>
      <trkpt lat="47.519421" lon="7.912098">
        <ele>398.100404</ele>
        <time>2021-11-12T20:47:15.180Z</time>
      </trkpt>
      <trkpt lat="47.517688" lon="7.914418">
        <ele>400.557985</ele>
        <time>2021-11-12T20:47:59.759Z</time>
      </trkpt>
      <trkpt lat="47.517281" lon="7.915238">
        <ele>401.219214</ele>
        <time>2021-11-12T20:48:12.846Z</time>
      </trkpt>
      <trkpt lat="47.517140" lon="7.915259">
        <ele>401.355555</ele>
        <time>2021-11-12T20:48:15.390Z</time>
      </trkpt>
      <trkpt lat="47.516806" lon="7.914896">
        <ele>401.754173</ele>
        <time>2021-11-12T20:48:22.974Z</time>
      </trkpt>
      <trkpt lat="47.516748" lon="7.914873">
        <ele>401.811942</ele>
        <time>2021-11-12T20:48:24.145Z</time>
      </trkpt>
      <trkpt lat="47.516662" lon="7.914835">
        <ele>401.898289</ele>
        <time>2021-11-12T20:48:25.938Z</time>
      </trkpt>
      <trkpt lat="47.516626" lon="7.914830">
        <ele>401.933076</ele>
        <time>2021-11-12T20:48:26.634Z</time>
      </trkpt>
      <trkpt lat="47.516590" lon="7.914840">
        <ele>401.966991</ele>
        <time>2021-11-12T20:48:27.235Z</time>
      </trkpt>
      <trkpt lat="47.516569" lon="7.914864">
        <ele>401.990319</ele>
        <time>2021-11-12T20:48:27.776Z</time>
      </trkpt>
      <trkpt lat="47.516544" lon="7.914936">
        <ele>402.038401</ele>
        <time>2021-11-12T20:48:28.624Z</time>
      </trkpt>
      <trkpt lat="47.516391" lon="7.915243">
        <ele>402.264999</ele>
        <time>2021-11-12T20:48:33.406Z</time>
      </trkpt>
      <trkpt lat="47.516065" lon="7.915667">
        <ele>402.646569</ele>
        <time>2021-11-12T20:48:41.195Z</time>
      </trkpt>
      <trkpt lat="47.515728" lon="7.916104">
        <ele>403.040503</ele>
        <time>2021-11-12T20:48:49.335Z</time>
      </trkpt>
      <trkpt lat="47.515014" lon="7.917030">
        <ele>404.050771</ele>
        <time>2021-11-12T20:49:07.183Z</time>
      </trkpt>
      <trkpt lat="47.514635" lon="7.917349">
        <ele>404.631778</ele>
        <time>2021-11-12T20:49:15.195Z</time>
      </trkpt>
      <trkpt lat="47.514561" lon="7.917409">
        <ele>404.744218</ele>
        <time>2021-11-12T20:49:17.075Z</time>
      </trkpt>
      <trkpt lat="47.514255" lon="7.917714">
        <ele>405.235826</ele>
        <time>2021-11-12T20:49:24.537Z</time>
      </trkpt>
      <trkpt lat="47.513378" lon="7.918393">
        <ele>406.814183</ele>
        <time>2021-11-12T20:49:46.258Z</time>
      </trkpt>
      <trkpt lat="47.513160" lon="7.918764">
        <ele>407.441104</ele>
        <time>2021-11-12T20:49:53.759Z</time>
      </trkpt>
      <trkpt lat="47.513058" lon="7.918896">
        <ele>407.696813</ele>
        <time>2021-11-12T20:49:56.915Z</time>
      </trkpt>
      <trkpt lat="47.512938" lon="7.919052">
        <ele>407.998240</ele>
        <time>2021-11-12T20:50:00.694Z</time>
      </trkpt>
      <trkpt lat="47.512664" lon="7.919306">
        <ele>408.608439</ele>
        <time>2021-11-12T20:50:08.020Z</time>
      </trkpt>
      <trkpt lat="47.512255" lon="7.919538">
        <ele>409.396055</ele>
        <time>2021-11-12T20:50:17.705Z</time>
      </trkpt>
      <trkpt lat="47.512085" lon="7.919732">
        <ele>409.655166</ele>
        <time>2021-11-12T20:50:22.329Z</time>
      </trkpt>
      <trkpt lat="47.511964" lon="7.919989">
        <ele>409.910605</ele>
        <time>2021-11-12T20:50:26.866Z</time>
      </trkpt>
      <trkpt lat="47.511883" lon="7.920133">
        <ele>410.063405</ele>
        <time>2021-11-12T20:50:29.521Z</time>
      </trkpt>
      <trkpt lat="47.511632" lon="7.920105">
        <ele>410.367269</ele>
        <time>2021-11-12T20:50:36.170Z</time>
      </trkpt>
      <trkpt lat="47.511613" lon="7.920183">
        <ele>410.434879</ele>
        <time>2021-11-12T20:50:37.086Z</time>
      </trkpt>
      <trkpt lat="47.511186" lon="7.920984">
        <ele>411.266917</ele>
        <time>2021-11-12T20:50:49.763Z</time>
      </trkpt>
      <trkpt lat="47.511067" lon="7.921207">
        <ele>411.498556</ele>
        <time>2021-11-12T20:50:53.077Z</time>
      </trkpt>
      <trkpt lat="47.511052" lon="7.921232">
        <ele>411.521998</ele>
        <time>2021-11-12T20:50:53.523Z</time>
      </trkpt>
      <trkpt lat="47.510872" lon="7.921477">
        <ele>411.775768</ele>
        <time>2021-11-12T20:50:57.845Z</time>
      </trkpt>
      <trkpt lat="47.510639" lon="7.921796">
        <ele>412.105145</ele>
        <time>2021-11-12T20:51:03.359Z</time>
      </trkpt>
      <trkpt lat="47.509688" lon="7.922616">
        <ele>413.247360</ele>
        <time>2021-11-12T20:51:23.847Z</time>
      </trkpt>
      <trkpt lat="47.509615" lon="7.922742">
        <ele>413.363734</ele>
        <time>2021-11-12T20:51:26.860Z</time>
      </trkpt>
      <trkpt lat="47.509583" lon="7.922962">
        <ele>413.676167</ele>
        <time>2021-11-12T20:51:29.629Z</time>
      </trkpt>
      <trkpt lat="47.509550" lon="7.923245">
        <ele>414.076136</ele>
        <time>2021-11-12T20:51:34.392Z</time>
      </trkpt>
      <trkpt lat="47.509595" lon="7.923295">
        <ele>414.192145</ele>
        <time>2021-11-12T20:51:35.510Z</time>
      </trkpt>
      <trkpt lat="47.509668" lon="7.923400">
        <ele>414.402001</ele>
        <time>2021-11-12T20:51:37.407Z</time>
      </trkpt>
      <trkpt lat="47.509817" lon="7.923703">
        <ele>414.923977</ele>
        <time>2021-11-12T20:51:43.608Z</time>
      </trkpt>
      <trkpt lat="47.509869" lon="7.923971">
        <ele>415.312318</ele>
        <time>2021-11-12T20:51:47.466Z</time>
      </trkpt>
      <trkpt lat="47.509886" lon="7.924134">
        <ele>415.542020</ele>
        <time>2021-11-12T20:51:50.813Z</time>
      </trkpt>
      <trkpt lat="47.509806" lon="7.924174">
        <ele>415.716121</ele>
        <time>2021-11-12T20:51:52.591Z</time>
      </trkpt>
      <trkpt lat="47.509676" lon="7.924247">
        <ele>416.002797</ele>
        <time>2021-11-12T20:51:55.458Z</time>
      </trkpt>
      <trkpt lat="47.509605" lon="7.924290">
        <ele>416.160964</ele>
        <time>2021-11-12T20:51:57.446Z</time>
      </trkpt>
      <trkpt lat="47.509572" lon="7.924311">
        <ele>416.235025</ele>
        <time>2021-11-12T20:51:58.700Z</time>
      </trkpt>
      <trkpt lat="47.509252" lon="7.924602">
        <ele>417.009352</ele>
        <time>2021-11-12T20:52:08.025Z</time>
      </trkpt>
      <trkpt lat="47.509223" lon="7.924628">
        <ele>417.079940</ele>
        <time>2021-11-12T20:52:08.811Z</time>
      </trkpt>
      <trkpt lat="47.509032" lon="7.924863">
        <ele>417.650588</ele>
        <time>2021-11-12T20:52:14.680Z</time>
      </trkpt>
      <trkpt lat="47.509016" lon="7.924882">
        <ele>417.697718</ele>
        <time>2021-11-12T20:52:15.275Z</time>
      </trkpt>
      <trkpt lat="47.508667" lon="7.925295">
        <ele>418.724342</ele>
        <time>2021-11-12T20:52:26.544Z</time>
      </trkpt>
      <trkpt lat="47.508355" lon="7.925609">
        <ele>419.591208</ele>
        <time>2021-11-12T20:52:34.919Z</time>
      </trkpt>
      <trkpt lat="47.508106" lon="7.925799">
        <ele>420.234877</ele>
        <time>2021-11-12T20:52:41.205Z</time>
      </trkpt>
      <trkpt lat="47.508002" lon="7.925879">
        <ele>420.504176</ele>
        <time>2021-11-12T20:52:43.628Z</time>
      </trkpt>
      <trkpt lat="47.507856" lon="7.925990">
        <ele>420.881301</ele>
        <time>2021-11-12T20:52:47.485Z</time>
      </trkpt>
      <trkpt lat="47.506112" lon="7.927414">
        <ele>426.852429</ele>
        <time>2021-11-12T20:53:40.480Z</time>
      </trkpt>
      <trkpt lat="47.505881" lon="7.927601">
        <ele>427.741955</ele>
        <time>2021-11-12T20:53:49.176Z</time>
      </trkpt>
      <trkpt lat="47.505868" lon="7.927611">
        <ele>427.791452</ele>
        <time>2021-11-12T20:53:49.639Z</time>
      </trkpt>
      <trkpt lat="47.505814" lon="7.927657">
        <ele>428.001946</ele>
        <time>2021-11-12T20:53:52.196Z</time>
      </trkpt>
      <trkpt lat="47.505253" lon="7.928170">
        <ele>430.229798</ele>
        <time>2021-11-12T20:54:12.783Z</time>
      </trkpt>
      <trkpt lat="47.504799" lon="7.928777">
        <ele>432.296690</ele>
        <time>2021-11-12T20:54:28.148Z</time>
      </trkpt>
      <trkpt lat="47.504724" lon="7.928871">
        <ele>432.628708</ele>
        <time>2021-11-12T20:54:32.145Z</time>
      </trkpt>
      <trkpt lat="47.504650" lon="7.928941">
        <ele>432.823319</ele>
        <time>2021-11-12T20:54:34.704Z</time>
      </trkpt>
      <trkpt lat="47.504485" lon="7.929036">
        <ele>433.063750</ele>
        <time>2021-11-12T20:54:37.424Z</time>
      </trkpt>
      <trkpt lat="47.504005" lon="7.929312">
        <ele>433.763066</ele>
        <time>2021-11-12T20:54:49.141Z</time>
      </trkpt>
      <trkpt lat="47.503815" lon="7.929426">
        <ele>434.041486</ele>
        <time>2021-11-12T20:54:52.053Z</time>
      </trkpt>
      <trkpt lat="47.503598" lon="7.929585">
        <ele>434.370310</ele>
        <time>2021-11-12T20:54:57.368Z</time>
      </trkpt>
      <trkpt lat="47.503528" lon="7.929650">
        <ele>434.482529</ele>
        <time>2021-11-12T20:54:58.425Z</time>
      </trkpt>
      <trkpt lat="47.503485" lon="7.929688">
        <ele>434.550540</ele>
        <time>2021-11-12T20:54:59.930Z</time>
      </trkpt>
      <trkpt lat="47.503014" lon="7.930220">
        <ele>435.291762</ele>
        <time>2021-11-12T20:55:09.908Z</time>
      </trkpt>
      <trkpt lat="47.502761" lon="7.930610">
        <ele>435.588590</ele>
        <time>2021-11-12T20:55:16.308Z</time>
      </trkpt>
      <trkpt lat="47.502613" lon="7.930856">
        <ele>435.769427</ele>
        <time>2021-11-12T20:55:20.106Z</time>
      </trkpt>
      <trkpt lat="47.502400" lon="7.931256">
        <ele>436.049033</ele>
        <time>2021-11-12T20:55:26.910Z</time>
      </trkpt>
      <trkpt lat="47.502023" lon="7.932158">
        <ele>436.631318</ele>
        <time>2021-11-12T20:55:39.896Z</time>
      </trkpt>
      <trkpt lat="47.501901" lon="7.932351">
        <ele>436.733907</ele>
        <time>2021-11-12T20:55:43.655Z</time>
      </trkpt>
      <trkpt lat="47.501794" lon="7.932466">
        <ele>436.802463</ele>
        <time>2021-11-12T20:55:45.534Z</time>
      </trkpt>
      <trkpt lat="47.501463" lon="7.932668">
        <ele>436.988088</ele>
        <time>2021-11-12T20:55:51.674Z</time>
      </trkpt>
      <trkpt lat="47.501075" lon="7.932885">
        <ele>437.203133</ele>
        <time>2021-11-12T20:55:59.213Z</time>
      </trkpt>
      <trkpt lat="47.500990" lon="7.932950">
        <ele>437.252736</ele>
        <time>2021-11-12T20:56:01.031Z</time>
      </trkpt>
      <trkpt lat="47.500843" lon="7.933102">
        <ele>437.345704</ele>
        <time>2021-11-12T20:56:03.910Z</time>
      </trkpt>
      <trkpt lat="47.500435" lon="7.933872">
        <ele>437.748925</ele>
        <time>2021-11-12T20:56:13.741Z</time>
      </trkpt>
      <trkpt lat="47.500386" lon="7.933937">
        <ele>437.804310</ele>
        <time>2021-11-12T20:56:14.600Z</time>
      </trkpt>
      <trkpt lat="47.500352" lon="7.933976">
        <ele>437.840517</ele>
        <time>2021-11-12T20:56:15.362Z</time>
      </trkpt>
      <trkpt lat="47.500275" lon="7.934029">
        <ele>437.911996</ele>
        <time>2021-11-12T20:56:16.470Z</time>
      </trkpt>
      <trkpt lat="47.500208" lon="7.934071">
        <ele>437.973242</ele>
        <time>2021-11-12T20:56:17.703Z</time>
      </trkpt>
      <trkpt lat="47.500193" lon="7.934023">
        <ele>438.003317</ele>
        <time>2021-11-12T20:56:18.182Z</time>
      </trkpt>
      <trkpt lat="47.500169" lon="7.933984">
        <ele>438.033317</ele>
        <time>2021-11-12T20:56:18.615Z</time>
      </trkpt>
      <trkpt lat="47.500138" lon="7.933956">
        <ele>438.063885</ele>
        <time>2021-11-12T20:56:19.159Z</time>
      </trkpt>
      <trkpt lat="47.500067" lon="7.933946">
        <ele>438.123919</ele>
        <time>2021-11-12T20:56:20.107Z</time>
      </trkpt>
      <trkpt lat="47.500034" lon="7.933965">
        <ele>438.153724</ele>
        <time>2021-11-12T20:56:20.926Z</time>
      </trkpt>
      <trkpt lat="47.499993" lon="7.933864">
        <ele>438.220730</ele>
        <time>2021-11-12T20:56:22.468Z</time>
      </trkpt>
      <trkpt lat="47.499822" lon="7.933272">
        <ele>438.586865</ele>
        <time>2021-11-12T20:56:30.448Z</time>
      </trkpt>
      <trkpt lat="47.499538" lon="7.932868">
        <ele>438.918422</ele>
        <time>2021-11-12T20:56:38.430Z</time>
      </trkpt>
      <trkpt lat="47.499421" lon="7.932805">
        <ele>439.023220</ele>
        <time>2021-11-12T20:56:41.484Z</time>
      </trkpt>
      <trkpt lat="47.499354" lon="7.932769">
        <ele>439.083218</ele>
        <time>2021-11-12T20:56:43.211Z</time>
      </trkpt>
      <trkpt lat="47.499088" lon="7.932741">
        <ele>439.537610</ele>
        <time>2021-11-12T20:56:49.088Z</time>
      </trkpt>
      <trkpt lat="47.498997" lon="7.932758">
        <ele>439.702614</ele>
        <time>2021-11-12T20:56:51.126Z</time>
      </trkpt>
      <trkpt lat="47.498925" lon="7.932781">
        <ele>439.835122</ele>
        <time>2021-11-12T20:56:52.833Z</time>
      </trkpt>
      <trkpt lat="47.498481" lon="7.933011">
        <ele>440.681367</ele>
        <time>2021-11-12T20:57:02.087Z</time>
      </trkpt>
      <trkpt lat="47.498431" lon="7.932995">
        <ele>440.773394</ele>
        <time>2021-11-12T20:57:03.309Z</time>
      </trkpt>
      <trkpt lat="47.498391" lon="7.932972">
        <ele>440.850591</ele>
        <time>2021-11-12T20:57:04.228Z</time>
      </trkpt>
      <trkpt lat="47.498196" lon="7.932613">
        <ele>441.410451</ele>
        <time>2021-11-12T20:57:10.952Z</time>
      </trkpt>
      <trkpt lat="47.498138" lon="7.932522">
        <ele>441.562503</ele>
        <time>2021-11-12T20:57:12.952Z</time>
      </trkpt>
      <trkpt lat="47.498068" lon="7.932426">
        <ele>441.734177</ele>
        <time>2021-11-12T20:57:15.399Z</time>
      </trkpt>
      <trkpt lat="47.497907" lon="7.932254">
        <ele>442.091374</ele>
        <time>2021-11-12T20:57:20.101Z</time>
      </trkpt>
      <trkpt lat="47.497676" lon="7.932013">
        <ele>442.561366</ele>
        <time>2021-11-12T20:57:26.580Z</time>
      </trkpt>
      <trkpt lat="47.497430" lon="7.931757">
        <ele>443.021955</ele>
        <time>2021-11-12T20:57:34.171Z</time>
      </trkpt>
      <trkpt lat="47.497221" lon="7.931528">
        <ele>443.420236</ele>
        <time>2021-11-12T20:57:40.168Z</time>
      </trkpt>
      <trkpt lat="47.497104" lon="7.931414">
        <ele>443.634781</ele>
        <time>2021-11-12T20:57:42.966Z</time>
      </trkpt>
      <trkpt lat="47.496998" lon="7.931330">
        <ele>443.818940</ele>
        <time>2021-11-12T20:57:45.377Z</time>
      </trkpt>
      <trkpt lat="47.496424" lon="7.931075">
        <ele>444.736847</ele>
        <time>2021-11-12T20:57:56.126Z</time>
      </trkpt>
      <trkpt lat="47.496205" lon="7.930904">
        <ele>445.123586</ele>
        <time>2021-11-12T20:58:00.146Z</time>
      </trkpt>
      <trkpt lat="47.496162" lon="7.930842">
        <ele>445.249949</ele>
        <time>2021-11-12T20:58:01.711Z</time>
      </trkpt>
      <trkpt lat="47.496117" lon="7.930763">
        <ele>445.396904</ele>
        <time>2021-11-12T20:58:02.979Z</time>
      </trkpt>
      <trkpt lat="47.496051" lon="7.930607">
        <ele>445.658674</ele>
        <time>2021-11-12T20:58:05.761Z</time>
      </trkpt>
      <trkpt lat="47.495985" lon="7.930428">
        <ele>445.948689</ele>
        <time>2021-11-12T20:58:08.593Z</time>
      </trkpt>
      <trkpt lat="47.495801" lon="7.929891">
        <ele>446.805008</ele>
        <time>2021-11-12T20:58:18.251Z</time>
      </trkpt>
      <trkpt lat="47.495622" lon="7.929400">
        <ele>447.598479</ele>
        <time>2021-11-12T20:58:26.864Z</time>
      </trkpt>
      <trkpt lat="47.495562" lon="7.929221">
        <ele>447.882661</ele>
        <time>2021-11-12T20:58:29.823Z</time>
      </trkpt>
      <trkpt lat="47.495530" lon="7.929063">
        <ele>448.117249</ele>
        <time>2021-11-12T20:58:32.298Z</time>
      </trkpt>
      <trkpt lat="47.495455" lon="7.928595">
        <ele>448.801311</ele>
        <time>2021-11-12T20:58:41.125Z</time>
      </trkpt>
      <trkpt lat="47.495268" lon="7.927740">
        <ele>450.994085</ele>
        <time>2021-11-12T20:58:58.134Z</time>
      </trkpt>
      <trkpt lat="47.495031" lon="7.927006">
        <ele>453.034945</ele>
        <time>2021-11-12T20:59:15.036Z</time>
      </trkpt>
      <trkpt lat="47.494945" lon="7.926765">
        <ele>453.718691</ele>
        <time>2021-11-12T20:59:21.679Z</time>
      </trkpt>
      <trkpt lat="47.494515" lon="7.925509">
        <ele>457.165118</ele>
        <time>2021-11-12T20:59:50.098Z</time>
      </trkpt>
      <trkpt lat="47.494438" lon="7.925289">
        <ele>457.755093</ele>
        <time>2021-11-12T20:59:55.531Z</time>
      </trkpt>
      <trkpt lat="47.494034" lon="7.924101">
        <ele>460.922056</ele>
        <time>2021-11-12T21:00:20.595Z</time>
      </trkpt>
      <trkpt lat="47.493708" lon="7.923049">
        <ele>463.730737</ele>
        <time>2021-11-12T21:00:42.167Z</time>
      </trkpt>
      <trkpt lat="47.493397" lon="7.921760">
        <ele>467.086613</ele>
        <time>2021-11-12T21:01:09.146Z</time>
      </trkpt>
      <trkpt lat="47.493307" lon="7.921373">
        <ele>468.090110</ele>
        <time>2021-11-12T21:01:17.640Z</time>
      </trkpt>
      <trkpt lat="47.493236" lon="7.921091">
        <ele>468.941549</ele>
        <time>2021-11-12T21:01:24.021Z</time>
      </trkpt>
      <trkpt lat="47.493132" lon="7.920716">
        <ele>470.216377</ele>
        <time>2021-11-12T21:01:33.071Z</time>
      </trkpt>
      <trkpt lat="47.492813" lon="7.919900">
        <ele>473.181227</ele>
        <time>2021-11-12T21:01:54.554Z</time>
      </trkpt>
      <trkpt lat="47.492584" lon="7.919482">
        <ele>474.873636</ele>
        <time>2021-11-12T21:02:07.327Z</time>
      </trkpt>
      <trkpt lat="47.492227" lon="7.918989">
        <ele>477.110677</ele>
        <time>2021-11-12T21:02:24.229Z</time>
      </trkpt>
      <trkpt lat="47.491324" lon="7.917985">
        <ele>481.829908</ele>
        <time>2021-11-12T21:03:01.013Z</time>
      </trkpt>
      <trkpt lat="47.490822" lon="7.917158">
        <ele>484.735323</ele>
        <time>2021-11-12T21:03:23.173Z</time>
      </trkpt>
      <trkpt lat="47.490607" lon="7.916690">
        <ele>485.764243</ele>
        <time>2021-11-12T21:03:33.371Z</time>
      </trkpt>
      <trkpt lat="47.490429" lon="7.916164">
        <ele>486.833815</ele>
        <time>2021-11-12T21:03:43.240Z</time>
      </trkpt>
      <trkpt lat="47.490283" lon="7.915612">
        <ele>487.911580</ele>
        <time>2021-11-12T21:03:53.068Z</time>
      </trkpt>
      <trkpt lat="47.489987" lon="7.914083">
        <ele>490.689149</ele>
        <time>2021-11-12T21:04:18.849Z</time>
      </trkpt>
      <trkpt lat="47.489951" lon="7.913893">
        <ele>491.023091</ele>
        <time>2021-11-12T21:04:21.843Z</time>
      </trkpt>
      <trkpt lat="47.489922" lon="7.913738">
        <ele>491.295269</ele>
        <time>2021-11-12T21:04:24.348Z</time>
      </trkpt>
      <trkpt lat="47.489843" lon="7.913398">
        <ele>491.903724</ele>
        <time>2021-11-12T21:04:29.695Z</time>
      </trkpt>
      <trkpt lat="47.489607" lon="7.912646">
        <ele>493.306909</ele>
        <time>2021-11-12T21:04:43.923Z</time>
      </trkpt>
      <trkpt lat="47.489216" lon="7.911685">
        <ele>496.117781</ele>
        <time>2021-11-12T21:05:06.237Z</time>
      </trkpt>
      <trkpt lat="47.489040" lon="7.911300">
        <ele>497.368222</ele>
        <time>2021-11-12T21:05:15.704Z</time>
      </trkpt>
      <trkpt lat="47.488908" lon="7.911009">
        <ele>498.311075</ele>
        <time>2021-11-12T21:05:24.265Z</time>
      </trkpt>
      <trkpt lat="47.488699" lon="7.910498">
        <ele>499.917932</ele>
        <time>2021-11-12T21:05:37.928Z</time>
      </trkpt>
      <trkpt lat="47.488366" lon="7.909318">
        <ele>502.985519</ele>
        <time>2021-11-12T21:06:03.801Z</time>
      </trkpt>
      <trkpt lat="47.488241" lon="7.908835">
        <ele>504.172843</ele>
        <time>2021-11-12T21:06:12.987Z</time>
      </trkpt>
      <trkpt lat="47.488185" lon="7.908663">
        <ele>504.611133</ele>
        <time>2021-11-12T21:06:17.039Z</time>
      </trkpt>
      <trkpt lat="47.488080" lon="7.908344">
        <ele>505.425697</ele>
        <time>2021-11-12T21:06:23.000Z</time>
      </trkpt>
      <trkpt lat="47.487763" lon="7.907711">
        <ele>507.266860</ele>
        <time>2021-11-12T21:06:38.058Z</time>
      </trkpt>
      <trkpt lat="47.487587" lon="7.907459">
        <ele>508.187135</ele>
        <time>2021-11-12T21:06:44.517Z</time>
      </trkpt>
      <trkpt lat="47.487378" lon="7.907191">
        <ele>509.226351</ele>
        <time>2021-11-12T21:06:51.716Z</time>
      </trkpt>
      <trkpt lat="47.487197" lon="7.906946">
        <ele>510.148135</ele>
        <time>2021-11-12T21:06:57.857Z</time>
      </trkpt>
      <trkpt lat="47.486969" lon="7.906583">
        <ele>511.406615</ele>
        <time>2021-11-12T21:07:06.166Z</time>
      </trkpt>
      <trkpt lat="47.486769" lon="7.905976">
        <ele>513.121482</ele>
        <time>2021-11-12T21:07:22.195Z</time>
      </trkpt>
      <trkpt lat="47.486724" lon="7.905485">
        <ele>514.808728</ele>
        <time>2021-11-12T21:07:34.867Z</time>
      </trkpt>
      <trkpt lat="47.486755" lon="7.904487">
        <ele>518.917861</ele>
        <time>2021-11-12T21:08:01.733Z</time>
      </trkpt>
      <trkpt lat="47.486721" lon="7.904326">
        <ele>519.611640</ele>
        <time>2021-11-12T21:08:06.749Z</time>
      </trkpt>
      <trkpt lat="47.486688" lon="7.904238">
        <ele>520.025582</ele>
        <time>2021-11-12T21:08:09.903Z</time>
      </trkpt>
      <trkpt lat="47.486480" lon="7.904016">
        <ele>521.586505</ele>
        <time>2021-11-12T21:08:19.008Z</time>
      </trkpt>
      <trkpt lat="47.486247" lon="7.904043">
        <ele>523.009003</ele>
        <time>2021-11-12T21:08:27.675Z</time>
      </trkpt>
      <trkpt lat="47.486049" lon="7.904262">
        <ele>524.513566</ele>
        <time>2021-11-12T21:08:39.071Z</time>
      </trkpt>
      <trkpt lat="47.485593" lon="7.905145">
        <ele>527.362551</ele>
        <time>2021-11-12T21:09:08.837Z</time>
      </trkpt>
      <trkpt lat="47.485331" lon="7.905337">
        <ele>528.453395</ele>
        <time>2021-11-12T21:09:17.421Z</time>
      </trkpt>
      <trkpt lat="47.485073" lon="7.905345">
        <ele>529.416222</ele>
        <time>2021-11-12T21:09:24.033Z</time>
      </trkpt>
      <trkpt lat="47.485049" lon="7.905336">
        <ele>529.508598</ele>
        <time>2021-11-12T21:09:25.630Z</time>
      </trkpt>
      <trkpt lat="47.484936" lon="7.905289">
        <ele>529.946547</ele>
        <time>2021-11-12T21:09:28.259Z</time>
      </trkpt>
      <trkpt lat="47.484713" lon="7.905133">
        <ele>530.866865</ele>
        <time>2021-11-12T21:09:33.879Z</time>
      </trkpt>
      <trkpt lat="47.484481" lon="7.904947">
        <ele>530.907077</ele>
        <time>2021-11-12T21:09:37.256Z</time>
      </trkpt>
      <trkpt lat="47.484248" lon="7.904856">
        <ele>530.126868</ele>
        <time>2021-11-12T21:09:40.284Z</time>
      </trkpt>
      <trkpt lat="47.484124" lon="7.904824">
        <ele>529.719338</ele>
        <time>2021-11-12T21:09:41.761Z</time>
      </trkpt>
      <trkpt lat="47.484064" lon="7.904808">
        <ele>529.521948</ele>
        <time>2021-11-12T21:09:42.430Z</time>
      </trkpt>
      <trkpt lat="47.484005" lon="7.904793">
        <ele>529.328127</ele>
        <time>2021-11-12T21:09:43.162Z</time>
      </trkpt>
      <trkpt lat="47.483385" lon="7.904708">
        <ele>527.312177</ele>
        <time>2021-11-12T21:09:49.616Z</time>
      </trkpt>
      <trkpt lat="47.483329" lon="7.904705">
        <ele>527.130749</ele>
        <time>2021-11-12T21:09:50.123Z</time>
      </trkpt>
      <trkpt lat="47.483101" lon="7.904680">
        <ele>526.390537</ele>
        <time>2021-11-12T21:09:52.253Z</time>
      </trkpt>
      <trkpt lat="47.482433" lon="7.904538">
        <ele>522.714733</ele>
        <time>2021-11-12T21:09:58.224Z</time>
      </trkpt>
      <trkpt lat="47.482157" lon="7.904346">
        <ele>520.609388</ele>
        <time>2021-11-12T21:10:00.937Z</time>
      </trkpt>
      <trkpt lat="47.481709" lon="7.903892">
        <ele>516.860966</ele>
        <time>2021-11-12T21:10:05.776Z</time>
      </trkpt>
      <trkpt lat="47.481588" lon="7.903776">
        <ele>515.865683</ele>
        <time>2021-11-12T21:10:07.062Z</time>
      </trkpt>
      <trkpt lat="47.481478" lon="7.903693">
        <ele>515.013296</ele>
        <time>2021-11-12T21:10:08.194Z</time>
      </trkpt>
      <trkpt lat="47.480980" lon="7.903461">
        <ele>511.801375</ele>
        <time>2021-11-12T21:10:13.025Z</time>
      </trkpt>
      <trkpt lat="47.478367" lon="7.903166">
        <ele>497.475691</ele>
        <time>2021-11-12T21:10:37.657Z</time>
      </trkpt>
      <trkpt lat="47.478182" lon="7.903109">
        <ele>496.398943</ele>
        <time>2021-11-12T21:10:39.401Z</time>
      </trkpt>
      <trkpt lat="47.478118" lon="7.903075">
        <ele>496.011475</ele>
        <time>2021-11-12T21:10:39.999Z</time>
      </trkpt>
      <trkpt lat="47.476982" lon="7.902234">
        <ele>488.304269</ele>
        <time>2021-11-12T21:10:51.493Z</time>
      </trkpt>
      <trkpt lat="47.476536" lon="7.901977">
        <ele>485.295027</ele>
        <time>2021-11-12T21:10:55.860Z</time>
      </trkpt>
      <trkpt lat="47.476364" lon="7.901870">
        <ele>484.121931</ele>
        <time>2021-11-12T21:10:57.555Z</time>
      </trkpt>
      <trkpt lat="47.475300" lon="7.901112">
        <ele>477.330884</ele>
        <time>2021-11-12T21:11:08.464Z</time>
      </trkpt>
      <trkpt lat="47.475163" lon="7.901034">
        <ele>476.518188</ele>
        <time>2021-11-12T21:11:09.790Z</time>
      </trkpt>
      <trkpt lat="47.474888" lon="7.900841">
        <ele>474.833092</ele>
        <time>2021-11-12T21:11:12.643Z</time>
      </trkpt>
      <trkpt lat="47.474617" lon="7.900560">
        <ele>473.000959</ele>
        <time>2021-11-12T21:11:15.772Z</time>
      </trkpt>
      <trkpt lat="47.474336" lon="7.900125">
        <ele>470.928314</ele>
        <time>2021-11-12T21:11:19.614Z</time>
      </trkpt>
      <trkpt lat="47.474186" lon="7.899915">
        <ele>469.942968</ele>
        <time>2021-11-12T21:11:21.549Z</time>
      </trkpt>
      <trkpt lat="47.474087" lon="7.899774">
        <ele>469.287295</ele>
        <time>2021-11-12T21:11:22.860Z</time>
      </trkpt>
      <trkpt lat="47.473931" lon="7.899567">
        <ele>468.287447</ele>
        <time>2021-11-12T21:11:24.820Z</time>
      </trkpt>
      <trkpt lat="47.473317" lon="7.898945">
        <ele>464.736872</ele>
        <time>2021-11-12T21:11:32.060Z</time>
      </trkpt>
      <trkpt lat="47.471910" lon="7.898392">
        <ele>457.220571</ele>
        <time>2021-11-12T21:11:45.654Z</time>
      </trkpt>
      <trkpt lat="47.471825" lon="7.898370">
        <ele>456.767462</ele>
        <time>2021-11-12T21:11:46.441Z</time>
      </trkpt>
      <trkpt lat="47.471597" lon="7.898344">
        <ele>455.566696</ele>
        <time>2021-11-12T21:11:48.594Z</time>
      </trkpt>
      <trkpt lat="47.471002" lon="7.898222">
        <ele>452.691771</ele>
        <time>2021-11-12T21:11:54.188Z</time>
      </trkpt>
      <trkpt lat="47.469999" lon="7.897879">
        <ele>448.226201</ele>
        <time>2021-11-12T21:12:03.940Z</time>
      </trkpt>
      <trkpt lat="47.469806" lon="7.897795">
        <ele>447.353520</ele>
        <time>2021-11-12T21:12:05.969Z</time>
      </trkpt>
      <trkpt lat="47.469534" lon="7.897638">
        <ele>446.166172</ele>
        <time>2021-11-12T21:12:09.054Z</time>
      </trkpt>
      <trkpt lat="47.469598" lon="7.897405">
        <ele>445.880691</ele>
        <time>2021-11-12T21:12:10.845Z</time>
      </trkpt>
      <trkpt lat="47.469652" lon="7.897139">
        <ele>445.565431</ele>
        <time>2021-11-12T21:12:12.870Z</time>
      </trkpt>
      <trkpt lat="47.469678" lon="7.896938">
        <ele>445.333135</ele>
        <time>2021-11-12T21:12:14.332Z</time>
      </trkpt>
      <trkpt lat="47.469692" lon="7.896826">
        <ele>445.203848</ele>
        <time>2021-11-12T21:12:15.229Z</time>
      </trkpt>
      <trkpt lat="47.469738" lon="7.896220">
        <ele>444.511651</ele>
        <time>2021-11-12T21:12:19.828Z</time>
      </trkpt>
      <trkpt lat="47.469747" lon="7.895922">
        <ele>444.173053</ele>
        <time>2021-11-12T21:12:22.067Z</time>
      </trkpt>
      <trkpt lat="47.469734" lon="7.895575">
        <ele>443.778568</ele>
        <time>2021-11-12T21:12:25.106Z</time>
      </trkpt>
      <trkpt lat="47.469728" lon="7.895384">
        <ele>443.561529</ele>
        <time>2021-11-12T21:12:26.702Z</time>
      </trkpt>
      <trkpt lat="47.469714" lon="7.895204">
        <ele>443.355862</ele>
        <time>2021-11-12T21:12:28.374Z</time>
      </trkpt>
      <trkpt lat="47.469691" lon="7.894970">
        <ele>443.151351</ele>
        <time>2021-11-12T21:12:30.511Z</time>
      </trkpt>
      <trkpt lat="47.469658" lon="7.894567">
        <ele>442.962061</ele>
        <time>2021-11-12T21:12:34.177Z</time>
      </trkpt>
      <trkpt lat="47.469496" lon="7.893085">
        <ele>442.262038</ele>
        <time>2021-11-12T21:12:47.392Z</time>
      </trkpt>
      <trkpt lat="47.469288" lon="7.891996">
        <ele>441.616457</ele>
        <time>2021-11-12T21:12:56.903Z</time>
      </trkpt>
      <trkpt lat="47.468951" lon="7.890216">
        <ele>440.294299</ele>
        <time>2021-11-12T21:13:11.907Z</time>
      </trkpt>
      <trkpt lat="47.468718" lon="7.888938">
        <ele>439.675672</ele>
        <time>2021-11-12T21:13:22.785Z</time>
      </trkpt>
      <trkpt lat="47.468546" lon="7.888014">
        <ele>439.309454</ele>
        <time>2021-11-12T21:13:31.111Z</time>
      </trkpt>
      <trkpt lat="47.468250" lon="7.886308">
        <ele>440.103469</ele>
        <time>2021-11-12T21:13:49.391Z</time>
      </trkpt>
      <trkpt lat="47.468174" lon="7.885724">
        <ele>440.711985</ele>
        <time>2021-11-12T21:13:58.262Z</time>
      </trkpt>
      <trkpt lat="47.468160" lon="7.885412">
        <ele>441.031924</ele>
        <time>2021-11-12T21:14:03.292Z</time>
      </trkpt>
      <trkpt lat="47.468160" lon="7.885131">
        <ele>441.319441</ele>
        <time>2021-11-12T21:14:07.982Z</time>
      </trkpt>
      <trkpt lat="47.468169" lon="7.884806">
        <ele>441.652258</ele>
        <time>2021-11-12T21:14:13.247Z</time>
      </trkpt>
      <trkpt lat="47.468170" lon="7.884753">
        <ele>441.706508</ele>
        <time>2021-11-12T21:14:14.090Z</time>
      </trkpt>
      <trkpt lat="47.468175" lon="7.884477">
        <ele>442.210504</ele>
        <time>2021-11-12T21:14:19.798Z</time>
      </trkpt>
      <trkpt lat="47.468085" lon="7.883534">
        <ele>444.118268</ele>
        <time>2021-11-12T21:14:39.304Z</time>
      </trkpt>
      <trkpt lat="47.467832" lon="7.882502">
        <ele>446.317337</ele>
        <time>2021-11-12T21:15:00.891Z</time>
      </trkpt>
      <trkpt lat="47.467789" lon="7.882188">
        <ele>446.959127</ele>
        <time>2021-11-12T21:15:06.529Z</time>
      </trkpt>
      <trkpt lat="47.467755" lon="7.881902">
        <ele>446.579155</ele>
        <time>2021-11-12T21:15:10.651Z</time>
      </trkpt>
      <trkpt lat="47.467712" lon="7.880819">
        <ele>444.139841</ele>
        <time>2021-11-12T21:15:19.403Z</time>
      </trkpt>
      <trkpt lat="47.467695" lon="7.879712">
        <ele>441.650116</ele>
        <time>2021-11-12T21:15:26.274Z</time>
      </trkpt>
      <trkpt lat="47.467758" lon="7.879308">
        <ele>440.210476</ele>
        <time>2021-11-12T21:15:28.758Z</time>
      </trkpt>
      <trkpt lat="47.467814" lon="7.879126">
        <ele>439.171838</ele>
        <time>2021-11-12T21:15:29.930Z</time>
      </trkpt>
      <trkpt lat="47.467908" lon="7.878819">
        <ele>437.421320</ele>
        <time>2021-11-12T21:15:31.954Z</time>
      </trkpt>
      <trkpt lat="47.468067" lon="7.878427">
        <ele>435.046862</ele>
        <time>2021-11-12T21:15:34.725Z</time>
      </trkpt>
      <trkpt lat="47.468104" lon="7.878354">
        <ele>434.572956</ele>
        <time>2021-11-12T21:15:35.236Z</time>
      </trkpt>
      <trkpt lat="47.468212" lon="7.878176">
        <ele>433.330635</ele>
        <time>2021-11-12T21:15:36.672Z</time>
      </trkpt>
      <trkpt lat="47.468268" lon="7.878083">
        <ele>432.683743</ele>
        <time>2021-11-12T21:15:37.444Z</time>
      </trkpt>
      <trkpt lat="47.468308" lon="7.877998">
        <ele>432.145810</ele>
        <time>2021-11-12T21:15:38.074Z</time>
      </trkpt>
      <trkpt lat="47.468327" lon="7.877957">
        <ele>431.887621</ele>
        <time>2021-11-12T21:15:38.353Z</time>
      </trkpt>
      <trkpt lat="47.468377" lon="7.877826">
        <ele>431.106241</ele>
        <time>2021-11-12T21:15:39.232Z</time>
      </trkpt>
      <trkpt lat="47.468557" lon="7.876917">
        <ele>426.759560</ele>
        <time>2021-11-12T21:15:44.898Z</time>
      </trkpt>
      <trkpt lat="47.468639" lon="7.876439">
        <ele>425.533947</ele>
        <time>2021-11-12T21:15:48.090Z</time>
      </trkpt>
      <trkpt lat="47.468698" lon="7.876140">
        <ele>424.759842</ele>
        <time>2021-11-12T21:15:50.185Z</time>
      </trkpt>
      <trkpt lat="47.468806" lon="7.875696">
        <ele>423.587123</ele>
        <time>2021-11-12T21:15:53.446Z</time>
      </trkpt>
      <trkpt lat="47.468925" lon="7.875205">
        <ele>422.290806</ele>
        <time>2021-11-12T21:15:57.380Z</time>
      </trkpt>
      <trkpt lat="47.468989" lon="7.874967">
        <ele>421.654234</ele>
        <time>2021-11-12T21:15:59.197Z</time>
      </trkpt>
      <trkpt lat="47.469050" lon="7.874738">
        <ele>421.042521</ele>
        <time>2021-11-12T21:16:01.059Z</time>
      </trkpt>
      <trkpt lat="47.469068" lon="7.874689">
        <ele>420.903924</ele>
        <time>2021-11-12T21:16:01.462Z</time>
      </trkpt>
      <trkpt lat="47.469097" lon="7.874606">
        <ele>420.672193</ele>
        <time>2021-11-12T21:16:02.118Z</time>
      </trkpt>
      <trkpt lat="47.469136" lon="7.874516">
        <ele>420.533515</ele>
        <time>2021-11-12T21:16:02.878Z</time>
      </trkpt>
      <trkpt lat="47.469173" lon="7.874432">
        <ele>420.403458</ele>
        <time>2021-11-12T21:16:03.633Z</time>
      </trkpt>
      <trkpt lat="47.469224" lon="7.874328">
        <ele>420.236788</ele>
        <time>2021-11-12T21:16:04.640Z</time>
      </trkpt>
      <trkpt lat="47.469422" lon="7.873965">
        <ele>419.631723</ele>
        <time>2021-11-12T21:16:08.102Z</time>
      </trkpt>
      <trkpt lat="47.469489" lon="7.873809">
        <ele>419.391969</ele>
        <time>2021-11-12T21:16:09.507Z</time>
      </trkpt>
      <trkpt lat="47.469626" lon="7.873477">
        <ele>418.887396</ele>
        <time>2021-11-12T21:16:12.404Z</time>
      </trkpt>
      <trkpt lat="47.469682" lon="7.873326">
        <ele>418.663976</ele>
        <time>2021-11-12T21:16:13.731Z</time>
      </trkpt>
      <trkpt lat="47.469710" lon="7.873249">
        <ele>418.550557</ele>
        <time>2021-11-12T21:16:14.323Z</time>
      </trkpt>
      <trkpt lat="47.469969" lon="7.872276">
        <ele>417.200544</ele>
        <time>2021-11-12T21:16:22.269Z</time>
      </trkpt>
      <trkpt lat="47.470156" lon="7.871491">
        <ele>416.379665</ele>
        <time>2021-11-12T21:16:28.611Z</time>
      </trkpt>
      <trkpt lat="47.470217" lon="7.871214">
        <ele>416.092341</ele>
        <time>2021-11-12T21:16:30.772Z</time>
      </trkpt>
      <trkpt lat="47.470245" lon="7.871088">
        <ele>415.961531</ele>
        <time>2021-11-12T21:16:31.786Z</time>
      </trkpt>
      <trkpt lat="47.470316" lon="7.870753">
        <ele>415.615278</ele>
        <time>2021-11-12T21:16:34.606Z</time>
      </trkpt>
      <trkpt lat="47.470333" lon="7.870669">
        <ele>415.528799</ele>
        <time>2021-11-12T21:16:35.250Z</time>
      </trkpt>
      <trkpt lat="47.470350" lon="7.870570">
        <ele>415.428059</ele>
        <time>2021-11-12T21:16:36.043Z</time>
      </trkpt>
      <trkpt lat="47.470379" lon="7.870338">
        <ele>415.195370</ele>
        <time>2021-11-12T21:16:37.987Z</time>
      </trkpt>
      <trkpt lat="47.470397" lon="7.870147">
        <ele>415.005175</ele>
        <time>2021-11-12T21:16:40.119Z</time>
      </trkpt>
      <trkpt lat="47.470378" lon="7.869626">
        <ele>414.546493</ele>
        <time>2021-11-12T21:16:46.128Z</time>
      </trkpt>
      <trkpt lat="47.470309" lon="7.869201">
        <ele>414.342122</ele>
        <time>2021-11-12T21:16:51.417Z</time>
      </trkpt>
      <trkpt lat="47.470234" lon="7.868884">
        <ele>414.185083</ele>
        <time>2021-11-12T21:16:55.472Z</time>
      </trkpt>
      <trkpt lat="47.470127" lon="7.868484">
        <ele>413.983940</ele>
        <time>2021-11-12T21:17:00.927Z</time>
      </trkpt>
      <trkpt lat="47.469915" lon="7.867494">
        <ele>413.498364</ele>
        <time>2021-11-12T21:17:14.094Z</time>
      </trkpt>
      <trkpt lat="47.469808" lon="7.866690">
        <ele>412.911167</ele>
        <time>2021-11-12T21:17:23.818Z</time>
      </trkpt>
      <trkpt lat="47.469764" lon="7.866452">
        <ele>412.696690</ele>
        <time>2021-11-12T21:17:26.825Z</time>
      </trkpt>
      <trkpt lat="47.469710" lon="7.866208">
        <ele>412.473518</ele>
        <time>2021-11-12T21:17:29.790Z</time>
      </trkpt>
      <trkpt lat="47.469629" lon="7.865918">
        <ele>412.200766</ele>
        <time>2021-11-12T21:17:33.538Z</time>
      </trkpt>
      <trkpt lat="47.469305" lon="7.864692">
        <ele>411.056525</ele>
        <time>2021-11-12T21:17:47.910Z</time>
      </trkpt>
      <trkpt lat="47.469011" lon="7.863405">
        <ele>409.416629</ele>
        <time>2021-11-12T21:18:02.610Z</time>
      </trkpt>
      <trkpt lat="47.468986" lon="7.863323">
        <ele>409.307607</ele>
        <time>2021-11-12T21:18:03.466Z</time>
      </trkpt>
      <trkpt lat="47.468943" lon="7.863195">
        <ele>409.134374</ele>
        <time>2021-11-12T21:18:05.025Z</time>
      </trkpt>
      <trkpt lat="47.468859" lon="7.862978">
        <ele>408.831307</ele>
        <time>2021-11-12T21:18:07.794Z</time>
      </trkpt>
      <trkpt lat="47.468825" lon="7.862900">
        <ele>408.718823</ele>
        <time>2021-11-12T21:18:08.751Z</time>
      </trkpt>
      <trkpt lat="47.468705" lon="7.862670">
        <ele>408.366698</ele>
        <time>2021-11-12T21:18:11.915Z</time>
      </trkpt>
      <trkpt lat="47.468573" lon="7.862414">
        <ele>407.976474</ele>
        <time>2021-11-12T21:18:15.370Z</time>
      </trkpt>
      <trkpt lat="47.468543" lon="7.862357">
        <ele>407.888921</ele>
        <time>2021-11-12T21:18:16.185Z</time>
      </trkpt>
      <trkpt lat="47.468224" lon="7.861805">
        <ele>407.299611</ele>
        <time>2021-11-12T21:18:24.360Z</time>
      </trkpt>
      <trkpt lat="47.467944" lon="7.861300">
        <ele>406.793545</ele>
        <time>2021-11-12T21:18:31.738Z</time>
      </trkpt>
      <trkpt lat="47.467266" lon="7.860107">
        <ele>405.625515</ele>
        <time>2021-11-12T21:18:50.483Z</time>
      </trkpt>
      <trkpt lat="47.467047" lon="7.859682">
        <ele>405.309277</ele>
        <time>2021-11-12T21:18:56.684Z</time>
      </trkpt>
      <trkpt lat="47.466922" lon="7.859398">
        <ele>405.108731</ele>
        <time>2021-11-12T21:19:00.648Z</time>
      </trkpt>
      <trkpt lat="47.466824" lon="7.859137">
        <ele>404.932052</ele>
        <time>2021-11-12T21:19:04.346Z</time>
      </trkpt>
      <trkpt lat="47.466673" lon="7.858620">
        <ele>404.598771</ele>
        <time>2021-11-12T21:19:10.901Z</time>
      </trkpt>
      <trkpt lat="47.466576" lon="7.858236">
        <ele>404.356182</ele>
        <time>2021-11-12T21:19:15.699Z</time>
      </trkpt>
      <trkpt lat="47.466518" lon="7.858022">
        <ele>404.219743</ele>
        <time>2021-11-12T21:19:17.693Z</time>
      </trkpt>
      <trkpt lat="47.466347" lon="7.856973">
        <ele>404.038084</ele>
        <time>2021-11-12T21:19:27.369Z</time>
      </trkpt>
      <trkpt lat="47.466344" lon="7.856945">
        <ele>404.034129</ele>
        <time>2021-11-12T21:19:27.561Z</time>
      </trkpt>
      <trkpt lat="47.466322" lon="7.856655">
        <ele>403.993418</ele>
        <time>2021-11-12T21:19:30.466Z</time>
      </trkpt>
      <trkpt lat="47.466310" lon="7.856541">
        <ele>403.977322</ele>
        <time>2021-11-12T21:19:31.582Z</time>
      </trkpt>
      <trkpt lat="47.466334" lon="7.856525">
        <ele>403.971890</ele>
        <time>2021-11-12T21:19:31.961Z</time>
      </trkpt>
      <trkpt lat="47.466353" lon="7.856496">
        <ele>403.966256</ele>
        <time>2021-11-12T21:19:32.430Z</time>
      </trkpt>
      <trkpt lat="47.466361" lon="7.856459">
        <ele>403.960837</ele>
        <time>2021-11-12T21:19:32.741Z</time>
      </trkpt>
      <trkpt lat="47.466359" lon="7.856420">
        <ele>403.955380</ele>
        <time>2021-11-12T21:19:33.049Z</time>
      </trkpt>
      <trkpt lat="47.466324" lon="7.856362">
        <ele>403.944534</ele>
        <time>2021-11-12T21:19:34.025Z</time>
      </trkpt>
      <trkpt lat="47.466298" lon="7.856354">
        <ele>403.939054</ele>
        <time>2021-11-12T21:19:34.378Z</time>
      </trkpt>
      <trkpt lat="47.466271" lon="7.856363">
        <ele>403.933342</ele>
        <time>2021-11-12T21:19:34.787Z</time>
      </trkpt>
      <trkpt lat="47.466237" lon="7.856421">
        <ele>403.922632</ele>
        <time>2021-11-12T21:19:35.530Z</time>
      </trkpt>
      <trkpt lat="47.466235" lon="7.856461">
        <ele>403.917037</ele>
        <time>2021-11-12T21:19:35.883Z</time>
      </trkpt>
      <trkpt lat="47.466156" lon="7.856481">
        <ele>403.900497</ele>
        <time>2021-11-12T21:19:37.080Z</time>
      </trkpt>
      <trkpt lat="47.465801" lon="7.856657">
        <ele>403.823233</ele>
        <time>2021-11-12T21:19:42.980Z</time>
      </trkpt>
      <trkpt lat="47.465748" lon="7.856649">
        <ele>403.812239</ele>
        <time>2021-11-12T21:19:43.821Z</time>
      </trkpt>
      <trkpt lat="47.465709" lon="7.856610">
        <ele>403.824148</ele>
        <time>2021-11-12T21:19:44.414Z</time>
      </trkpt>
      <trkpt lat="47.465583" lon="7.856194">
        <ele>404.018969</ele>
        <time>2021-11-12T21:19:49.775Z</time>
      </trkpt>
      <trkpt lat="47.465550" lon="7.856132">
        <ele>404.052694</ele>
        <time>2021-11-12T21:19:50.427Z</time>
      </trkpt>
      <trkpt lat="47.465527" lon="7.856111">
        <ele>404.069781</ele>
        <time>2021-11-12T21:19:51.079Z</time>
      </trkpt>
      <trkpt lat="47.465400" lon="7.856122">
        <ele>404.150208</ele>
        <time>2021-11-12T21:19:53.200Z</time>
      </trkpt>
      <trkpt lat="47.465158" lon="7.856299">
        <ele>404.320880</ele>
        <time>2021-11-12T21:19:58.062Z</time>
      </trkpt>
      <trkpt lat="47.464855" lon="7.856521">
        <ele>404.534645</ele>
        <time>2021-11-12T21:20:04.409Z</time>
      </trkpt>
      <trkpt lat="47.464813" lon="7.856540">
        <ele>404.562411</ele>
        <time>2021-11-12T21:20:05.309Z</time>
      </trkpt>
      <trkpt lat="47.464805" lon="7.856519">
        <ele>404.572713</ele>
        <time>2021-11-12T21:20:05.603Z</time>
      </trkpt>
      <trkpt lat="47.464741" lon="7.856458">
        <ele>404.620846</ele>
        <time>2021-11-12T21:20:06.888Z</time>
      </trkpt>
      <trkpt lat="47.464713" lon="7.856451">
        <ele>404.638798</ele>
        <time>2021-11-12T21:20:07.334Z</time>
      </trkpt>
      <trkpt lat="47.464688" lon="7.856453">
        <ele>404.654626</ele>
        <time>2021-11-12T21:20:07.755Z</time>
      </trkpt>
      <trkpt lat="47.464650" lon="7.856478">
        <ele>404.680919</ele>
        <time>2021-11-12T21:20:08.489Z</time>
      </trkpt>
      <trkpt lat="47.464638" lon="7.856496">
        <ele>404.691723</ele>
        <time>2021-11-12T21:20:08.877Z</time>
      </trkpt>
      <trkpt lat="47.464622" lon="7.856523">
        <ele>404.707069</ele>
        <time>2021-11-12T21:20:09.365Z</time>
      </trkpt>
      <trkpt lat="47.464610" lon="7.856554">
        <ele>404.722336</ele>
        <time>2021-11-12T21:20:09.709Z</time>
      </trkpt>
      <trkpt lat="47.464600" lon="7.856587">
        <ele>404.737792</ele>
        <time>2021-11-12T21:20:10.139Z</time>
      </trkpt>
      <trkpt lat="47.464530" lon="7.856598">
        <ele>404.782295</ele>
        <time>2021-11-12T21:20:11.530Z</time>
      </trkpt>
      <trkpt lat="47.463900" lon="7.856772">
        <ele>405.209313</ele>
        <time>2021-11-12T21:20:22.550Z</time>
      </trkpt>
      <trkpt lat="47.463826" lon="7.856840">
        <ele>405.269350</ele>
        <time>2021-11-12T21:20:24.057Z</time>
      </trkpt>
      <trkpt lat="47.463762" lon="7.856925">
        <ele>405.328626</ele>
        <time>2021-11-12T21:20:25.612Z</time>
      </trkpt>
      <trkpt lat="47.463161" lon="7.858061">
        <ele>406.000698</ele>
        <time>2021-11-12T21:20:42.123Z</time>
      </trkpt>
      <trkpt lat="47.463081" lon="7.858188">
        <ele>406.081574</ele>
        <time>2021-11-12T21:20:44.424Z</time>
      </trkpt>
      <trkpt lat="47.462979" lon="7.858360">
        <ele>406.191847</ele>
        <time>2021-11-12T21:20:47.163Z</time>
      </trkpt>
      <trkpt lat="47.462764" lon="7.858828">
        <ele>406.718384</ele>
        <time>2021-11-12T21:20:54.312Z</time>
      </trkpt>
      <trkpt lat="47.462720" lon="7.858959">
        <ele>406.854504</ele>
        <time>2021-11-12T21:20:56.259Z</time>
      </trkpt>
      <trkpt lat="47.462691" lon="7.859060">
        <ele>406.956617</ele>
        <time>2021-11-12T21:20:57.681Z</time>
      </trkpt>
      <trkpt lat="47.462623" lon="7.859309">
        <ele>407.206518</ele>
        <time>2021-11-12T21:21:01.209Z</time>
      </trkpt>
      <trkpt lat="47.462535" lon="7.859721">
        <ele>407.608592</ele>
        <time>2021-11-12T21:21:06.898Z</time>
      </trkpt>
      <trkpt lat="47.462471" lon="7.860097">
        <ele>407.969406</ele>
        <time>2021-11-12T21:21:12.475Z</time>
      </trkpt>
      <trkpt lat="47.462442" lon="7.860255">
        <ele>408.121759</ele>
        <time>2021-11-12T21:21:14.724Z</time>
      </trkpt>
      <trkpt lat="47.462327" lon="7.860669">
        <ele>408.538267</ele>
        <time>2021-11-12T21:21:21.468Z</time>
      </trkpt>
      <trkpt lat="47.462285" lon="7.860769">
        <ele>408.647820</ele>
        <time>2021-11-12T21:21:23.367Z</time>
      </trkpt>
      <trkpt lat="47.462231" lon="7.860873">
        <ele>408.825368</ele>
        <time>2021-11-12T21:21:25.726Z</time>
      </trkpt>
      <trkpt lat="47.461855" lon="7.861499">
        <ele>409.999194</ele>
        <time>2021-11-12T21:21:38.822Z</time>
      </trkpt>
      <trkpt lat="47.461541" lon="7.862217">
        <ele>411.197918</ele>
        <time>2021-11-12T21:21:52.494Z</time>
      </trkpt>
      <trkpt lat="47.461527" lon="7.862242">
        <ele>411.243424</ele>
        <time>2021-11-12T21:21:52.958Z</time>
      </trkpt>
      <trkpt lat="47.461353" lon="7.862539">
        <ele>411.794336</ele>
        <time>2021-11-12T21:21:59.301Z</time>
      </trkpt>
      <trkpt lat="47.461098" lon="7.862848">
        <ele>412.455994</ele>
        <time>2021-11-12T21:22:06.812Z</time>
      </trkpt>
      <trkpt lat="47.460786" lon="7.863164">
        <ele>413.045894</ele>
        <time>2021-11-12T21:22:15.201Z</time>
      </trkpt>
      <trkpt lat="47.460527" lon="7.863440">
        <ele>413.543882</ele>
        <time>2021-11-12T21:22:21.962Z</time>
      </trkpt>
      <trkpt lat="47.460398" lon="7.863603">
        <ele>413.808561</ele>
        <time>2021-11-12T21:22:25.377Z</time>
      </trkpt>
      <trkpt lat="47.460271" lon="7.863810">
        <ele>414.103382</ele>
        <time>2021-11-12T21:22:28.943Z</time>
      </trkpt>
      <trkpt lat="47.460115" lon="7.864146">
        <ele>414.533285</ele>
        <time>2021-11-12T21:22:34.746Z</time>
      </trkpt>
      <trkpt lat="47.460001" lon="7.864512">
        <ele>414.958312</ele>
        <time>2021-11-12T21:22:40.276Z</time>
      </trkpt>
      <trkpt lat="47.459616" lon="7.865526">
        <ele>416.069442</ele>
        <time>2021-11-12T21:22:56.324Z</time>
      </trkpt>
      <trkpt lat="47.459563" lon="7.865651">
        <ele>416.206902</ele>
        <time>2021-11-12T21:22:57.915Z</time>
      </trkpt>
      <trkpt lat="47.459497" lon="7.865844">
        <ele>416.408400</ele>
        <time>2021-11-12T21:23:01.446Z</time>
      </trkpt>
      <trkpt lat="47.459383" lon="7.866214">
        <ele>416.787213</ele>
        <time>2021-11-12T21:23:06.760Z</time>
      </trkpt>
      <trkpt lat="47.459231" lon="7.866811">
        <ele>417.381534</ele>
        <time>2021-11-12T21:23:15.662Z</time>
      </trkpt>
      <trkpt lat="47.459152" lon="7.867074">
        <ele>417.649650</ele>
        <time>2021-11-12T21:23:19.285Z</time>
      </trkpt>
      <trkpt lat="47.459058" lon="7.867339">
        <ele>417.964584</ele>
        <time>2021-11-12T21:23:23.796Z</time>
      </trkpt>
      <trkpt lat="47.458844" lon="7.867795">
        <ele>418.555142</ele>
        <time>2021-11-12T21:23:31.704Z</time>
      </trkpt>
      <trkpt lat="47.458680" lon="7.868173">
        <ele>419.032980</ele>
        <time>2021-11-12T21:23:37.983Z</time>
      </trkpt>
      <trkpt lat="47.458252" lon="7.869378">
        <ele>420.481138</ele>
        <time>2021-11-12T21:23:57.510Z</time>
      </trkpt>
      <trkpt lat="47.458055" lon="7.870048">
        <ele>421.647744</ele>
        <time>2021-11-12T21:24:08.277Z</time>
      </trkpt>
      <trkpt lat="47.457897" lon="7.870571">
        <ele>422.571749</ele>
        <time>2021-11-12T21:24:17.054Z</time>
      </trkpt>
      <trkpt lat="47.457834" lon="7.870782">
        <ele>422.943811</ele>
        <time>2021-11-12T21:24:21.033Z</time>
      </trkpt>
      <trkpt lat="47.457598" lon="7.871461">
        <ele>424.175315</ele>
        <time>2021-11-12T21:24:33.170Z</time>
      </trkpt>
      <trkpt lat="47.457107" lon="7.872555">
        <ele>426.887065</ele>
        <time>2021-11-12T21:25:00.095Z</time>
      </trkpt>
      <trkpt lat="47.456956" lon="7.873025">
        <ele>428.059058</ele>
        <time>2021-11-12T21:25:11.018Z</time>
      </trkpt>
      <trkpt lat="47.456839" lon="7.873690">
        <ele>429.606700</ele>
        <time>2021-11-12T21:25:23.999Z</time>
      </trkpt>
      <trkpt lat="47.456816" lon="7.873911">
        <ele>430.110316</ele>
        <time>2021-11-12T21:25:28.415Z</time>
      </trkpt>
      <trkpt lat="47.456788" lon="7.874217">
        <ele>430.794326</ele>
        <time>2021-11-12T21:25:33.647Z</time>
      </trkpt>
      <trkpt lat="47.456714" lon="7.874531">
        <ele>431.095379</ele>
        <time>2021-11-12T21:25:39.209Z</time>
      </trkpt>
      <trkpt lat="47.456658" lon="7.874665">
        <ele>431.237998</ele>
        <time>2021-11-12T21:25:41.062Z</time>
      </trkpt>
      <trkpt lat="47.456403" lon="7.875046">
        <ele>431.723349</ele>
        <time>2021-11-12T21:25:48.919Z</time>
      </trkpt>
      <trkpt lat="47.455780" lon="7.875652">
        <ele>432.721789</ele>
        <time>2021-11-12T21:26:04.412Z</time>
      </trkpt>
      <trkpt lat="47.455446" lon="7.875966">
        <ele>433.206381</ele>
        <time>2021-11-12T21:26:10.103Z</time>
      </trkpt>
      <trkpt lat="47.455123" lon="7.876253">
        <ele>433.307832</ele>
        <time>2021-11-12T21:26:15.078Z</time>
      </trkpt>
      <trkpt lat="47.454502" lon="7.876895">
        <ele>433.511826</ele>
        <time>2021-11-12T21:26:26.187Z</time>
      </trkpt>
      <trkpt lat="47.454362" lon="7.877045">
        <ele>433.558371</ele>
        <time>2021-11-12T21:26:29.115Z</time>
      </trkpt>
      <trkpt lat="47.453945" lon="7.877554">
        <ele>433.748859</ele>
        <time>2021-11-12T21:26:39.255Z</time>
      </trkpt>
      <trkpt lat="47.453517" lon="7.878069">
        <ele>434.167366</ele>
        <time>2021-11-12T21:26:49.390Z</time>
      </trkpt>
      <trkpt lat="47.453302" lon="7.878355">
        <ele>434.386702</ele>
        <time>2021-11-12T21:26:54.722Z</time>
      </trkpt>
      <trkpt lat="47.453057" lon="7.878652">
        <ele>434.626982</ele>
        <time>2021-11-12T21:27:00.322Z</time>
      </trkpt>
      <trkpt lat="47.452813" lon="7.878981">
        <ele>434.877427</ele>
        <time>2021-11-12T21:27:05.988Z</time>
      </trkpt>
      <trkpt lat="47.452655" lon="7.879223">
        <ele>435.050812</ele>
        <time>2021-11-12T21:27:09.806Z</time>
      </trkpt>
      <trkpt lat="47.452247" lon="7.879980">
        <ele>435.612646</ele>
        <time>2021-11-12T21:27:21.291Z</time>
      </trkpt>
      <trkpt lat="47.451953" lon="7.880518">
        <ele>436.014111</ele>
        <time>2021-11-12T21:27:29.632Z</time>
      </trkpt>
      <trkpt lat="47.451581" lon="7.881111">
        <ele>436.483576</ele>
        <time>2021-11-12T21:27:40.174Z</time>
      </trkpt>
      <trkpt lat="47.451351" lon="7.881477">
        <ele>436.870249</ele>
        <time>2021-11-12T21:27:46.733Z</time>
      </trkpt>
      <trkpt lat="47.451309" lon="7.881545">
        <ele>436.951435</ele>
        <time>2021-11-12T21:27:47.975Z</time>
      </trkpt>
      <trkpt lat="47.451241" lon="7.881654">
        <ele>437.082168</ele>
        <time>2021-11-12T21:27:49.949Z</time>
      </trkpt>
      <trkpt lat="47.451051" lon="7.881948">
        <ele>437.440667</ele>
        <time>2021-11-12T21:27:55.518Z</time>
      </trkpt>
      <trkpt lat="47.450772" lon="7.882435">
        <ele>438.003337</ele>
        <time>2021-11-12T21:28:04.311Z</time>
      </trkpt>
      <trkpt lat="47.450733" lon="7.882508">
        <ele>438.085351</ele>
        <time>2021-11-12T21:28:05.583Z</time>
      </trkpt>
      <trkpt lat="47.450650" lon="7.882664">
        <ele>438.260336</ele>
        <time>2021-11-12T21:28:08.317Z</time>
      </trkpt>
      <trkpt lat="47.450548" lon="7.882846">
        <ele>438.468718</ele>
        <time>2021-11-12T21:28:11.582Z</time>
      </trkpt>
      <trkpt lat="47.450472" lon="7.882973">
        <ele>438.618219</ele>
        <time>2021-11-12T21:28:13.841Z</time>
      </trkpt>
      <trkpt lat="47.450274" lon="7.883264">
        <ele>438.985434</ele>
        <time>2021-11-12T21:28:19.476Z</time>
      </trkpt>
      <trkpt lat="47.449712" lon="7.884119">
        <ele>440.105746</ele>
        <time>2021-11-12T21:28:35.209Z</time>
      </trkpt>
      <trkpt lat="47.449068" lon="7.885121">
        <ele>441.404599</ele>
        <time>2021-11-12T21:28:53.804Z</time>
      </trkpt>
      <trkpt lat="47.449022" lon="7.885187">
        <ele>441.663291</ele>
        <time>2021-11-12T21:28:55.435Z</time>
      </trkpt>
      <trkpt lat="47.448867" lon="7.885429">
        <ele>442.825694</ele>
        <time>2021-11-12T21:29:00.676Z</time>
      </trkpt>
      <trkpt lat="47.448801" lon="7.885554">
        <ele>443.378754</ele>
        <time>2021-11-12T21:29:03.329Z</time>
      </trkpt>
      <trkpt lat="47.448759" lon="7.885611">
        <ele>443.672738</ele>
        <time>2021-11-12T21:29:04.655Z</time>
      </trkpt>
      <trkpt lat="47.448727" lon="7.885648">
        <ele>443.882220</ele>
        <time>2021-11-12T21:29:05.688Z</time>
      </trkpt>
      <trkpt lat="47.448623" lon="7.885730">
        <ele>444.490021</ele>
        <time>2021-11-12T21:29:08.612Z</time>
      </trkpt>
      <trkpt lat="47.448497" lon="7.885784">
        <ele>445.166540</ele>
        <time>2021-11-12T21:29:12.136Z</time>
      </trkpt>
      <trkpt lat="47.448503" lon="7.885850">
        <ele>445.398780</ele>
        <time>2021-11-12T21:29:13.330Z</time>
      </trkpt>
      <trkpt lat="47.448510" lon="7.885941">
        <ele>445.718181</ele>
        <time>2021-11-12T21:29:14.890Z</time>
      </trkpt>
      <trkpt lat="47.448509" lon="7.886022">
        <ele>446.000709</ele>
        <time>2021-11-12T21:29:16.341Z</time>
      </trkpt>
      <trkpt lat="47.448479" lon="7.886216">
        <ele>446.694732</ele>
        <time>2021-11-12T21:29:20.757Z</time>
      </trkpt>
      <trkpt lat="47.448449" lon="7.886310">
        <ele>447.057223</ele>
        <time>2021-11-12T21:29:23.175Z</time>
      </trkpt>
      <trkpt lat="47.448327" lon="7.886693">
        <ele>448.533666</ele>
        <time>2021-11-12T21:29:34.802Z</time>
      </trkpt>
      <trkpt lat="47.448252" lon="7.886934">
        <ele>449.458861</ele>
        <time>2021-11-12T21:29:45.129Z</time>
      </trkpt>
      <trkpt lat="47.448187" lon="7.887164">
        <ele>450.328195</ele>
        <time>2021-11-12T21:29:53.134Z</time>
      </trkpt>
      <trkpt lat="47.448053" lon="7.887573">
        <ele>453.316189</ele>
        <time>2021-11-12T21:30:10.095Z</time>
      </trkpt>
      <trkpt lat="47.447994" lon="7.887745">
        <ele>454.770963</ele>
        <time>2021-11-12T21:30:18.126Z</time>
      </trkpt>
      <trkpt lat="47.447924" lon="7.887980">
        <ele>456.707931</ele>
        <time>2021-11-12T21:30:27.727Z</time>
      </trkpt>
      <trkpt lat="47.447918" lon="7.888002">
        <ele>456.886866</ele>
        <time>2021-11-12T21:30:28.802Z</time>
      </trkpt>
      <trkpt lat="47.447781" lon="7.888460">
        <ele>460.664488</ele>
        <time>2021-11-12T21:30:49.244Z</time>
      </trkpt>
      <trkpt lat="47.447728" lon="7.888631">
        <ele>462.083382</ele>
        <time>2021-11-12T21:30:58.173Z</time>
      </trkpt>
      <trkpt lat="47.447650" lon="7.888831">
        <ele>463.824904</ele>
        <time>2021-11-12T21:31:09.330Z</time>
      </trkpt>
      <trkpt lat="47.447509" lon="7.889081">
        <ele>466.280448</ele>
        <time>2021-11-12T21:31:22.364Z</time>
      </trkpt>
      <trkpt lat="47.447331" lon="7.889272">
        <ele>468.733552</ele>
        <time>2021-11-12T21:31:35.140Z</time>
      </trkpt>
      <trkpt lat="47.446668" lon="7.889866">
        <ele>475.859276</ele>
        <time>2021-11-12T21:32:21.901Z</time>
      </trkpt>
      <trkpt lat="47.446569" lon="7.889962">
        <ele>476.876005</ele>
        <time>2021-11-12T21:32:30.147Z</time>
      </trkpt>
      <trkpt lat="47.446400" lon="7.890153">
        <ele>478.702769</ele>
        <time>2021-11-12T21:32:39.990Z</time>
      </trkpt>
      <trkpt lat="47.445742" lon="7.891213">
        <ele>486.785876</ele>
        <time>2021-11-12T21:33:18.686Z</time>
      </trkpt>
      <trkpt lat="47.445595" lon="7.891655">
        <ele>488.718895</ele>
        <time>2021-11-12T21:33:31.779Z</time>
      </trkpt>
      <trkpt lat="47.445231" lon="7.893511">
        <ele>496.302840</ele>
        <time>2021-11-12T21:34:20.706Z</time>
      </trkpt>
      <trkpt lat="47.444611" lon="7.894568">
        <ele>501.381256</ele>
        <time>2021-11-12T21:34:56.406Z</time>
      </trkpt>
      <trkpt lat="47.444374" lon="7.895190">
        <ele>503.958171</ele>
        <time>2021-11-12T21:35:13.165Z</time>
      </trkpt>
      <trkpt lat="47.444269" lon="7.895507">
        <ele>505.232249</ele>
        <time>2021-11-12T21:35:21.505Z</time>
      </trkpt>
      <trkpt lat="47.444186" lon="7.895774">
        <ele>506.298141</ele>
        <time>2021-11-12T21:35:28.332Z</time>
      </trkpt>
      <trkpt lat="47.444057" lon="7.896377">
        <ele>508.877708</ele>
        <time>2021-11-12T21:35:43.137Z</time>
      </trkpt>
      <trkpt lat="47.443973" lon="7.897319">
        <ele>512.753102</ele>
        <time>2021-11-12T21:36:05.997Z</time>
      </trkpt>
      <trkpt lat="47.443656" lon="7.899062">
        <ele>521.988845</ele>
        <time>2021-11-12T21:36:59.932Z</time>
      </trkpt>
      <trkpt lat="47.443601" lon="7.899993">
        <ele>528.169959</ele>
        <time>2021-11-12T21:37:34.878Z</time>
      </trkpt>
      <trkpt lat="47.443701" lon="7.901256">
        <ele>536.819301</ele>
        <time>2021-11-12T21:38:26.862Z</time>
      </trkpt>
      <trkpt lat="47.443979" lon="7.902634">
        <ele>547.531422</ele>
        <time>2021-11-12T21:39:27.840Z</time>
      </trkpt>
      <trkpt lat="47.444039" lon="7.903160">
        <ele>551.505090</ele>
        <time>2021-11-12T21:39:48.855Z</time>
      </trkpt>
      <trkpt lat="47.443987" lon="7.903658">
        <ele>554.912684</ele>
        <time>2021-11-12T21:40:07.107Z</time>
      </trkpt>
      <trkpt lat="47.443774" lon="7.904468">
        <ele>558.428725</ele>
        <time>2021-11-12T21:40:35.189Z</time>
      </trkpt>
      <trkpt lat="47.443812" lon="7.904620">
        <ele>559.084347</ele>
        <time>2021-11-12T21:40:39.285Z</time>
      </trkpt>
      <trkpt lat="47.444103" lon="7.905127">
        <ele>561.774637</ele>
        <time>2021-11-12T21:40:55.089Z</time>
      </trkpt>
      <trkpt lat="47.444124" lon="7.905848">
        <ele>564.694302</ele>
        <time>2021-11-12T21:41:09.842Z</time>
      </trkpt>
      <trkpt lat="47.444095" lon="7.905911">
        <ele>565.002618</ele>
        <time>2021-11-12T21:41:12.147Z</time>
      </trkpt>
      <trkpt lat="47.444060" lon="7.905957">
        <ele>565.267323</ele>
        <time>2021-11-12T21:41:13.445Z</time>
      </trkpt>
      <trkpt lat="47.444021" lon="7.905974">
        <ele>565.339194</ele>
        <time>2021-11-12T21:41:13.940Z</time>
      </trkpt>
      <trkpt lat="47.443887" lon="7.905861">
        <ele>565.611872</ele>
        <time>2021-11-12T21:41:17.497Z</time>
      </trkpt>
      <trkpt lat="47.443715" lon="7.905422">
        <ele>566.218392</ele>
        <time>2021-11-12T21:41:25.665Z</time>
      </trkpt>
      <trkpt lat="47.443616" lon="7.905326">
        <ele>566.427665</ele>
        <time>2021-11-12T21:41:29.020Z</time>
      </trkpt>
      <trkpt lat="47.443478" lon="7.905315">
        <ele>566.671953</ele>
        <time>2021-11-12T21:41:32.147Z</time>
      </trkpt>
      <trkpt lat="47.443437" lon="7.905338">
        <ele>566.749467</ele>
        <time>2021-11-12T21:41:32.706Z</time>
      </trkpt>
      <trkpt lat="47.443060" lon="7.905749">
        <ele>567.577422</ele>
        <time>2021-11-12T21:41:42.590Z</time>
      </trkpt>
      <trkpt lat="47.442586" lon="7.906135">
        <ele>568.431749</ele>
        <time>2021-11-12T21:41:52.678Z</time>
      </trkpt>
      <trkpt lat="47.442338" lon="7.906317">
        <ele>568.387602</ele>
        <time>2021-11-12T21:41:56.605Z</time>
      </trkpt>
      <trkpt lat="47.442196" lon="7.906411">
        <ele>568.362794</ele>
        <time>2021-11-12T21:41:59.130Z</time>
      </trkpt>
      <trkpt lat="47.441977" lon="7.906511">
        <ele>568.326246</ele>
        <time>2021-11-12T21:42:02.318Z</time>
      </trkpt>
      <trkpt lat="47.441743" lon="7.906608">
        <ele>568.287496</ele>
        <time>2021-11-12T21:42:06.015Z</time>
      </trkpt>
      <trkpt lat="47.441622" lon="7.906657">
        <ele>568.267491</ele>
        <time>2021-11-12T21:42:07.875Z</time>
      </trkpt>
      <trkpt lat="47.441570" lon="7.906678">
        <ele>568.258896</ele>
        <time>2021-11-12T21:42:09.006Z</time>
      </trkpt>
      <trkpt lat="47.441463" lon="7.906711">
        <ele>568.241468</ele>
        <time>2021-11-12T21:42:10.676Z</time>
      </trkpt>
      <trkpt lat="47.441212" lon="7.906790">
        <ele>568.200548</ele>
        <time>2021-11-12T21:42:14.123Z</time>
      </trkpt>
      <trkpt lat="47.440946" lon="7.906861">
        <ele>568.157448</ele>
        <time>2021-11-12T21:42:17.228Z</time>
      </trkpt>
      <trkpt lat="47.440759" lon="7.906942">
        <ele>567.913323</ele>
        <time>2021-11-12T21:42:20.056Z</time>
      </trkpt>
      <trkpt lat="47.440689" lon="7.906996">
        <ele>567.801502</ele>
        <time>2021-11-12T21:42:20.862Z</time>
      </trkpt>
      <trkpt lat="47.440645" lon="7.907088">
        <ele>567.693570</ele>
        <time>2021-11-12T21:42:21.727Z</time>
      </trkpt>
      <trkpt lat="47.440578" lon="7.907274">
        <ele>567.491709</ele>
        <time>2021-11-12T21:42:23.460Z</time>
      </trkpt>
      <trkpt lat="47.440484" lon="7.907616">
        <ele>567.138093</ele>
        <time>2021-11-12T21:42:26.114Z</time>
      </trkpt>
      <trkpt lat="47.440348" lon="7.908111">
        <ele>566.626307</ele>
        <time>2021-11-12T21:42:30.091Z</time>
      </trkpt>
      <trkpt lat="47.440306" lon="7.908217">
        <ele>566.508629</ele>
        <time>2021-11-12T21:42:31.185Z</time>
      </trkpt>
      <trkpt lat="47.440124" lon="7.908395">
        <ele>566.199579</ele>
        <time>2021-11-12T21:42:33.545Z</time>
      </trkpt>
      <trkpt lat="47.439774" lon="7.908833">
        <ele>565.593420</ele>
        <time>2021-11-12T21:42:39.117Z</time>
      </trkpt>
      <trkpt lat="47.439615" lon="7.909100">
        <ele>565.516340</ele>
        <time>2021-11-12T21:42:42.131Z</time>
      </trkpt>
      <trkpt lat="47.439518" lon="7.909224">
        <ele>565.475260</ele>
        <time>2021-11-12T21:42:43.929Z</time>
      </trkpt>
      <trkpt lat="47.439483" lon="7.909286">
        <ele>565.457762</ele>
        <time>2021-11-12T21:42:44.678Z</time>
      </trkpt>
      <trkpt lat="47.439145" lon="7.909911">
        <ele>565.284372</ele>
        <time>2021-11-12T21:42:51.761Z</time>
      </trkpt>
      <trkpt lat="47.439047" lon="7.910071">
        <ele>565.237601</ele>
        <time>2021-11-12T21:42:53.858Z</time>
      </trkpt>
      <trkpt lat="47.438918" lon="7.910246">
        <ele>565.181515</ele>
        <time>2021-11-12T21:42:56.229Z</time>
      </trkpt>
      <trkpt lat="47.438881" lon="7.910291">
        <ele>565.166167</ele>
        <time>2021-11-12T21:42:56.894Z</time>
      </trkpt>
      <trkpt lat="47.438659" lon="7.910501">
        <ele>565.081737</ele>
        <time>2021-11-12T21:43:00.675Z</time>
      </trkpt>
      <trkpt lat="47.438339" lon="7.910703">
        <ele>565.236966</ele>
        <time>2021-11-12T21:43:06.790Z</time>
      </trkpt>
      <trkpt lat="47.437939" lon="7.911215">
        <ele>565.826019</ele>
        <time>2021-11-12T21:43:16.721Z</time>
      </trkpt>
      <trkpt lat="47.437380" lon="7.911661">
        <ele>566.533220</ele>
        <time>2021-11-12T21:43:29.399Z</time>
      </trkpt>
      <trkpt lat="47.437281" lon="7.911740">
        <ele>566.658472</ele>
        <time>2021-11-12T21:43:31.618Z</time>
      </trkpt>
      <trkpt lat="47.437154" lon="7.911831">
        <ele>566.815598</ele>
        <time>2021-11-12T21:43:34.625Z</time>
      </trkpt>
      <trkpt lat="47.436962" lon="7.911943">
        <ele>567.058765</ele>
        <time>2021-11-12T21:43:38.744Z</time>
      </trkpt>
      <trkpt lat="47.436670" lon="7.912144">
        <ele>567.785336</ele>
        <time>2021-11-12T21:43:45.607Z</time>
      </trkpt>
      <trkpt lat="47.436616" lon="7.912213">
        <ele>567.946337</ele>
        <time>2021-11-12T21:43:47.588Z</time>
      </trkpt>
      <trkpt lat="47.436578" lon="7.912267">
        <ele>568.065233</ele>
        <time>2021-11-12T21:43:48.961Z</time>
      </trkpt>
      <trkpt lat="47.436515" lon="7.912405">
        <ele>568.319262</ele>
        <time>2021-11-12T21:43:51.247Z</time>
      </trkpt>
      <trkpt lat="47.436476" lon="7.912706">
        <ele>568.786876</ele>
        <time>2021-11-12T21:43:56.005Z</time>
      </trkpt>
      <trkpt lat="47.436475" lon="7.912706">
        <ele>568.789131</ele>
        <time>2021-11-12T21:43:56.008Z</time>
      </trkpt>
      <trkpt lat="47.436408" lon="7.913110">
        <ele>569.423810</ele>
        <time>2021-11-12T21:44:02.006Z</time>
      </trkpt>
      <trkpt lat="47.436396" lon="7.913182">
        <ele>569.536953</ele>
        <time>2021-11-12T21:44:03.409Z</time>
      </trkpt>
      <trkpt lat="47.436332" lon="7.913599">
        <ele>570.189383</ele>
        <time>2021-11-12T21:44:11.226Z</time>
      </trkpt>
      <trkpt lat="47.436328" lon="7.913781">
        <ele>570.467225</ele>
        <time>2021-11-12T21:44:15.083Z</time>
      </trkpt>
      <trkpt lat="47.436426" lon="7.914382">
        <ele>571.604551</ele>
        <time>2021-11-12T21:44:26.152Z</time>
      </trkpt>
      <trkpt lat="47.436779" lon="7.915143">
        <ele>573.863959</ele>
        <time>2021-11-12T21:44:41.270Z</time>
      </trkpt>
      <trkpt lat="47.436788" lon="7.915208">
        <ele>574.026415</ele>
        <time>2021-11-12T21:44:43.260Z</time>
      </trkpt>
      <trkpt lat="47.436789" lon="7.915276">
        <ele>574.192955</ele>
        <time>2021-11-12T21:44:44.993Z</time>
      </trkpt>
      <trkpt lat="47.436405" lon="7.916185">
        <ele>576.817098</ele>
        <time>2021-11-12T21:45:06.982Z</time>
      </trkpt>
      <trkpt lat="47.436153" lon="7.916928">
        <ele>579.362896</ele>
        <time>2021-11-12T21:45:25.086Z</time>
      </trkpt>
      <trkpt lat="47.436025" lon="7.917438">
        <ele>581.238237</ele>
        <time>2021-11-12T21:45:38.491Z</time>
      </trkpt>
      <trkpt lat="47.435776" lon="7.918311">
        <ele>584.504518</ele>
        <time>2021-11-12T21:46:01.552Z</time>
      </trkpt>
      <trkpt lat="47.435658" lon="7.918713">
        <ele>586.015279</ele>
        <time>2021-11-12T21:46:12.496Z</time>
      </trkpt>
      <trkpt lat="47.435475" lon="7.919362">
        <ele>588.600486</ele>
        <time>2021-11-12T21:46:30.111Z</time>
      </trkpt>
      <trkpt lat="47.435403" lon="7.919605">
        <ele>589.603254</ele>
        <time>2021-11-12T21:46:36.267Z</time>
      </trkpt>
      <trkpt lat="47.435333" lon="7.919826">
        <ele>590.525660</ele>
        <time>2021-11-12T21:46:42.398Z</time>
      </trkpt>
      <trkpt lat="47.435252" lon="7.920039">
        <ele>591.449290</ele>
        <time>2021-11-12T21:46:48.464Z</time>
      </trkpt>
      <trkpt lat="47.434702" lon="7.921025">
        <ele>596.280087</ele>
        <time>2021-11-12T21:47:21.585Z</time>
      </trkpt>
      <trkpt lat="47.434524" lon="7.921435">
        <ele>598.173260</ele>
        <time>2021-11-12T21:47:33.443Z</time>
      </trkpt>
      <trkpt lat="47.434378" lon="7.921753">
        <ele>599.683609</ele>
        <time>2021-11-12T21:47:43.073Z</time>
      </trkpt>
      <trkpt lat="47.434253" lon="7.922015">
        <ele>600.943558</ele>
        <time>2021-11-12T21:47:50.695Z</time>
      </trkpt>
      <trkpt lat="47.433914" lon="7.922971">
        <ele>605.185407</ele>
        <time>2021-11-12T21:48:19.517Z</time>
      </trkpt>
      <trkpt lat="47.433902" lon="7.923204">
        <ele>606.103714</ele>
        <time>2021-11-12T21:48:25.798Z</time>
      </trkpt>
      <trkpt lat="47.434035" lon="7.924100">
        <ele>608.937706</ele>
        <time>2021-11-12T21:48:50.077Z</time>
      </trkpt>
      <trkpt lat="47.434048" lon="7.924524">
        <ele>610.078774</ele>
        <time>2021-11-12T21:48:59.854Z</time>
      </trkpt>
      <trkpt lat="47.434048" lon="7.924731">
        <ele>610.635281</ele>
        <time>2021-11-12T21:49:04.760Z</time>
      </trkpt>
      <trkpt lat="47.433985" lon="7.925315">
        <ele>612.225171</ele>
        <time>2021-11-12T21:49:16.545Z</time>
      </trkpt>
      <trkpt lat="47.433569" lon="7.926574">
        <ele>614.251626</ele>
        <time>2021-11-12T21:49:38.778Z</time>
      </trkpt>
      <trkpt lat="47.433455" lon="7.926970">
        <ele>614.130418</ele>
        <time>2021-11-12T21:49:43.303Z</time>
      </trkpt>
      <trkpt lat="47.433388" lon="7.927259">
        <ele>614.044378</ele>
        <time>2021-11-12T21:49:45.983Z</time>
      </trkpt>
      <trkpt lat="47.433296" lon="7.927408">
        <ele>613.987561</ele>
        <time>2021-11-12T21:49:47.771Z</time>
      </trkpt>
      <trkpt lat="47.432918" lon="7.927850">
        <ele>613.786901</ele>
        <time>2021-11-12T21:49:53.832Z</time>
      </trkpt>
      <trkpt lat="47.432392" lon="7.928678">
        <ele>611.641205</ele>
        <time>2021-11-12T21:50:01.546Z</time>
      </trkpt>
      <trkpt lat="47.432343" lon="7.928929">
        <ele>610.898684</ele>
        <time>2021-11-12T21:50:03.270Z</time>
      </trkpt>
      <trkpt lat="47.432332" lon="7.929564">
        <ele>609.093254</ele>
        <time>2021-11-12T21:50:07.411Z</time>
      </trkpt>
      <trkpt lat="47.432320" lon="7.929632">
        <ele>608.893512</ele>
        <time>2021-11-12T21:50:07.926Z</time>
      </trkpt>
      <trkpt lat="47.432376" lon="7.929666">
        <ele>608.639147</ele>
        <time>2021-11-12T21:50:08.460Z</time>
      </trkpt>
      <trkpt lat="47.432548" lon="7.929945">
        <ele>607.566249</ele>
        <time>2021-11-12T21:50:10.879Z</time>
      </trkpt>
      <trkpt lat="47.432626" lon="7.930198">
        <ele>606.775998</ele>
        <time>2021-11-12T21:50:12.639Z</time>
      </trkpt>
      <trkpt lat="47.432655" lon="7.930328">
        <ele>606.386933</ele>
        <time>2021-11-12T21:50:13.538Z</time>
      </trkpt>
      <trkpt lat="47.432664" lon="7.930471">
        <ele>605.916015</ele>
        <time>2021-11-12T21:50:14.458Z</time>
      </trkpt>
      <trkpt lat="47.432518" lon="7.931622">
        <ele>601.003215</ele>
        <time>2021-11-12T21:50:21.813Z</time>
      </trkpt>
      <trkpt lat="47.432491" lon="7.931730">
        <ele>600.520184</ele>
        <time>2021-11-12T21:50:22.491Z</time>
      </trkpt>
      <trkpt lat="47.432474" lon="7.931798">
        <ele>600.216053</ele>
        <time>2021-11-12T21:50:22.954Z</time>
      </trkpt>
      <trkpt lat="47.432246" lon="7.932289">
        <ele>597.717598</ele>
        <time>2021-11-12T21:50:26.572Z</time>
      </trkpt>
      <trkpt lat="47.431940" lon="7.932715">
        <ele>595.110827</ele>
        <time>2021-11-12T21:50:30.337Z</time>
      </trkpt>
      <trkpt lat="47.431916" lon="7.932769">
        <ele>594.842179</ele>
        <time>2021-11-12T21:50:30.855Z</time>
      </trkpt>
      <trkpt lat="47.431934" lon="7.932867">
        <ele>594.425018</ele>
        <time>2021-11-12T21:50:31.450Z</time>
      </trkpt>
      <trkpt lat="47.432257" lon="7.933273">
        <ele>591.850300</ele>
        <time>2021-11-12T21:50:35.318Z</time>
      </trkpt>
      <trkpt lat="47.432362" lon="7.933398">
        <ele>591.031604</ele>
        <time>2021-11-12T21:50:36.524Z</time>
      </trkpt>
      <trkpt lat="47.432488" lon="7.933576">
        <ele>589.973229</ele>
        <time>2021-11-12T21:50:38.129Z</time>
      </trkpt>
      <trkpt lat="47.432554" lon="7.933755">
        <ele>589.135766</ele>
        <time>2021-11-12T21:50:39.423Z</time>
      </trkpt>
      <trkpt lat="47.432569" lon="7.933827">
        <ele>588.826284</ele>
        <time>2021-11-12T21:50:39.871Z</time>
      </trkpt>
      <trkpt lat="47.432578" lon="7.933907">
        <ele>588.493134</ele>
        <time>2021-11-12T21:50:40.414Z</time>
      </trkpt>
      <trkpt lat="47.432647" lon="7.934240">
        <ele>587.062449</ele>
        <time>2021-11-12T21:50:42.546Z</time>
      </trkpt>
      <trkpt lat="47.432802" lon="7.934732">
        <ele>584.832903</ele>
        <time>2021-11-12T21:50:45.904Z</time>
      </trkpt>
      <trkpt lat="47.432965" lon="7.935043">
        <ele>583.770446</ele>
        <time>2021-11-12T21:50:48.404Z</time>
      </trkpt>
      <trkpt lat="47.433050" lon="7.935392">
        <ele>583.280085</ele>
        <time>2021-11-12T21:50:50.727Z</time>
      </trkpt>
      <trkpt lat="47.433187" lon="7.935304">
        <ele>582.988168</ele>
        <time>2021-11-12T21:50:52.180Z</time>
      </trkpt>
      <trkpt lat="47.433385" lon="7.935078">
        <ele>582.499304</ele>
        <time>2021-11-12T21:50:54.878Z</time>
      </trkpt>
      <trkpt lat="47.433512" lon="7.934950">
        <ele>582.198918</ele>
        <time>2021-11-12T21:50:56.447Z</time>
      </trkpt>
      <trkpt lat="47.433620" lon="7.934930">
        <ele>581.986207</ele>
        <time>2021-11-12T21:50:58.959Z</time>
      </trkpt>
      <trkpt lat="47.434298" lon="7.934609">
        <ele>580.594917</ele>
        <time>2021-11-12T21:51:10.890Z</time>
      </trkpt>
      <trkpt lat="47.434567" lon="7.934576">
        <ele>580.411432</ele>
        <time>2021-11-12T21:51:15.405Z</time>
      </trkpt>
      <trkpt lat="47.434614" lon="7.934590">
        <ele>580.389248</ele>
        <time>2021-11-12T21:51:16.565Z</time>
      </trkpt>
      <trkpt lat="47.434668" lon="7.934617">
        <ele>580.362872</ele>
        <time>2021-11-12T21:51:18.085Z</time>
      </trkpt>
      <trkpt lat="47.434806" lon="7.934720">
        <ele>580.291344</ele>
        <time>2021-11-12T21:51:19.675Z</time>
      </trkpt>
      <trkpt lat="47.434953" lon="7.934914">
        <ele>580.200169</ele>
        <time>2021-11-12T21:51:23.992Z</time>
      </trkpt>
      <trkpt lat="47.435021" lon="7.934988">
        <ele>580.161101</ele>
        <time>2021-11-12T21:51:24.789Z</time>
      </trkpt>
      <trkpt lat="47.435108" lon="7.935067">
        <ele>580.113860</ele>
        <time>2021-11-12T21:51:26.212Z</time>
      </trkpt>
      <trkpt lat="47.435139" lon="7.935085">
        <ele>580.098449</ele>
        <time>2021-11-12T21:51:27.229Z</time>
      </trkpt>
      <trkpt lat="47.435218" lon="7.935133">
        <ele>580.058930</ele>
        <time>2021-11-12T21:51:28.664Z</time>
      </trkpt>
      <trkpt lat="47.435945" lon="7.935453">
        <ele>579.707959</ele>
        <time>2021-11-12T21:51:38.071Z</time>
      </trkpt>
      <trkpt lat="47.435987" lon="7.935459">
        <ele>579.688435</ele>
        <time>2021-11-12T21:51:38.628Z</time>
      </trkpt>
      <trkpt lat="47.436041" lon="7.935466">
        <ele>579.663401</ele>
        <time>2021-11-12T21:51:39.113Z</time>
      </trkpt>
      <trkpt lat="47.436379" lon="7.935508">
        <ele>579.506789</ele>
        <time>2021-11-12T21:51:43.356Z</time>
      </trkpt>
      <trkpt lat="47.436645" lon="7.935783">
        <ele>579.356921</ele>
        <time>2021-11-12T21:51:47.359Z</time>
      </trkpt>
      <trkpt lat="47.436754" lon="7.935830">
        <ele>579.304497</ele>
        <time>2021-11-12T21:51:48.511Z</time>
      </trkpt>
      <trkpt lat="47.436817" lon="7.935819">
        <ele>579.275206</ele>
        <time>2021-11-12T21:51:49.098Z</time>
      </trkpt>
      <trkpt lat="47.436959" lon="7.935813">
        <ele>579.209615</ele>
        <time>2021-11-12T21:51:52.565Z</time>
      </trkpt>
      <trkpt lat="47.437163" lon="7.935805">
        <ele>579.115391</ele>
        <time>2021-11-12T21:51:54.645Z</time>
      </trkpt>
      <trkpt lat="47.437455" lon="7.935929">
        <ele>578.975117</ele>
        <time>2021-11-12T21:51:59.522Z</time>
      </trkpt>
      <trkpt lat="47.438097" lon="7.936295">
        <ele>579.817727</ele>
        <time>2021-11-12T21:52:15.387Z</time>
      </trkpt>
      <trkpt lat="47.438488" lon="7.936601">
        <ele>580.810253</ele>
        <time>2021-11-12T21:52:26.951Z</time>
      </trkpt>
      <trkpt lat="47.438795" lon="7.937030">
        <ele>581.757970</ele>
        <time>2021-11-12T21:52:38.344Z</time>
      </trkpt>
      <trkpt lat="47.439053" lon="7.937594">
        <ele>582.791167</ele>
        <time>2021-11-12T21:52:49.317Z</time>
      </trkpt>
      <trkpt lat="47.439305" lon="7.937977">
        <ele>583.696405</ele>
        <time>2021-11-12T21:52:56.668Z</time>
      </trkpt>
      <trkpt lat="47.439513" lon="7.938183">
        <ele>584.332648</ele>
        <time>2021-11-12T21:53:01.798Z</time>
      </trkpt>
      <trkpt lat="47.439973" lon="7.938391">
        <ele>585.555127</ele>
        <time>2021-11-12T21:53:13.890Z</time>
      </trkpt>
      <trkpt lat="47.440111" lon="7.938384">
        <ele>585.906041</ele>
        <time>2021-11-12T21:53:16.553Z</time>
      </trkpt>
      <trkpt lat="47.440276" lon="7.938174">
        <ele>586.459330</ele>
        <time>2021-11-12T21:53:22.895Z</time>
      </trkpt>
      <trkpt lat="47.440493" lon="7.937497">
        <ele>588.022349</ele>
        <time>2021-11-12T21:53:36.291Z</time>
      </trkpt>
      <trkpt lat="47.440535" lon="7.937445">
        <ele>588.295874</ele>
        <time>2021-11-12T21:53:36.840Z</time>
      </trkpt>
      <trkpt lat="47.440583" lon="7.937384">
        <ele>588.611907</ele>
        <time>2021-11-12T21:53:41.441Z</time>
      </trkpt>
      <trkpt lat="47.440806" lon="7.937210">
        <ele>589.870898</ele>
        <time>2021-11-12T21:53:48.306Z</time>
      </trkpt>
      <trkpt lat="47.441000" lon="7.937143">
        <ele>590.865625</ele>
        <time>2021-11-12T21:53:56.299Z</time>
      </trkpt>
      <trkpt lat="47.441541" lon="7.937289">
        <ele>593.611496</ele>
        <time>2021-11-12T21:54:15.214Z</time>
      </trkpt>
      <trkpt lat="47.442638" lon="7.937187">
        <ele>598.296763</ele>
        <time>2021-11-12T21:54:59.490Z</time>
      </trkpt>
      <trkpt lat="47.443543" lon="7.937251">
        <ele>601.453677</ele>
        <time>2021-11-12T21:55:24.501Z</time>
      </trkpt>
      <trkpt lat="47.443821" lon="7.937284">
        <ele>602.425435</ele>
        <time>2021-11-12T21:55:30.088Z</time>
      </trkpt>
      <trkpt lat="47.444030" lon="7.937346">
        <ele>602.346481</ele>
        <time>2021-11-12T21:55:33.638Z</time>
      </trkpt>
      <trkpt lat="47.444304" lon="7.937471">
        <ele>601.555764</ele>
        <time>2021-11-12T21:55:37.509Z</time>
      </trkpt>
      <trkpt lat="47.444544" lon="7.937668">
        <ele>600.798810</ele>
        <time>2021-11-12T21:55:40.851Z</time>
      </trkpt>
      <trkpt lat="47.444935" lon="7.938269">
        <ele>599.243565</ele>
        <time>2021-11-12T21:55:46.564Z</time>
      </trkpt>
      <trkpt lat="47.445088" lon="7.938426">
        <ele>598.730014</ele>
        <time>2021-11-12T21:55:48.334Z</time>
      </trkpt>
      <trkpt lat="47.445739" lon="7.938730">
        <ele>595.569093</ele>
        <time>2021-11-12T21:55:54.602Z</time>
      </trkpt>
      <trkpt lat="47.445987" lon="7.938989">
        <ele>593.545489</ele>
        <time>2021-11-12T21:55:57.285Z</time>
      </trkpt>
      <trkpt lat="47.446136" lon="7.939210">
        <ele>592.138901</ele>
        <time>2021-11-12T21:55:59.178Z</time>
      </trkpt>
      <trkpt lat="47.446200" lon="7.939305">
        <ele>591.534494</ele>
        <time>2021-11-12T21:55:59.950Z</time>
      </trkpt>
      <trkpt lat="47.446350" lon="7.939484">
        <ele>590.249798</ele>
        <time>2021-11-12T21:56:01.783Z</time>
      </trkpt>
      <trkpt lat="47.446714" lon="7.939663">
        <ele>587.693114</ele>
        <time>2021-11-12T21:56:05.225Z</time>
      </trkpt>
      <trkpt lat="47.446911" lon="7.939640">
        <ele>586.376033</ele>
        <time>2021-11-12T21:56:06.973Z</time>
      </trkpt>
      <trkpt lat="47.447023" lon="7.939500">
        <ele>585.599109</ele>
        <time>2021-11-12T21:56:08.374Z</time>
      </trkpt>
      <trkpt lat="47.447088" lon="7.939400">
        <ele>585.319131</ele>
        <time>2021-11-12T21:56:09.179Z</time>
      </trkpt>
      <trkpt lat="47.447148" lon="7.939307">
        <ele>585.059681</ele>
        <time>2021-11-12T21:56:09.976Z</time>
      </trkpt>
      <trkpt lat="47.447375" lon="7.938987">
        <ele>584.123561</ele>
        <time>2021-11-12T21:56:12.866Z</time>
      </trkpt>
      <trkpt lat="47.447514" lon="7.938816">
        <ele>583.583858</ele>
        <time>2021-11-12T21:56:14.869Z</time>
      </trkpt>
      <trkpt lat="47.447579" lon="7.938758">
        <ele>583.357256</ele>
        <time>2021-11-12T21:56:15.598Z</time>
      </trkpt>
      <trkpt lat="47.447622" lon="7.938729">
        <ele>583.216189</ele>
        <time>2021-11-12T21:56:16.032Z</time>
      </trkpt>
      <trkpt lat="47.447884" lon="7.938706">
        <ele>582.432784</ele>
        <time>2021-11-12T21:56:19.281Z</time>
      </trkpt>
      <trkpt lat="47.448076" lon="7.938764">
        <ele>581.847858</ele>
        <time>2021-11-12T21:56:21.272Z</time>
      </trkpt>
      <trkpt lat="47.448323" lon="7.938940">
        <ele>581.029473</ele>
        <time>2021-11-12T21:56:24.317Z</time>
      </trkpt>
      <trkpt lat="47.448504" lon="7.939113">
        <ele>580.397172</ele>
        <time>2021-11-12T21:56:28.314Z</time>
      </trkpt>
      <trkpt lat="47.448566" lon="7.939145">
        <ele>580.513023</ele>
        <time>2021-11-12T21:56:29.671Z</time>
      </trkpt>
      <trkpt lat="47.448632" lon="7.939166">
        <ele>580.632124</ele>
        <time>2021-11-12T21:56:30.948Z</time>
      </trkpt>
      <trkpt lat="47.448737" lon="7.939187">
        <ele>580.819050</ele>
        <time>2021-11-12T21:56:32.902Z</time>
      </trkpt>
      <trkpt lat="47.448995" lon="7.939236">
        <ele>581.277949</ele>
        <time>2021-11-12T21:56:38.386Z</time>
      </trkpt>
      <trkpt lat="47.449095" lon="7.939194">
        <ele>581.461346</ele>
        <time>2021-11-12T21:56:40.419Z</time>
      </trkpt>
      <trkpt lat="47.449121" lon="7.939164">
        <ele>581.519526</ele>
        <time>2021-11-12T21:56:41.126Z</time>
      </trkpt>
      <trkpt lat="47.449215" lon="7.939276">
        <ele>581.732492</ele>
        <time>2021-11-12T21:56:43.952Z</time>
      </trkpt>
      <trkpt lat="47.449278" lon="7.939333">
        <ele>581.862789</ele>
        <time>2021-11-12T21:56:45.604Z</time>
      </trkpt>
      <trkpt lat="47.449351" lon="7.939383">
        <ele>582.004719</ele>
        <time>2021-11-12T21:56:47.195Z</time>
      </trkpt>
      <trkpt lat="47.449443" lon="7.939446">
        <ele>582.183582</ele>
        <time>2021-11-12T21:56:49.338Z</time>
      </trkpt>
      <trkpt lat="47.449589" lon="7.939535">
        <ele>582.462180</ele>
        <time>2021-11-12T21:56:53.631Z</time>
      </trkpt>
      <trkpt lat="47.449814" lon="7.939672">
        <ele>582.891454</ele>
        <time>2021-11-12T21:56:58.880Z</time>
      </trkpt>
      <trkpt lat="47.449913" lon="7.939726">
        <ele>583.077611</ele>
        <time>2021-11-12T21:57:02.641Z</time>
      </trkpt>
      <trkpt lat="47.450248" lon="7.939948">
        <ele>583.885588</ele>
        <time>2021-11-12T21:57:11.924Z</time>
      </trkpt>
      <trkpt lat="47.450383" lon="7.940114">
        <ele>584.507677</ele>
        <time>2021-11-12T21:57:16.148Z</time>
      </trkpt>
      <trkpt lat="47.450538" lon="7.940621">
        <ele>585.840825</ele>
        <time>2021-11-12T21:57:26.400Z</time>
      </trkpt>
      <trkpt lat="47.450568" lon="7.940770">
        <ele>586.213317</ele>
        <time>2021-11-12T21:57:29.452Z</time>
      </trkpt>
      <trkpt lat="47.450565" lon="7.940916">
        <ele>586.563294</ele>
        <time>2021-11-12T21:57:32.689Z</time>
      </trkpt>
      <trkpt lat="47.450557" lon="7.941072">
        <ele>586.938142</ele>
        <time>2021-11-12T21:57:35.238Z</time>
      </trkpt>
      <trkpt lat="47.450585" lon="7.941257">
        <ele>587.392368</ele>
        <time>2021-11-12T21:57:38.936Z</time>
      </trkpt>
      <trkpt lat="47.450601" lon="7.941306">
        <ele>587.522742</ele>
        <time>2021-11-12T21:57:40.081Z</time>
      </trkpt>
      <trkpt lat="47.450601" lon="7.941306">
        <ele>587.522742</ele>
        <time>2021-11-12T21:57:40.177Z</time>
      </trkpt>
      <trkpt lat="47.450637" lon="7.941376">
        <ele>587.733456</ele>
        <time>2021-11-12T21:57:42.046Z</time>
      </trkpt>
      <trkpt lat="47.450769" lon="7.941529">
        <ele>588.327702</ele>
        <time>2021-11-12T21:57:46.427Z</time>
      </trkpt>
      <trkpt lat="47.451074" lon="7.941649">
        <ele>589.445968</ele>
        <time>2021-11-12T21:57:55.387Z</time>
      </trkpt>
      <trkpt lat="47.451110" lon="7.941681">
        <ele>589.594792</ele>
        <time>2021-11-12T21:57:57.078Z</time>
      </trkpt>
      <trkpt lat="47.451135" lon="7.941726">
        <ele>589.734332</ele>
        <time>2021-11-12T21:57:58.128Z</time>
      </trkpt>
      <trkpt lat="47.451213" lon="7.942012">
        <ele>590.680131</ele>
        <time>2021-11-12T21:58:05.729Z</time>
      </trkpt>
      <trkpt lat="47.451290" lon="7.942344">
        <ele>591.846908</ele>
        <time>2021-11-12T21:58:14.128Z</time>
      </trkpt>
      <trkpt lat="47.451325" lon="7.942609">
        <ele>592.744491</ele>
        <time>2021-11-12T21:58:20.694Z</time>
      </trkpt>
      <trkpt lat="47.451365" lon="7.943156">
        <ele>594.573479</ele>
        <time>2021-11-12T21:58:34.280Z</time>
      </trkpt>
      <trkpt lat="47.451395" lon="7.943371">
        <ele>595.303258</ele>
        <time>2021-11-12T21:58:39.792Z</time>
      </trkpt>
      <trkpt lat="47.451407" lon="7.943431">
        <ele>595.511257</ele>
        <time>2021-11-12T21:58:41.259Z</time>
      </trkpt>
      <trkpt lat="47.451423" lon="7.943479">
        <ele>595.689156</ele>
        <time>2021-11-12T21:58:42.468Z</time>
      </trkpt>
      <trkpt lat="47.451442" lon="7.943512">
        <ele>595.833235</ele>
        <time>2021-11-12T21:58:43.968Z</time>
      </trkpt>
      <trkpt lat="47.451644" lon="7.943673">
        <ele>596.961316</ele>
        <time>2021-11-12T21:58:51.405Z</time>
      </trkpt>
      <trkpt lat="47.451676" lon="7.943686">
        <ele>597.124457</ele>
        <time>2021-11-12T21:58:52.846Z</time>
      </trkpt>
      <trkpt lat="47.451846" lon="7.943751">
        <ele>597.987661</ele>
        <time>2021-11-12T21:58:58.712Z</time>
      </trkpt>
      <trkpt lat="47.451953" lon="7.943794">
        <ele>598.532752</ele>
        <time>2021-11-12T21:59:01.930Z</time>
      </trkpt>
      <trkpt lat="47.451977" lon="7.943811">
        <ele>598.663572</ele>
        <time>2021-11-12T21:59:02.850Z</time>
      </trkpt>
      <trkpt lat="47.452015" lon="7.943844">
        <ele>598.862916</ele>
        <time>2021-11-12T21:59:04.478Z</time>
      </trkpt>
      <trkpt lat="47.452054" lon="7.943901">
        <ele>599.085334</ele>
        <time>2021-11-12T21:59:06.368Z</time>
      </trkpt>
      <trkpt lat="47.452112" lon="7.944014">
        <ele>599.474458</ele>
        <time>2021-11-12T21:59:09.819Z</time>
      </trkpt>
      <trkpt lat="47.452156" lon="7.944137">
        <ele>599.856134</ele>
        <time>2021-11-12T21:59:12.294Z</time>
      </trkpt>
      <trkpt lat="47.452182" lon="7.944245">
        <ele>600.170580</ele>
        <time>2021-11-12T21:59:14.793Z</time>
      </trkpt>
      <trkpt lat="47.452197" lon="7.944338">
        <ele>600.432825</ele>
        <time>2021-11-12T21:59:17.170Z</time>
      </trkpt>
      <trkpt lat="47.452205" lon="7.944436">
        <ele>600.703581</ele>
        <time>2021-11-12T21:59:19.754Z</time>
      </trkpt>
      <trkpt lat="47.452195" lon="7.944626">
        <ele>601.226306</ele>
        <time>2021-11-12T21:59:23.132Z</time>
      </trkpt>
      <trkpt lat="47.452193" lon="7.944664">
        <ele>601.330851</ele>
        <time>2021-11-12T21:59:23.842Z</time>
      </trkpt>
      <trkpt lat="47.452130" lon="7.945001">
        <ele>602.289881</ele>
        <time>2021-11-12T21:59:32.128Z</time>
      </trkpt>
      <trkpt lat="47.452004" lon="7.945500">
        <ele>603.750899</ele>
        <time>2021-11-12T21:59:43.529Z</time>
      </trkpt>
      <trkpt lat="47.451848" lon="7.945864">
        <ele>604.932954</ele>
        <time>2021-11-12T21:59:52.248Z</time>
      </trkpt>
      <trkpt lat="47.451666" lon="7.946053">
        <ele>605.835040</ele>
        <time>2021-11-12T21:59:57.573Z</time>
      </trkpt>
      <trkpt lat="47.451393" lon="7.946246">
        <ele>606.980994</ele>
        <time>2021-11-12T22:00:06.118Z</time>
      </trkpt>
      <trkpt lat="47.451332" lon="7.946292">
        <ele>607.235782</ele>
        <time>2021-11-12T22:00:08.078Z</time>
      </trkpt>
      <trkpt lat="47.451170" lon="7.946404">
        <ele>607.901205</ele>
        <time>2021-11-12T22:00:13.565Z</time>
      </trkpt>
      <trkpt lat="47.451058" lon="7.946540">
        <ele>608.440449</ele>
        <time>2021-11-12T22:00:16.984Z</time>
      </trkpt>
      <trkpt lat="47.450994" lon="7.946647">
        <ele>608.799892</ele>
        <time>2021-11-12T22:00:20.308Z</time>
      </trkpt>
      <trkpt lat="47.450764" lon="7.947491">
        <ele>611.089537</ele>
        <time>2021-11-12T22:00:38.319Z</time>
      </trkpt>
      <trkpt lat="47.450665" lon="7.947928">
        <ele>612.249191</ele>
        <time>2021-11-12T22:00:48.290Z</time>
      </trkpt>
      <trkpt lat="47.450637" lon="7.948032">
        <ele>612.530856</ele>
        <time>2021-11-12T22:00:50.639Z</time>
      </trkpt>
      <trkpt lat="47.450592" lon="7.948134">
        <ele>612.827125</ele>
        <time>2021-11-12T22:00:53.652Z</time>
      </trkpt>
      <trkpt lat="47.450567" lon="7.948175">
        <ele>612.945064</ele>
        <time>2021-11-12T22:00:54.753Z</time>
      </trkpt>
      <trkpt lat="47.450539" lon="7.948213">
        <ele>613.065126</ele>
        <time>2021-11-12T22:00:55.997Z</time>
      </trkpt>
      <trkpt lat="47.450205" lon="7.948459">
        <ele>614.243923</ele>
        <time>2021-11-12T22:01:07.896Z</time>
      </trkpt>
      <trkpt lat="47.450135" lon="7.948495">
        <ele>614.478058</ele>
        <time>2021-11-12T22:01:10.088Z</time>
      </trkpt>
      <trkpt lat="47.450004" lon="7.948575">
        <ele>614.925811</ele>
        <time>2021-11-12T22:01:14.288Z</time>
      </trkpt>
      <trkpt lat="47.449791" lon="7.948794">
        <ele>615.745380</ele>
        <time>2021-11-12T22:01:21.872Z</time>
      </trkpt>
      <trkpt lat="47.449549" lon="7.949269">
        <ele>617.015911</ele>
        <time>2021-11-12T22:01:33.156Z</time>
      </trkpt>
      <trkpt lat="47.449418" lon="7.949404">
        <ele>617.520345</ele>
        <time>2021-11-12T22:01:36.869Z</time>
      </trkpt>
      <trkpt lat="47.448451" lon="7.949520">
        <ele>618.131821</ele>
        <time>2021-11-12T22:01:56.781Z</time>
      </trkpt>
      <trkpt lat="47.448314" lon="7.949566">
        <ele>618.065178</ele>
        <time>2021-11-12T22:01:58.976Z</time>
      </trkpt>
      <trkpt lat="47.448162" lon="7.949710">
        <ele>617.979546</ele>
        <time>2021-11-12T22:02:00.883Z</time>
      </trkpt>
      <trkpt lat="47.447993" lon="7.950057">
        <ele>617.842367</ele>
        <time>2021-11-12T22:02:04.136Z</time>
      </trkpt>
      <trkpt lat="47.447781" lon="7.951149">
        <ele>616.767331</ele>
        <time>2021-11-12T22:02:12.675Z</time>
      </trkpt>
      <trkpt lat="47.447641" lon="7.951415">
        <ele>616.024220</ele>
        <time>2021-11-12T22:02:15.411Z</time>
      </trkpt>
      <trkpt lat="47.447587" lon="7.951456">
        <ele>615.826327</ele>
        <time>2021-11-12T22:02:15.936Z</time>
      </trkpt>
      <trkpt lat="47.447532" lon="7.951475">
        <ele>615.642196</ele>
        <time>2021-11-12T22:02:16.579Z</time>
      </trkpt>
      <trkpt lat="47.446999" lon="7.951346">
        <ele>613.881470</ele>
        <time>2021-11-12T22:02:22.160Z</time>
      </trkpt>
      <trkpt lat="47.446952" lon="7.951343">
        <ele>613.728105</ele>
        <time>2021-11-12T22:02:22.654Z</time>
      </trkpt>
      <trkpt lat="47.446713" lon="7.951341">
        <ele>612.948942</ele>
        <time>2021-11-12T22:02:24.901Z</time>
      </trkpt>
      <trkpt lat="47.446253" lon="7.951461">
        <ele>611.313154</ele>
        <time>2021-11-12T22:02:29.389Z</time>
      </trkpt>
      <trkpt lat="47.446082" lon="7.951692">
        <ele>610.282004</ele>
        <time>2021-11-12T22:02:31.548Z</time>
      </trkpt>
      <trkpt lat="47.445906" lon="7.952081">
        <ele>608.872868</ele>
        <time>2021-11-12T22:02:34.693Z</time>
      </trkpt>
      <trkpt lat="47.445832" lon="7.952260">
        <ele>608.241214</ele>
        <time>2021-11-12T22:02:36.053Z</time>
      </trkpt>
      <trkpt lat="47.445733" lon="7.952446">
        <ele>607.528564</ele>
        <time>2021-11-12T22:02:37.610Z</time>
      </trkpt>
      <trkpt lat="47.445277" lon="7.952896">
        <ele>605.087868</ele>
        <time>2021-11-12T22:02:42.884Z</time>
      </trkpt>
      <trkpt lat="47.445190" lon="7.953050">
        <ele>604.483709</ele>
        <time>2021-11-12T22:02:44.172Z</time>
      </trkpt>
      <trkpt lat="47.445043" lon="7.953752">
        <ele>601.899448</ele>
        <time>2021-11-12T22:02:48.919Z</time>
      </trkpt>
      <trkpt lat="47.444431" lon="7.955161">
        <ele>595.571167</ele>
        <time>2021-11-12T22:02:59.466Z</time>
      </trkpt>
      <trkpt lat="47.444374" lon="7.955426">
        <ele>594.520280</ele>
        <time>2021-11-12T22:03:01.164Z</time>
      </trkpt>
      <trkpt lat="47.444371" lon="7.955878">
        <ele>592.424811</ele>
        <time>2021-11-12T22:03:03.932Z</time>
      </trkpt>
      <trkpt lat="47.444384" lon="7.956138">
        <ele>590.998574</ele>
        <time>2021-11-12T22:03:05.514Z</time>
      </trkpt>
      <trkpt lat="47.444409" lon="7.956577">
        <ele>588.588484</ele>
        <time>2021-11-12T22:03:08.155Z</time>
      </trkpt>
      <trkpt lat="47.444407" lon="7.957243">
        <ele>584.945033</ele>
        <time>2021-11-12T22:03:12.147Z</time>
      </trkpt>
      <trkpt lat="47.444188" lon="7.958233">
        <ele>579.246781</ele>
        <time>2021-11-12T22:03:18.237Z</time>
      </trkpt>
      <trkpt lat="47.443914" lon="7.958964">
        <ele>575.084766</ele>
        <time>2021-11-12T22:03:23.173Z</time>
      </trkpt>
      <trkpt lat="47.443720" lon="7.959271">
        <ele>572.997914</ele>
        <time>2021-11-12T22:03:25.685Z</time>
      </trkpt>
      <trkpt lat="47.443571" lon="7.959413">
        <ele>571.696056</ele>
        <time>2021-11-12T22:03:27.345Z</time>
      </trkpt>
      <trkpt lat="47.443496" lon="7.959438">
        <ele>571.131432</ele>
        <time>2021-11-12T22:03:27.983Z</time>
      </trkpt>
      <trkpt lat="47.443343" lon="7.959453">
        <ele>570.005333</ele>
        <time>2021-11-12T22:03:29.415Z</time>
      </trkpt>
      <trkpt lat="47.442504" lon="7.959467">
        <ele>565.263381</ele>
        <time>2021-11-12T22:03:37.230Z</time>
      </trkpt>
      <trkpt lat="47.442431" lon="7.959459">
        <ele>565.093608</ele>
        <time>2021-11-12T22:03:37.848Z</time>
      </trkpt>
      <trkpt lat="47.442302" lon="7.959406">
        <ele>564.783084</ele>
        <time>2021-11-12T22:03:39.187Z</time>
      </trkpt>
      <trkpt lat="47.442137" lon="7.959350">
        <ele>564.390449</ele>
        <time>2021-11-12T22:03:41.039Z</time>
      </trkpt>
      <trkpt lat="47.442070" lon="7.959339">
        <ele>564.234101</ele>
        <time>2021-11-12T22:03:41.606Z</time>
      </trkpt>
      <trkpt lat="47.441658" lon="7.959533">
        <ele>563.231267</ele>
        <time>2021-11-12T22:03:46.482Z</time>
      </trkpt>
      <trkpt lat="47.441281" lon="7.960073">
        <ele>562.013875</ele>
        <time>2021-11-12T22:03:56.283Z</time>
      </trkpt>
      <trkpt lat="47.441074" lon="7.960255">
        <ele>561.896310</ele>
        <time>2021-11-12T22:03:59.790Z</time>
      </trkpt>
      <trkpt lat="47.440869" lon="7.960279">
        <ele>562.139777</ele>
        <time>2021-11-12T22:04:04.637Z</time>
      </trkpt>
      <trkpt lat="47.440544" lon="7.960192">
        <ele>562.530812</ele>
        <time>2021-11-12T22:04:11.712Z</time>
      </trkpt>
      <trkpt lat="47.440419" lon="7.960172">
        <ele>562.679668</ele>
        <time>2021-11-12T22:04:13.796Z</time>
      </trkpt>
      <trkpt lat="47.440324" lon="7.960176">
        <ele>562.792187</ele>
        <time>2021-11-12T22:04:15.571Z</time>
      </trkpt>
      <trkpt lat="47.440264" lon="7.960181">
        <ele>562.863336</ele>
        <time>2021-11-12T22:04:16.879Z</time>
      </trkpt>
      <trkpt lat="47.440212" lon="7.960199">
        <ele>562.926566</ele>
        <time>2021-11-12T22:04:19.407Z</time>
      </trkpt>
      <trkpt lat="47.439964" lon="7.960470">
        <ele>563.291672</ele>
        <time>2021-11-12T22:04:24.783Z</time>
      </trkpt>
      <trkpt lat="47.439936" lon="7.960525">
        <ele>563.346797</ele>
        <time>2021-11-12T22:04:27.127Z</time>
      </trkpt>
      <trkpt lat="47.439909" lon="7.960605">
        <ele>563.418391</ele>
        <time>2021-11-12T22:04:27.775Z</time>
      </trkpt>
      <trkpt lat="47.439858" lon="7.960872">
        <ele>563.640559</ele>
        <time>2021-11-12T22:04:31.313Z</time>
      </trkpt>
      <trkpt lat="47.439862" lon="7.961119">
        <ele>563.838406</ele>
        <time>2021-11-12T22:04:35.431Z</time>
      </trkpt>
      <trkpt lat="47.440011" lon="7.962659">
        <ele>562.368933</ele>
        <time>2021-11-12T22:04:49.881Z</time>
      </trkpt>
      <trkpt lat="47.440007" lon="7.962723">
        <ele>562.304659</ele>
        <time>2021-11-12T22:04:50.289Z</time>
      </trkpt>
      <trkpt lat="47.439994" lon="7.962853">
        <ele>562.173244</ele>
        <time>2021-11-12T22:04:51.360Z</time>
      </trkpt>
      <trkpt lat="47.439978" lon="7.962938">
        <ele>562.085013</ele>
        <time>2021-11-12T22:04:52.092Z</time>
      </trkpt>
      <trkpt lat="47.439934" lon="7.963205">
        <ele>561.810198</ele>
        <time>2021-11-12T22:04:53.902Z</time>
      </trkpt>
      <trkpt lat="47.439904" lon="7.963387">
        <ele>561.622868</ele>
        <time>2021-11-12T22:04:55.297Z</time>
      </trkpt>
      <trkpt lat="47.439896" lon="7.963430">
        <ele>561.578270</ele>
        <time>2021-11-12T22:04:55.654Z</time>
      </trkpt>
      <trkpt lat="47.439883" lon="7.963536">
        <ele>561.470540</ele>
        <time>2021-11-12T22:04:56.489Z</time>
      </trkpt>
      <trkpt lat="47.439879" lon="7.963594">
        <ele>561.412238</ele>
        <time>2021-11-12T22:04:56.823Z</time>
      </trkpt>
      <trkpt lat="47.439896" lon="7.964753">
        <ele>557.701233</ele>
        <time>2021-11-12T22:05:04.409Z</time>
      </trkpt>
      <trkpt lat="47.439676" lon="7.965961">
        <ele>553.140282</ele>
        <time>2021-11-12T22:05:12.254Z</time>
      </trkpt>
      <trkpt lat="47.439678" lon="7.966197">
        <ele>552.279811</ele>
        <time>2021-11-12T22:05:13.674Z</time>
      </trkpt>
      <trkpt lat="47.439737" lon="7.966170">
        <ele>551.946901</ele>
        <time>2021-11-12T22:05:14.241Z</time>
      </trkpt>
      <trkpt lat="47.439807" lon="7.966143">
        <ele>551.556955</ele>
        <time>2021-11-12T22:05:14.943Z</time>
      </trkpt>
      <trkpt lat="47.439942" lon="7.966121">
        <ele>550.545658</ele>
        <time>2021-11-12T22:05:16.180Z</time>
      </trkpt>
      <trkpt lat="47.440012" lon="7.966095">
        <ele>550.000869</ele>
        <time>2021-11-12T22:05:16.774Z</time>
      </trkpt>
      <trkpt lat="47.440543" lon="7.965818">
        <ele>545.750638</ele>
        <time>2021-11-12T22:05:21.852Z</time>
      </trkpt>
      <trkpt lat="47.440933" lon="7.965666">
        <ele>542.706297</ele>
        <time>2021-11-12T22:05:25.414Z</time>
      </trkpt>
      <trkpt lat="47.441204" lon="7.965554">
        <ele>540.582337</ele>
        <time>2021-11-12T22:05:27.884Z</time>
      </trkpt>
      <trkpt lat="47.441328" lon="7.965473">
        <ele>539.559087</ele>
        <time>2021-11-12T22:05:29.102Z</time>
      </trkpt>
      <trkpt lat="47.441371" lon="7.965446">
        <ele>539.206460</ele>
        <time>2021-11-12T22:05:29.481Z</time>
      </trkpt>
      <trkpt lat="47.442282" lon="7.964392">
        <ele>531.670019</ele>
        <time>2021-11-12T22:05:39.893Z</time>
      </trkpt>
      <trkpt lat="47.443115" lon="7.964042">
        <ele>526.268451</ele>
        <time>2021-11-12T22:05:47.999Z</time>
      </trkpt>
      <trkpt lat="47.443282" lon="7.963930">
        <ele>525.393072</ele>
        <time>2021-11-12T22:05:49.752Z</time>
      </trkpt>
      <trkpt lat="47.443323" lon="7.963902">
        <ele>525.177482</ele>
        <time>2021-11-12T22:05:50.142Z</time>
      </trkpt>
      <trkpt lat="47.444267" lon="7.962981">
        <ele>519.778528</ele>
        <time>2021-11-12T22:06:00.862Z</time>
      </trkpt>
      <trkpt lat="47.444826" lon="7.962406">
        <ele>517.109731</ele>
        <time>2021-11-12T22:06:07.423Z</time>
      </trkpt>
      <trkpt lat="47.444976" lon="7.962255">
        <ele>516.596720</ele>
        <time>2021-11-12T22:06:09.245Z</time>
      </trkpt>
      <trkpt lat="47.444993" lon="7.962238">
        <ele>516.538701</ele>
        <time>2021-11-12T22:06:09.454Z</time>
      </trkpt>
      <trkpt lat="47.445186" lon="7.962043">
        <ele>515.877858</ele>
        <time>2021-11-12T22:06:11.793Z</time>
      </trkpt>
      <trkpt lat="47.445405" lon="7.961813">
        <ele>515.118449</ele>
        <time>2021-11-12T22:06:14.560Z</time>
      </trkpt>
      <trkpt lat="47.445632" lon="7.961583">
        <ele>514.340492</ele>
        <time>2021-11-12T22:06:17.432Z</time>
      </trkpt>
      <trkpt lat="47.445731" lon="7.961482">
        <ele>514.000458</ele>
        <time>2021-11-12T22:06:18.676Z</time>
      </trkpt>
      <trkpt lat="47.446265" lon="7.961081">
        <ele>512.923784</ele>
        <time>2021-11-12T22:06:25.562Z</time>
      </trkpt>
      <trkpt lat="47.446978" lon="7.960776">
        <ele>513.124780</ele>
        <time>2021-11-12T22:06:36.192Z</time>
      </trkpt>
      <trkpt lat="47.448152" lon="7.960399">
        <ele>513.257432</ele>
        <time>2021-11-12T22:07:01.466Z</time>
      </trkpt>
      <trkpt lat="47.449168" lon="7.960272">
        <ele>512.962396</ele>
        <time>2021-11-12T22:07:16.307Z</time>
      </trkpt>
      <trkpt lat="47.449207" lon="7.960269">
        <ele>512.951096</ele>
        <time>2021-11-12T22:07:17.506Z</time>
      </trkpt>
      <trkpt lat="47.450176" lon="7.960171">
        <ele>510.379674</ele>
        <time>2021-11-12T22:07:27.756Z</time>
      </trkpt>
      <trkpt lat="47.453337" lon="7.959692">
        <ele>494.568514</ele>
        <time>2021-11-12T22:07:57.420Z</time>
      </trkpt>
      <trkpt lat="47.454626" lon="7.959663">
        <ele>487.375801</ele>
        <time>2021-11-12T22:08:09.272Z</time>
      </trkpt>
      <trkpt lat="47.454959" lon="7.959615">
        <ele>485.509048</ele>
        <time>2021-11-12T22:08:12.408Z</time>
      </trkpt>
      <trkpt lat="47.455065" lon="7.959595">
        <ele>485.042700</ele>
        <time>2021-11-12T22:08:13.409Z</time>
      </trkpt>
      <trkpt lat="47.455234" lon="7.959555">
        <ele>484.341872</ele>
        <time>2021-11-12T22:08:15.053Z</time>
      </trkpt>
      <trkpt lat="47.455967" lon="7.959329">
        <ele>481.275849</ele>
        <time>2021-11-12T22:08:22.247Z</time>
      </trkpt>
      <trkpt lat="47.456734" lon="7.959350">
        <ele>478.134597</ele>
        <time>2021-11-12T22:08:29.887Z</time>
      </trkpt>
      <trkpt lat="47.457199" lon="7.959536">
        <ele>476.506190</ele>
        <time>2021-11-12T22:08:34.856Z</time>
      </trkpt>
      <trkpt lat="47.458898" lon="7.960485">
        <ele>470.696371</ele>
        <time>2021-11-12T22:08:53.062Z</time>
      </trkpt>
      <trkpt lat="47.459074" lon="7.960615">
        <ele>470.146903</ele>
        <time>2021-11-12T22:08:55.032Z</time>
      </trkpt>
      <trkpt lat="47.459280" lon="7.960788">
        <ele>469.485254</ele>
        <time>2021-11-12T22:08:57.505Z</time>
      </trkpt>
      <trkpt lat="47.459416" lon="7.960954">
        <ele>468.992754</ele>
        <time>2021-11-12T22:08:59.336Z</time>
      </trkpt>
      <trkpt lat="47.459581" lon="7.961147">
        <ele>468.405201</ele>
        <time>2021-11-12T22:09:01.547Z</time>
      </trkpt>
      <trkpt lat="47.460083" lon="7.961991">
        <ele>466.632644</ele>
        <time>2021-11-12T22:09:09.750Z</time>
      </trkpt>
      <trkpt lat="47.460405" lon="7.962956">
        <ele>465.592928</ele>
        <time>2021-11-12T22:09:18.290Z</time>
      </trkpt>
      <trkpt lat="47.460489" lon="7.963238">
        <ele>465.295199</ele>
        <time>2021-11-12T22:09:20.768Z</time>
      </trkpt>
      <trkpt lat="47.460551" lon="7.963411">
        <ele>465.106023</ele>
        <time>2021-11-12T22:09:22.544Z</time>
      </trkpt>
      <trkpt lat="47.460768" lon="7.963901">
        <ele>464.540086</ele>
        <time>2021-11-12T22:09:27.362Z</time>
      </trkpt>
      <trkpt lat="47.461085" lon="7.964391">
        <ele>463.767534</ele>
        <time>2021-11-12T22:09:32.665Z</time>
      </trkpt>
      <trkpt lat="47.461753" lon="7.965074">
        <ele>462.356984</ele>
        <time>2021-11-12T22:09:41.854Z</time>
      </trkpt>
      <trkpt lat="47.462208" lon="7.965649">
        <ele>461.317475</ele>
        <time>2021-11-12T22:09:48.372Z</time>
      </trkpt>
      <trkpt lat="47.462416" lon="7.966027">
        <ele>460.631946</ele>
        <time>2021-11-12T22:09:51.871Z</time>
      </trkpt>
      <trkpt lat="47.462955" lon="7.967287">
        <ele>458.527005</ele>
        <time>2021-11-12T22:10:02.847Z</time>
      </trkpt>
      <trkpt lat="47.463153" lon="7.967669">
        <ele>457.847478</ele>
        <time>2021-11-12T22:10:06.395Z</time>
      </trkpt>
      <trkpt lat="47.463389" lon="7.968088">
        <ele>457.133376</ele>
        <time>2021-11-12T22:10:10.498Z</time>
      </trkpt>
      <trkpt lat="47.463713" lon="7.968547">
        <ele>456.307386</ele>
        <time>2021-11-12T22:10:15.522Z</time>
      </trkpt>
      <trkpt lat="47.463869" lon="7.968734">
        <ele>455.937694</ele>
        <time>2021-11-12T22:10:17.703Z</time>
      </trkpt>
      <trkpt lat="47.464851" lon="7.969824">
        <ele>453.669703</ele>
        <time>2021-11-12T22:10:31.489Z</time>
      </trkpt>
      <trkpt lat="47.465273" lon="7.970155">
        <ele>452.778404</ele>
        <time>2021-11-12T22:10:36.752Z</time>
      </trkpt>
      <trkpt lat="47.465838" lon="7.970388">
        <ele>451.683923</ele>
        <time>2021-11-12T22:10:43.514Z</time>
      </trkpt>
      <trkpt lat="47.466209" lon="7.970465">
        <ele>450.984864</ele>
        <time>2021-11-12T22:10:47.520Z</time>
      </trkpt>
      <trkpt lat="47.466575" lon="7.970455">
        <ele>450.461375</ele>
        <time>2021-11-12T22:10:51.455Z</time>
      </trkpt>
      <trkpt lat="47.466578" lon="7.970454">
        <ele>450.457216</ele>
        <time>2021-11-12T22:10:51.590Z</time>
      </trkpt>
      <trkpt lat="47.467243" lon="7.970284">
        <ele>449.544626</ele>
        <time>2021-11-12T22:10:58.965Z</time>
      </trkpt>
      <trkpt lat="47.467356" lon="7.970255">
        <ele>449.389536</ele>
        <time>2021-11-12T22:11:00.364Z</time>
      </trkpt>
      <trkpt lat="47.467469" lon="7.970226">
        <ele>449.234447</ele>
        <time>2021-11-12T22:11:01.499Z</time>
      </trkpt>
      <trkpt lat="47.468142" lon="7.970113">
        <ele>448.588118</ele>
        <time>2021-11-12T22:11:11.113Z</time>
      </trkpt>
      <trkpt lat="47.469022" lon="7.970240">
        <ele>449.859477</ele>
        <time>2021-11-12T22:11:27.035Z</time>
      </trkpt>
      <trkpt lat="47.469339" lon="7.970255">
        <ele>450.315524</ele>
        <time>2021-11-12T22:11:35.023Z</time>
      </trkpt>
      <trkpt lat="47.469542" lon="7.970235">
        <ele>450.608064</ele>
        <time>2021-11-12T22:11:41.053Z</time>
      </trkpt>
      <trkpt lat="47.471196" lon="7.969654">
        <ele>452.202334</ele>
        <time>2021-11-12T22:12:21.371Z</time>
      </trkpt>
      <trkpt lat="47.471877" lon="7.969497">
        <ele>450.814723</ele>
        <time>2021-11-12T22:12:28.584Z</time>
      </trkpt>
      <trkpt lat="47.472626" lon="7.969301">
        <ele>446.362653</ele>
        <time>2021-11-12T22:12:35.654Z</time>
      </trkpt>
      <trkpt lat="47.473628" lon="7.969058">
        <ele>440.124072</ele>
        <time>2021-11-12T22:12:44.592Z</time>
      </trkpt>
      <trkpt lat="47.474238" lon="7.968922">
        <ele>435.840039</ele>
        <time>2021-11-12T22:12:50.004Z</time>
      </trkpt>
      <trkpt lat="47.474555" lon="7.968862">
        <ele>433.620661</ele>
        <time>2021-11-12T22:12:52.846Z</time>
      </trkpt>
      <trkpt lat="47.474879" lon="7.968783">
        <ele>431.340261</ele>
        <time>2021-11-12T22:12:55.850Z</time>
      </trkpt>
      <trkpt lat="47.475312" lon="7.968548">
        <ele>429.058308</ele>
        <time>2021-11-12T22:13:00.311Z</time>
      </trkpt>
      <trkpt lat="47.475616" lon="7.968229">
        <ele>428.202756</ele>
        <time>2021-11-12T22:13:04.115Z</time>
      </trkpt>
      <trkpt lat="47.475684" lon="7.968334">
        <ele>427.977129</ele>
        <time>2021-11-12T22:13:05.204Z</time>
      </trkpt>
      <trkpt lat="47.475729" lon="7.968403">
        <ele>427.828359</ele>
        <time>2021-11-12T22:13:05.910Z</time>
      </trkpt>
      <trkpt lat="47.475871" lon="7.968576">
        <ele>427.406097</ele>
        <time>2021-11-12T22:13:07.924Z</time>
      </trkpt>
      <trkpt lat="47.476103" lon="7.968806">
        <ele>426.765023</ele>
        <time>2021-11-12T22:13:10.943Z</time>
      </trkpt>
      <trkpt lat="47.476327" lon="7.969094">
        <ele>426.083790</ele>
        <time>2021-11-12T22:13:14.445Z</time>
      </trkpt>
      <trkpt lat="47.476396" lon="7.969182">
        <ele>425.874671</ele>
        <time>2021-11-12T22:13:15.637Z</time>
      </trkpt>
      <trkpt lat="47.476670" lon="7.969631">
        <ele>425.189196</ele>
        <time>2021-11-12T22:13:20.856Z</time>
      </trkpt>
      <trkpt lat="47.476944" lon="7.970103">
        <ele>424.769113</ele>
        <time>2021-11-12T22:13:27.704Z</time>
      </trkpt>
      <trkpt lat="47.477029" lon="7.970212">
        <ele>424.656751</ele>
        <time>2021-11-12T22:13:29.180Z</time>
      </trkpt>
      <trkpt lat="47.477135" lon="7.970342">
        <ele>424.519217</ele>
        <time>2021-11-12T22:13:31.605Z</time>
      </trkpt>
      <trkpt lat="47.477203" lon="7.970445">
        <ele>424.422005</ele>
        <time>2021-11-12T22:13:32.871Z</time>
      </trkpt>
      <trkpt lat="47.477262" lon="7.970548">
        <ele>424.330849</ele>
        <time>2021-11-12T22:13:33.951Z</time>
      </trkpt>
      <trkpt lat="47.477284" lon="7.970600">
        <ele>424.289430</ele>
        <time>2021-11-12T22:13:34.450Z</time>
      </trkpt>
      <trkpt lat="47.477322" lon="7.970682">
        <ele>424.222303</ele>
        <time>2021-11-12T22:13:35.504Z</time>
      </trkpt>
      <trkpt lat="47.477370" lon="7.970827">
        <ele>424.113294</ele>
        <time>2021-11-12T22:13:36.814Z</time>
      </trkpt>
      <trkpt lat="47.477522" lon="7.971381">
        <ele>423.709615</ele>
        <time>2021-11-12T22:13:41.476Z</time>
      </trkpt>
      <trkpt lat="47.477553" lon="7.971461">
        <ele>423.647355</ele>
        <time>2021-11-12T22:13:42.076Z</time>
      </trkpt>
      <trkpt lat="47.477623" lon="7.971640">
        <ele>423.303314</ele>
        <time>2021-11-12T22:13:43.527Z</time>
      </trkpt>
      <trkpt lat="47.477698" lon="7.971759">
        <ele>422.911862</ele>
        <time>2021-11-12T22:13:44.810Z</time>
      </trkpt>
      <trkpt lat="47.477778" lon="7.971876">
        <ele>422.511460</ele>
        <time>2021-11-12T22:13:45.901Z</time>
      </trkpt>
      <trkpt lat="47.478083" lon="7.972275">
        <ele>421.062285</ele>
        <time>2021-11-12T22:13:49.923Z</time>
      </trkpt>
      <trkpt lat="47.478198" lon="7.972475">
        <ele>420.430556</ele>
        <time>2021-11-12T22:13:51.825Z</time>
      </trkpt>
      <trkpt lat="47.478213" lon="7.972508">
        <ele>420.334880</ele>
        <time>2021-11-12T22:13:52.081Z</time>
      </trkpt>
      <trkpt lat="47.478295" lon="7.972689">
        <ele>419.810656</ele>
        <time>2021-11-12T22:13:53.473Z</time>
      </trkpt>
      <trkpt lat="47.478424" lon="7.973015">
        <ele>418.901835</ele>
        <time>2021-11-12T22:13:56.049Z</time>
      </trkpt>
      <trkpt lat="47.478494" lon="7.973191">
        <ele>418.410543</ele>
        <time>2021-11-12T22:13:57.315Z</time>
      </trkpt>
      <trkpt lat="47.478606" lon="7.973396">
        <ele>417.776374</ele>
        <time>2021-11-12T22:13:59.138Z</time>
      </trkpt>
      <trkpt lat="47.478952" lon="7.973850">
        <ele>415.957690</ele>
        <time>2021-11-12T22:14:03.536Z</time>
      </trkpt>
      <trkpt lat="47.479061" lon="7.974014">
        <ele>415.313827</ele>
        <time>2021-11-12T22:14:05.038Z</time>
      </trkpt>
      <trkpt lat="47.479095" lon="7.974066">
        <ele>415.111297</ele>
        <time>2021-11-12T22:14:05.552Z</time>
      </trkpt>
      <trkpt lat="47.479172" lon="7.974215">
        <ele>414.586255</ele>
        <time>2021-11-12T22:14:06.766Z</time>
      </trkpt>
      <trkpt lat="47.479198" lon="7.974266">
        <ele>414.407434</ele>
        <time>2021-11-12T22:14:07.150Z</time>
      </trkpt>
      <trkpt lat="47.479256" lon="7.974388">
        <ele>413.989901</ele>
        <time>2021-11-12T22:14:08.097Z</time>
      </trkpt>
      <trkpt lat="47.479521" lon="7.975122">
        <ele>411.660486</ele>
        <time>2021-11-12T22:14:13.515Z</time>
      </trkpt>
      <trkpt lat="47.479548" lon="7.975187">
        <ele>411.446919</ele>
        <time>2021-11-12T22:14:13.994Z</time>
      </trkpt>
      <trkpt lat="47.479650" lon="7.975428">
        <ele>410.650946</ele>
        <time>2021-11-12T22:14:15.888Z</time>
      </trkpt>
      <trkpt lat="47.479662" lon="7.975458">
        <ele>410.553364</ele>
        <time>2021-11-12T22:14:16.132Z</time>
      </trkpt>
      <trkpt lat="47.479744" lon="7.975611">
        <ele>410.006767</ele>
        <time>2021-11-12T22:14:17.433Z</time>
      </trkpt>
      <trkpt lat="47.480019" lon="7.976061">
        <ele>408.832560</ele>
        <time>2021-11-12T22:14:21.711Z</time>
      </trkpt>
      <trkpt lat="47.480172" lon="7.976321">
        <ele>408.221915</ele>
        <time>2021-11-12T22:14:24.214Z</time>
      </trkpt>
      <trkpt lat="47.480258" lon="7.976521">
        <ele>407.802032</ele>
        <time>2021-11-12T22:14:25.975Z</time>
      </trkpt>
      <trkpt lat="47.480294" lon="7.976615">
        <ele>407.610657</ele>
        <time>2021-11-12T22:14:26.694Z</time>
      </trkpt>
      <trkpt lat="47.480540" lon="7.977249">
        <ele>406.315747</ele>
        <time>2021-11-12T22:14:31.922Z</time>
      </trkpt>
      <trkpt lat="47.481057" lon="7.978315">
        <ele>404.272198</ele>
        <time>2021-11-12T22:14:41.400Z</time>
      </trkpt>
      <trkpt lat="47.481075" lon="7.978353">
        <ele>404.212390</ele>
        <time>2021-11-12T22:14:41.690Z</time>
      </trkpt>
      <trkpt lat="47.481331" lon="7.978796">
        <ele>403.461166</ele>
        <time>2021-11-12T22:14:46.018Z</time>
      </trkpt>
      <trkpt lat="47.481417" lon="7.978989">
        <ele>403.163219</ele>
        <time>2021-11-12T22:14:47.849Z</time>
      </trkpt>
      <trkpt lat="47.481508" lon="7.979190">
        <ele>402.851407</ele>
        <time>2021-11-12T22:14:49.637Z</time>
      </trkpt>
      <trkpt lat="47.481627" lon="7.979494">
        <ele>402.398623</ele>
        <time>2021-11-12T22:14:52.459Z</time>
      </trkpt>
      <trkpt lat="47.481673" lon="7.979611">
        <ele>402.224169</ele>
        <time>2021-11-12T22:14:53.492Z</time>
      </trkpt>
      <trkpt lat="47.481757" lon="7.979824">
        <ele>401.906328</ele>
        <time>2021-11-12T22:14:55.368Z</time>
      </trkpt>
      <trkpt lat="47.481977" lon="7.980334">
        <ele>401.238502</ele>
        <time>2021-11-12T22:15:00.040Z</time>
      </trkpt>
      <trkpt lat="47.482025" lon="7.980480">
        <ele>401.079639</ele>
        <time>2021-11-12T22:15:01.249Z</time>
      </trkpt>
      <trkpt lat="47.482099" lon="7.980698">
        <ele>400.840939</ele>
        <time>2021-11-12T22:15:03.167Z</time>
      </trkpt>
      <trkpt lat="47.482159" lon="7.980898">
        <ele>400.626832</ele>
        <time>2021-11-12T22:15:04.843Z</time>
      </trkpt>
      <trkpt lat="47.482458" lon="7.981897">
        <ele>399.557781</ele>
        <time>2021-11-12T22:15:13.372Z</time>
      </trkpt>
      <trkpt lat="47.482472" lon="7.981944">
        <ele>399.507525</ele>
        <time>2021-11-12T22:15:13.749Z</time>
      </trkpt>
      <trkpt lat="47.482563" lon="7.982231">
        <ele>399.197337</ele>
        <time>2021-11-12T22:15:16.417Z</time>
      </trkpt>
      <trkpt lat="47.482594" lon="7.982339">
        <ele>399.082527</ele>
        <time>2021-11-12T22:15:17.321Z</time>
      </trkpt>
      <trkpt lat="47.482652" lon="7.982524">
        <ele>398.881109</ele>
        <time>2021-11-12T22:15:18.938Z</time>
      </trkpt>
      <trkpt lat="47.482704" lon="7.982687">
        <ele>398.701578</ele>
        <time>2021-11-12T22:15:20.510Z</time>
      </trkpt>
      <trkpt lat="47.482729" lon="7.982770">
        <ele>398.611069</ele>
        <time>2021-11-12T22:15:21.198Z</time>
      </trkpt>
      <trkpt lat="47.482840" lon="7.983205">
        <ele>398.147943</ele>
        <time>2021-11-12T22:15:25.020Z</time>
      </trkpt>
      <trkpt lat="47.482897" lon="7.983529">
        <ele>397.814478</ele>
        <time>2021-11-12T22:15:27.636Z</time>
      </trkpt>
      <trkpt lat="47.483001" lon="7.984129">
        <ele>397.197524</ele>
        <time>2021-11-12T22:15:32.446Z</time>
      </trkpt>
      <trkpt lat="47.483130" lon="7.984873">
        <ele>396.432487</ele>
        <time>2021-11-12T22:15:38.234Z</time>
      </trkpt>
      <trkpt lat="47.483153" lon="7.984996">
        <ele>396.296352</ele>
        <time>2021-11-12T22:15:39.184Z</time>
      </trkpt>
      <trkpt lat="47.483173" lon="7.985106">
        <ele>396.150021</ele>
        <time>2021-11-12T22:15:40.074Z</time>
      </trkpt>
      <trkpt lat="47.483274" lon="7.985553">
        <ele>395.544561</ele>
        <time>2021-11-12T22:15:43.653Z</time>
      </trkpt>
      <trkpt lat="47.483382" lon="7.985915">
        <ele>395.036239</ele>
        <time>2021-11-12T22:15:46.702Z</time>
      </trkpt>
      <trkpt lat="47.483462" lon="7.986151">
        <ele>394.697074</ele>
        <time>2021-11-12T22:15:48.707Z</time>
      </trkpt>
      <trkpt lat="47.483550" lon="7.986378">
        <ele>394.360901</ele>
        <time>2021-11-12T22:15:50.677Z</time>
      </trkpt>
      <trkpt lat="47.483718" lon="7.986775">
        <ele>393.759186</ele>
        <time>2021-11-12T22:15:54.181Z</time>
      </trkpt>
      <trkpt lat="47.483775" lon="7.986910">
        <ele>393.554703</ele>
        <time>2021-11-12T22:15:55.329Z</time>
      </trkpt>
      <trkpt lat="47.484569" lon="7.988582">
        <ele>390.971581</ele>
        <time>2021-11-12T22:16:10.239Z</time>
      </trkpt>
      <trkpt lat="47.485480" lon="7.990116">
        <ele>388.982344</ele>
        <time>2021-11-12T22:16:26.276Z</time>
      </trkpt>
      <trkpt lat="47.485638" lon="7.990371">
        <ele>388.763012</ele>
        <time>2021-11-12T22:16:29.134Z</time>
      </trkpt>
      <trkpt lat="47.485781" lon="7.990604">
        <ele>388.563469</ele>
        <time>2021-11-12T22:16:31.759Z</time>
      </trkpt>
      <trkpt lat="47.486196" lon="7.991276">
        <ele>387.986339</ele>
        <time>2021-11-12T22:16:39.730Z</time>
      </trkpt>
      <trkpt lat="47.486319" lon="7.991471">
        <ele>387.839170</ele>
        <time>2021-11-12T22:16:42.169Z</time>
      </trkpt>
      <trkpt lat="47.486334" lon="7.991668">
        <ele>387.755161</ele>
        <time>2021-11-12T22:16:44.720Z</time>
      </trkpt>
      <trkpt lat="47.486383" lon="7.991737">
        <ele>387.712745</ele>
        <time>2021-11-12T22:16:46.004Z</time>
      </trkpt>
      <trkpt lat="47.486636" lon="7.992126">
        <ele>387.483959</ele>
        <time>2021-11-12T22:16:53.110Z</time>
      </trkpt>
      <trkpt lat="47.487213" lon="7.993014">
        <ele>386.961929</ele>
        <time>2021-11-12T22:17:08.365Z</time>
      </trkpt>
      <trkpt lat="47.487633" lon="7.993524">
        <ele>386.434011</ele>
        <time>2021-11-12T22:17:17.735Z</time>
      </trkpt>
      <trkpt lat="47.488246" lon="7.994102">
        <ele>385.342634</ele>
        <time>2021-11-12T22:17:29.791Z</time>
      </trkpt>
      <trkpt lat="47.488959" lon="7.994757">
        <ele>384.082563</ele>
        <time>2021-11-12T22:17:43.329Z</time>
      </trkpt>
      <trkpt lat="47.489284" lon="7.995053">
        <ele>383.383154</ele>
        <time>2021-11-12T22:17:49.454Z</time>
      </trkpt>
      <trkpt lat="47.490780" lon="7.996642">
        <ele>379.860852</ele>
        <time>2021-11-12T22:18:18.773Z</time>
      </trkpt>
      <trkpt lat="47.491680" lon="7.997343">
        <ele>377.688129</ele>
        <time>2021-11-12T22:18:34.583Z</time>
      </trkpt>
      <trkpt lat="47.491748" lon="7.997367">
        <ele>377.538785</ele>
        <time>2021-11-12T22:18:35.546Z</time>
      </trkpt>
      <trkpt lat="47.491854" lon="7.997405">
        <ele>377.305785</ele>
        <time>2021-11-12T22:18:37.272Z</time>
      </trkpt>
      <trkpt lat="47.491886" lon="7.997365">
        <ele>377.216301</ele>
        <time>2021-11-12T22:18:37.902Z</time>
      </trkpt>
      <trkpt lat="47.492317" lon="7.997637">
        <ele>376.330502</ele>
        <time>2021-11-12T22:18:42.977Z</time>
      </trkpt>
      <trkpt lat="47.492477" lon="7.997747">
        <ele>376.018374</ele>
        <time>2021-11-12T22:18:44.854Z</time>
      </trkpt>
      <trkpt lat="47.492617" lon="7.997908">
        <ele>375.704696</ele>
        <time>2021-11-12T22:18:46.813Z</time>
      </trkpt>
      <trkpt lat="47.492722" lon="7.998050">
        <ele>375.453049</ele>
        <time>2021-11-12T22:18:48.324Z</time>
      </trkpt>
      <trkpt lat="47.492747" lon="7.998084">
        <ele>375.392980</ele>
        <time>2021-11-12T22:18:48.713Z</time>
      </trkpt>
      <trkpt lat="47.492877" lon="7.998257">
        <ele>375.083674</ele>
        <time>2021-11-12T22:18:50.648Z</time>
      </trkpt>
      <trkpt lat="47.493144" lon="7.998645">
        <ele>374.421646</ele>
        <time>2021-11-12T22:18:54.780Z</time>
      </trkpt>
      <trkpt lat="47.493296" lon="7.998833">
        <ele>374.071179</ele>
        <time>2021-11-12T22:18:57.251Z</time>
      </trkpt>
      <trkpt lat="47.493358" lon="7.998911">
        <ele>373.927212</ele>
        <time>2021-11-12T22:18:58.192Z</time>
      </trkpt>
      <trkpt lat="47.493433" lon="7.998996">
        <ele>373.760083</ele>
        <time>2021-11-12T22:18:59.422Z</time>
      </trkpt>
      <trkpt lat="47.493502" lon="7.999071">
        <ele>373.683124</ele>
        <time>2021-11-12T22:19:00.567Z</time>
      </trkpt>
      <trkpt lat="47.493603" lon="7.999152">
        <ele>373.639665</ele>
        <time>2021-11-12T22:19:01.988Z</time>
      </trkpt>
      <trkpt lat="47.493742" lon="7.999216">
        <ele>373.584593</ele>
        <time>2021-11-12T22:19:03.825Z</time>
      </trkpt>
      <trkpt lat="47.493937" lon="7.999285">
        <ele>373.508742</ele>
        <time>2021-11-12T22:19:06.466Z</time>
      </trkpt>
      <trkpt lat="47.493961" lon="7.999292">
        <ele>373.499487</ele>
        <time>2021-11-12T22:19:06.771Z</time>
      </trkpt>
      <trkpt lat="47.493961" lon="7.999292">
        <ele>373.499487</ele>
        <time>2021-11-12T22:19:06.775Z</time>
      </trkpt>
      <trkpt lat="47.494253" lon="7.999376">
        <ele>373.386951</ele>
        <time>2021-11-12T22:19:11.068Z</time>
      </trkpt>
      <trkpt lat="47.494272" lon="7.999381">
        <ele>373.379651</ele>
        <time>2021-11-12T22:19:11.300Z</time>
      </trkpt>
      <trkpt lat="47.494489" lon="7.999417">
        <ele>373.297042</ele>
        <time>2021-11-12T22:19:14.648Z</time>
      </trkpt>
      <trkpt lat="47.494643" lon="7.999430">
        <ele>373.238686</ele>
        <time>2021-11-12T22:19:16.989Z</time>
      </trkpt>
      <trkpt lat="47.494812" lon="7.999457">
        <ele>373.174379</ele>
        <time>2021-11-12T22:19:19.470Z</time>
      </trkpt>
      <trkpt lat="47.495197" lon="7.999589">
        <ele>373.024870</ele>
        <time>2021-11-12T22:19:25.031Z</time>
      </trkpt>
      <trkpt lat="47.495430" lon="7.999752">
        <ele>372.802824</ele>
        <time>2021-11-12T22:19:28.490Z</time>
      </trkpt>
      <trkpt lat="47.495718" lon="8.000005">
        <ele>372.510984</ele>
        <time>2021-11-12T22:19:32.938Z</time>
      </trkpt>
      <trkpt lat="47.496011" lon="8.000286">
        <ele>372.206750</ele>
        <time>2021-11-12T22:19:37.400Z</time>
      </trkpt>
      <trkpt lat="47.496234" lon="8.000584">
        <ele>371.944943</ele>
        <time>2021-11-12T22:19:41.066Z</time>
      </trkpt>
      <trkpt lat="47.496272" lon="8.000651">
        <ele>371.893440</ele>
        <time>2021-11-12T22:19:41.918Z</time>
      </trkpt>
      <trkpt lat="47.496280" lon="8.000664">
        <ele>371.883088</ele>
        <time>2021-11-12T22:19:42.053Z</time>
      </trkpt>
      <trkpt lat="47.496429" lon="8.000925">
        <ele>371.681915</ele>
        <time>2021-11-12T22:19:44.724Z</time>
      </trkpt>
      <trkpt lat="47.496517" lon="8.001077">
        <ele>371.564065</ele>
        <time>2021-11-12T22:19:46.431Z</time>
      </trkpt>
      <trkpt lat="47.496533" lon="8.001104">
        <ele>371.542920</ele>
        <time>2021-11-12T22:19:46.683Z</time>
      </trkpt>
      <trkpt lat="47.496535" lon="8.001108">
        <ele>371.539991</ele>
        <time>2021-11-12T22:19:46.723Z</time>
      </trkpt>
      <trkpt lat="47.496585" lon="8.001187">
        <ele>371.476260</ele>
        <time>2021-11-12T22:19:47.520Z</time>
      </trkpt>
      <trkpt lat="47.496820" lon="8.001547">
        <ele>370.895754</ele>
        <time>2021-11-12T22:19:51.413Z</time>
      </trkpt>
      <trkpt lat="47.496861" lon="8.001608">
        <ele>370.792268</ele>
        <time>2021-11-12T22:19:52.046Z</time>
      </trkpt>
      <trkpt lat="47.496908" lon="8.001680">
        <ele>370.671857</ele>
        <time>2021-11-12T22:19:52.810Z</time>
      </trkpt>
      <trkpt lat="47.496932" lon="8.001715">
        <ele>370.611880</ele>
        <time>2021-11-12T22:19:53.176Z</time>
      </trkpt>
      <trkpt lat="47.497207" lon="8.002132">
        <ele>369.911040</ele>
        <time>2021-11-12T22:19:57.476Z</time>
      </trkpt>
      <trkpt lat="47.497264" lon="8.002219">
        <ele>369.765286</ele>
        <time>2021-11-12T22:19:58.418Z</time>
      </trkpt>
      <trkpt lat="47.497307" lon="8.002279">
        <ele>369.660088</ele>
        <time>2021-11-12T22:19:59.051Z</time>
      </trkpt>
      <trkpt lat="47.497390" lon="8.002409">
        <ele>369.444969</ele>
        <time>2021-11-12T22:20:00.413Z</time>
      </trkpt>
      <trkpt lat="47.497540" lon="8.002634">
        <ele>369.064801</ele>
        <time>2021-11-12T22:20:02.813Z</time>
      </trkpt>
      <trkpt lat="47.497607" lon="8.002710">
        <ele>368.914535</ele>
        <time>2021-11-12T22:20:03.731Z</time>
      </trkpt>
      <trkpt lat="47.497951" lon="8.003094">
        <ele>368.151022</ele>
        <time>2021-11-12T22:20:08.603Z</time>
      </trkpt>
      <trkpt lat="47.498072" lon="8.003250">
        <ele>367.874734</ele>
        <time>2021-11-12T22:20:10.334Z</time>
      </trkpt>
      <trkpt lat="47.498166" lon="8.003383">
        <ele>367.650835</ele>
        <time>2021-11-12T22:20:11.813Z</time>
      </trkpt>
      <trkpt lat="47.498213" lon="8.003454">
        <ele>367.535206</ele>
        <time>2021-11-12T22:20:12.579Z</time>
      </trkpt>
      <trkpt lat="47.498450" lon="8.003874">
        <ele>366.898641</ele>
        <time>2021-11-12T22:20:16.668Z</time>
      </trkpt>
      <trkpt lat="47.498698" lon="8.004313">
        <ele>366.232974</ele>
        <time>2021-11-12T22:20:20.910Z</time>
      </trkpt>
      <trkpt lat="47.498753" lon="8.004410">
        <ele>366.085667</ele>
        <time>2021-11-12T22:20:21.820Z</time>
      </trkpt>
      <trkpt lat="47.498898" lon="8.004636">
        <ele>365.723117</ele>
        <time>2021-11-12T22:20:24.313Z</time>
      </trkpt>
      <trkpt lat="47.498965" lon="8.004710">
        <ele>365.579181</ele>
        <time>2021-11-12T22:20:25.255Z</time>
      </trkpt>
      <trkpt lat="47.499012" lon="8.004762">
        <ele>365.478148</ele>
        <time>2021-11-12T22:20:25.907Z</time>
      </trkpt>
      <trkpt lat="47.499183" lon="8.004875">
        <ele>365.156255</ele>
        <time>2021-11-12T22:20:28.184Z</time>
      </trkpt>
      <trkpt lat="47.499409" lon="8.005000">
        <ele>364.930874</ele>
        <time>2021-11-12T22:20:31.033Z</time>
      </trkpt>
      <trkpt lat="47.499496" lon="8.005059">
        <ele>364.841477</ele>
        <time>2021-11-12T22:20:32.203Z</time>
      </trkpt>
      <trkpt lat="47.499523" lon="8.005078">
        <ele>364.813549</ele>
        <time>2021-11-12T22:20:32.545Z</time>
      </trkpt>
      <trkpt lat="47.499770" lon="8.005268">
        <ele>364.553509</ele>
        <time>2021-11-12T22:20:35.868Z</time>
      </trkpt>
      <trkpt lat="47.499856" lon="8.005338">
        <ele>364.461825</ele>
        <time>2021-11-12T22:20:37.030Z</time>
      </trkpt>
      <trkpt lat="47.499880" lon="8.005358">
        <ele>364.436096</ele>
        <time>2021-11-12T22:20:37.344Z</time>
      </trkpt>
      <trkpt lat="47.499991" lon="8.005468">
        <ele>364.311309</ele>
        <time>2021-11-12T22:20:38.919Z</time>
      </trkpt>
      <trkpt lat="47.500009" lon="8.005488">
        <ele>364.290283</ele>
        <time>2021-11-12T22:20:39.210Z</time>
      </trkpt>
      <trkpt lat="47.500207" lon="8.005727">
        <ele>364.051612</ele>
        <time>2021-11-12T22:20:42.371Z</time>
      </trkpt>
      <trkpt lat="47.500252" lon="8.005784">
        <ele>363.996283</ele>
        <time>2021-11-12T22:20:43.156Z</time>
      </trkpt>
      <trkpt lat="47.500310" lon="8.005852">
        <ele>363.927164</ele>
        <time>2021-11-12T22:20:44.084Z</time>
      </trkpt>
      <trkpt lat="47.500540" lon="8.006079">
        <ele>363.668922</ele>
        <time>2021-11-12T22:20:47.650Z</time>
      </trkpt>
      <trkpt lat="47.500647" lon="8.006180">
        <ele>363.550371</ele>
        <time>2021-11-12T22:20:49.357Z</time>
      </trkpt>
      <trkpt lat="47.500764" lon="8.006290">
        <ele>363.444580</ele>
        <time>2021-11-12T22:20:51.121Z</time>
      </trkpt>
      <trkpt lat="47.500997" lon="8.006551">
        <ele>363.287580</ele>
        <time>2021-11-12T22:20:55.239Z</time>
      </trkpt>
      <trkpt lat="47.501276" lon="8.006911">
        <ele>363.088710</ele>
        <time>2021-11-12T22:21:00.667Z</time>
      </trkpt>
      <trkpt lat="47.501293" lon="8.006936">
        <ele>363.075835</ele>
        <time>2021-11-12T22:21:00.992Z</time>
      </trkpt>
      <trkpt lat="47.501496" lon="8.007247">
        <ele>362.918860</ele>
        <time>2021-11-12T22:21:04.946Z</time>
      </trkpt>
      <trkpt lat="47.501537" lon="8.007308">
        <ele>362.887625</ele>
        <time>2021-11-12T22:21:05.690Z</time>
      </trkpt>
      <trkpt lat="47.501943" lon="8.008353">
        <ele>362.318404</ele>
        <time>2021-11-12T22:21:16.163Z</time>
      </trkpt>
      <trkpt lat="47.502062" lon="8.008650">
        <ele>361.918881</ele>
        <time>2021-11-12T22:21:19.102Z</time>
      </trkpt>
      <trkpt lat="47.502158" lon="8.008808">
        <ele>361.673015</ele>
        <time>2021-11-12T22:21:20.646Z</time>
      </trkpt>
      <trkpt lat="47.502267" lon="8.008979">
        <ele>361.401000</ele>
        <time>2021-11-12T22:21:22.585Z</time>
      </trkpt>
      <trkpt lat="47.502773" lon="8.009928">
        <ele>360.002227</ele>
        <time>2021-11-12T22:21:31.865Z</time>
      </trkpt>
      <trkpt lat="47.502959" lon="8.010415">
        <ele>359.320230</ele>
        <time>2021-11-12T22:21:35.778Z</time>
      </trkpt>
      <trkpt lat="47.502991" lon="8.010405">
        <ele>359.238219</ele>
        <time>2021-11-12T22:21:36.070Z</time>
      </trkpt>
      <trkpt lat="47.503467" lon="8.010296">
        <ele>358.030424</ele>
        <time>2021-11-12T22:21:41.061Z</time>
      </trkpt>
      <trkpt lat="47.504018" lon="8.010447">
        <ele>356.625281</ele>
        <time>2021-11-12T22:21:46.993Z</time>
      </trkpt>
      <trkpt lat="47.504178" lon="8.010516">
        <ele>356.207393</ele>
        <time>2021-11-12T22:21:48.642Z</time>
      </trkpt>
      <trkpt lat="47.504256" lon="8.010566">
        <ele>355.994252</ele>
        <time>2021-11-12T22:21:49.526Z</time>
      </trkpt>
      <trkpt lat="47.504446" lon="8.010688">
        <ele>355.474926</ele>
        <time>2021-11-12T22:21:51.729Z</time>
      </trkpt>
      <trkpt lat="47.505237" lon="8.011270">
        <ele>354.494653</ele>
        <time>2021-11-12T22:22:01.731Z</time>
      </trkpt>
      <trkpt lat="47.505388" lon="8.011390">
        <ele>354.384619</ele>
        <time>2021-11-12T22:22:03.936Z</time>
      </trkpt>
      <trkpt lat="47.505808" lon="8.011926">
        <ele>354.028593</ele>
        <time>2021-11-12T22:22:11.758Z</time>
      </trkpt>
      <trkpt lat="47.506101" lon="8.012240">
        <ele>353.796357</ele>
        <time>2021-11-12T22:22:18.142Z</time>
      </trkpt>
      <trkpt lat="47.506308" lon="8.012429">
        <ele>353.849507</ele>
        <time>2021-11-12T22:22:22.468Z</time>
      </trkpt>
      <trkpt lat="47.506346" lon="8.012464">
        <ele>353.869045</ele>
        <time>2021-11-12T22:22:23.241Z</time>
      </trkpt>
      <trkpt lat="47.506389" lon="8.012514">
        <ele>353.892916</ele>
        <time>2021-11-12T22:22:24.192Z</time>
      </trkpt>
      <trkpt lat="47.506472" lon="8.012743">
        <ele>353.969556</ele>
        <time>2021-11-12T22:22:27.280Z</time>
      </trkpt>
      <trkpt lat="47.506492" lon="8.012798">
        <ele>353.987977</ele>
        <time>2021-11-12T22:22:28.083Z</time>
      </trkpt>
      <trkpt lat="47.506533" lon="8.012868">
        <ele>354.015300</ele>
        <time>2021-11-12T22:22:29.077Z</time>
      </trkpt>
      <trkpt lat="47.506633" lon="8.012949">
        <ele>354.065064</ele>
        <time>2021-11-12T22:22:30.950Z</time>
      </trkpt>
      <trkpt lat="47.506663" lon="8.012973">
        <ele>354.079951</ele>
        <time>2021-11-12T22:22:31.467Z</time>
      </trkpt>
      <trkpt lat="47.506697" lon="8.013001">
        <ele>354.096937</ele>
        <time>2021-11-12T22:22:32.055Z</time>
      </trkpt>
      <trkpt lat="47.506760" lon="8.013057">
        <ele>354.129017</ele>
        <time>2021-11-12T22:22:33.237Z</time>
      </trkpt>
      <trkpt lat="47.506825" lon="8.013107">
        <ele>354.160997</ele>
        <time>2021-11-12T22:22:34.432Z</time>
      </trkpt>
      <trkpt lat="47.506890" lon="8.013159">
        <ele>354.193252</ele>
        <time>2021-11-12T22:22:35.614Z</time>
      </trkpt>
      <trkpt lat="47.506929" lon="8.013191">
        <ele>354.212718</ele>
        <time>2021-11-12T22:22:36.262Z</time>
      </trkpt>
      <trkpt lat="47.506955" lon="8.013213">
        <ele>354.225792</ele>
        <time>2021-11-12T22:22:36.695Z</time>
      </trkpt>
      <trkpt lat="47.506989" lon="8.013246">
        <ele>354.243541</ele>
        <time>2021-11-12T22:22:37.293Z</time>
      </trkpt>
      <trkpt lat="47.507007" lon="8.013263">
        <ele>354.252863</ele>
        <time>2021-11-12T22:22:37.602Z</time>
      </trkpt>
      <trkpt lat="47.507038" lon="8.013279">
        <ele>354.267195</ele>
        <time>2021-11-12T22:22:38.127Z</time>
      </trkpt>
      <trkpt lat="47.507084" lon="8.013290">
        <ele>354.287538</ele>
        <time>2021-11-12T22:22:38.806Z</time>
      </trkpt>
      <trkpt lat="47.507106" lon="8.013288">
        <ele>354.297160</ele>
        <time>2021-11-12T22:22:39.171Z</time>
      </trkpt>
      <trkpt lat="47.507191" lon="8.013279">
        <ele>354.334363</ele>
        <time>2021-11-12T22:22:40.618Z</time>
      </trkpt>
      <trkpt lat="47.507231" lon="8.013292">
        <ele>354.352242</ele>
        <time>2021-11-12T22:22:41.303Z</time>
      </trkpt>
      <trkpt lat="47.507559" lon="8.013585">
        <ele>354.519485</ele>
        <time>2021-11-12T22:22:47.682Z</time>
      </trkpt>
      <trkpt lat="47.507595" lon="8.013616">
        <ele>354.537667</ele>
        <time>2021-11-12T22:22:48.278Z</time>
      </trkpt>
      <trkpt lat="47.508011" lon="8.013995">
        <ele>355.002408</ele>
        <time>2021-11-12T22:22:56.622Z</time>
      </trkpt>
      <trkpt lat="47.508075" lon="8.014054">
        <ele>355.076528</ele>
        <time>2021-11-12T22:22:57.929Z</time>
      </trkpt>
      <trkpt lat="47.508214" lon="8.014183">
        <ele>355.237809</ele>
        <time>2021-11-12T22:23:00.895Z</time>
      </trkpt>
      <trkpt lat="47.508281" lon="8.014277">
        <ele>355.328557</ele>
        <time>2021-11-12T22:23:02.401Z</time>
      </trkpt>
      <trkpt lat="47.508333" lon="8.014419">
        <ele>355.435820</ele>
        <time>2021-11-12T22:23:04.633Z</time>
      </trkpt>
      <trkpt lat="47.508375" lon="8.014403">
        <ele>355.478455</ele>
        <time>2021-11-12T22:23:05.680Z</time>
      </trkpt>
      <trkpt lat="47.508562" lon="8.014341">
        <ele>355.666848</ele>
        <time>2021-11-12T22:23:08.808Z</time>
      </trkpt>
      <trkpt lat="47.508646" lon="8.014383">
        <ele>355.754011</ele>
        <time>2021-11-12T22:23:10.691Z</time>
      </trkpt>
      <trkpt lat="47.508749" lon="8.014436">
        <ele>355.861212</ele>
        <time>2021-11-12T22:23:13.004Z</time>
      </trkpt>
      <trkpt lat="47.509142" lon="8.014737">
        <ele>356.296211</ele>
        <time>2021-11-12T22:23:21.853Z</time>
      </trkpt>
      <trkpt lat="47.509444" lon="8.014982">
        <ele>356.533818</ele>
        <time>2021-11-12T22:23:29.528Z</time>
      </trkpt>
      <trkpt lat="47.509546" lon="8.015060">
        <ele>356.610685</ele>
        <time>2021-11-12T22:23:31.716Z</time>
      </trkpt>
      <trkpt lat="47.509612" lon="8.015079">
        <ele>356.655703</ele>
        <time>2021-11-12T22:23:33.450Z</time>
      </trkpt>
      <trkpt lat="47.509686" lon="8.015069">
        <ele>356.705456</ele>
        <time>2021-11-12T22:23:35.333Z</time>
      </trkpt>
      <trkpt lat="47.509799" lon="8.014989">
        <ele>356.789321</ele>
        <time>2021-11-12T22:23:37.824Z</time>
      </trkpt>
      <trkpt lat="47.509823" lon="8.014904">
        <ele>356.830987</ele>
        <time>2021-11-12T22:23:38.949Z</time>
      </trkpt>
      <trkpt lat="47.509891" lon="8.014585">
        <ele>356.982271</ele>
        <time>2021-11-12T22:23:43.781Z</time>
      </trkpt>
      <trkpt lat="47.509928" lon="8.014411">
        <ele>357.064771</ele>
        <time>2021-11-12T22:23:45.735Z</time>
      </trkpt>
      <trkpt lat="47.510028" lon="8.013857">
        <ele>357.324114</ele>
        <time>2021-11-12T22:23:51.351Z</time>
      </trkpt>
      <trkpt lat="47.510139" lon="8.013722">
        <ele>357.420297</ele>
        <time>2021-11-12T22:23:53.704Z</time>
      </trkpt>
      <trkpt lat="47.510195" lon="8.013657">
        <ele>357.467942</ele>
        <time>2021-11-12T22:23:54.536Z</time>
      </trkpt>
      <trkpt lat="47.510610" lon="8.013245">
        <ele>356.853331</ele>
        <time>2021-11-12T22:24:00.360Z</time>
      </trkpt>
      <trkpt lat="47.511060" lon="8.012793">
        <ele>355.982955</ele>
        <time>2021-11-12T22:24:06.651Z</time>
      </trkpt>
      <trkpt lat="47.511153" lon="8.012630">
        <ele>355.752281</ele>
        <time>2021-11-12T22:24:08.136Z</time>
      </trkpt>
      <trkpt lat="47.511240" lon="8.012453">
        <ele>355.515623</ele>
        <time>2021-11-12T22:24:09.911Z</time>
      </trkpt>
      <trkpt lat="47.511339" lon="8.012189">
        <ele>355.189178</ele>
        <time>2021-11-12T22:24:12.026Z</time>
      </trkpt>
      <trkpt lat="47.511369" lon="8.012112">
        <ele>355.093078</ele>
        <time>2021-11-12T22:24:12.679Z</time>
      </trkpt>
      <trkpt lat="47.511458" lon="8.011851">
        <ele>354.776993</ele>
        <time>2021-11-12T22:24:14.884Z</time>
      </trkpt>
      <trkpt lat="47.511540" lon="8.011609">
        <ele>354.583381</ele>
        <time>2021-11-12T22:24:16.815Z</time>
      </trkpt>
      <trkpt lat="47.511725" lon="8.011067">
        <ele>354.334957</ele>
        <time>2021-11-12T22:24:21.468Z</time>
      </trkpt>
      <trkpt lat="47.511743" lon="8.011016">
        <ele>354.311418</ele>
        <time>2021-11-12T22:24:22.128Z</time>
      </trkpt>
      <trkpt lat="47.511819" lon="8.010960">
        <ele>354.260003</ele>
        <time>2021-11-12T22:24:23.546Z</time>
      </trkpt>
      <trkpt lat="47.512231" lon="8.010689">
        <ele>353.986958</ele>
        <time>2021-11-12T22:24:31.913Z</time>
      </trkpt>
      <trkpt lat="47.512828" lon="8.010284">
        <ele>353.589237</ele>
        <time>2021-11-12T22:24:46.330Z</time>
      </trkpt>
      <trkpt lat="47.513001" lon="8.010158">
        <ele>353.507675</ele>
        <time>2021-11-12T22:24:50.428Z</time>
      </trkpt>
      <trkpt lat="47.513230" lon="8.010045">
        <ele>353.424337</ele>
        <time>2021-11-12T22:24:55.679Z</time>
      </trkpt>
      <trkpt lat="47.513914" lon="8.009618">
        <ele>353.168052</ele>
        <time>2021-11-12T22:25:10.611Z</time>
      </trkpt>
      <trkpt lat="47.514240" lon="8.009205">
        <ele>353.019921</ele>
        <time>2021-11-12T22:25:18.383Z</time>
      </trkpt>
      <trkpt lat="47.514604" lon="8.008601">
        <ele>352.209099</ele>
        <time>2021-11-12T22:25:27.522Z</time>
      </trkpt>
      <trkpt lat="47.514868" lon="8.008490">
        <ele>351.537682</ele>
        <time>2021-11-12T22:25:31.884Z</time>
      </trkpt>
      <trkpt lat="47.515308" lon="8.008471">
        <ele>350.460759</ele>
        <time>2021-11-12T22:25:38.778Z</time>
      </trkpt>
      <trkpt lat="47.515777" lon="8.008451">
        <ele>349.312870</ele>
        <time>2021-11-12T22:25:45.621Z</time>
      </trkpt>
      <trkpt lat="47.516279" lon="8.008426">
        <ele>347.981945</ele>
        <time>2021-11-12T22:25:52.806Z</time>
      </trkpt>
      <trkpt lat="47.516778" lon="8.008407">
        <ele>346.483052</ele>
        <time>2021-11-12T22:25:59.977Z</time>
      </trkpt>
      <trkpt lat="47.516850" lon="8.008403">
        <ele>346.266698</ele>
        <time>2021-11-12T22:26:00.979Z</time>
      </trkpt>
      <trkpt lat="47.516886" lon="8.008468">
        <ele>346.096221</ele>
        <time>2021-11-12T22:26:01.739Z</time>
      </trkpt>
      <trkpt lat="47.516966" lon="8.008595">
        <ele>345.744023</ele>
        <time>2021-11-12T22:26:03.521Z</time>
      </trkpt>
      <trkpt lat="47.517345" lon="8.009165">
        <ele>344.121856</ele>
        <time>2021-11-12T22:26:11.517Z</time>
      </trkpt>
      <trkpt lat="47.517409" lon="8.009275">
        <ele>343.827412</ele>
        <time>2021-11-12T22:26:12.933Z</time>
      </trkpt>
      <trkpt lat="47.517508" lon="8.009440">
        <ele>343.379815</ele>
        <time>2021-11-12T22:26:15.356Z</time>
      </trkpt>
      <trkpt lat="47.517564" lon="8.009350">
        <ele>343.131952</ele>
        <time>2021-11-12T22:26:16.648Z</time>
      </trkpt>
      <trkpt lat="47.517615" lon="8.009232">
        <ele>343.093179</ele>
        <time>2021-11-12T22:26:18.008Z</time>
      </trkpt>
      <trkpt lat="47.517791" lon="8.009018">
        <ele>342.999854</ele>
        <time>2021-11-12T22:26:21.876Z</time>
      </trkpt>
      <trkpt lat="47.517851" lon="8.008946">
        <ele>342.968205</ele>
        <time>2021-11-12T22:26:23.038Z</time>
      </trkpt>
      <trkpt lat="47.518239" lon="8.008485">
        <ele>342.764345</ele>
        <time>2021-11-12T22:26:31.587Z</time>
      </trkpt>
      <trkpt lat="47.518926" lon="8.007732">
        <ele>342.414077</ele>
        <time>2021-11-12T22:26:50.317Z</time>
      </trkpt>
      <trkpt lat="47.520956" lon="8.005345">
        <ele>346.264348</ele>
        <time>2021-11-12T22:28:03.091Z</time>
      </trkpt>
      <trkpt lat="47.521277" lon="8.005104">
        <ele>346.573264</ele>
        <time>2021-11-12T22:28:11.759Z</time>
      </trkpt>
      <trkpt lat="47.521327" lon="8.004951">
        <ele>346.671789</ele>
        <time>2021-11-12T22:28:14.303Z</time>
      </trkpt>
      <trkpt lat="47.521214" lon="8.004538">
        <ele>346.930086</ele>
        <time>2021-11-12T22:28:20.544Z</time>
      </trkpt>
      <trkpt lat="47.521488" lon="8.004236">
        <ele>347.076480</ele>
        <time>2021-11-12T22:28:26.724Z</time>
      </trkpt>
      <trkpt lat="47.521691" lon="8.004044">
        <ele>346.742344</ele>
        <time>2021-11-12T22:28:31.172Z</time>
      </trkpt>
      <trkpt lat="47.521941" lon="8.003805">
        <ele>346.329557</ele>
        <time>2021-11-12T22:28:36.107Z</time>
      </trkpt>
      <trkpt lat="47.522286" lon="8.003405">
        <ele>345.721740</ele>
        <time>2021-11-12T22:28:43.389Z</time>
      </trkpt>
      <trkpt lat="47.522593" lon="8.003040">
        <ele>345.175601</ele>
        <time>2021-11-12T22:28:49.533Z</time>
      </trkpt>
      <trkpt lat="47.522812" lon="8.002772">
        <ele>344.781499</ele>
        <time>2021-11-12T22:28:53.934Z</time>
      </trkpt>
      <trkpt lat="47.526232" lon="7.998874">
        <ele>338.555687</ele>
        <time>2021-11-12T22:30:04.659Z</time>
      </trkpt>
      <trkpt lat="47.526462" lon="7.998465">
        <ele>338.299507</ele>
        <time>2021-11-12T22:30:11.209Z</time>
      </trkpt>
      <trkpt lat="47.526659" lon="7.997896">
        <ele>337.991743</ele>
        <time>2021-11-12T22:30:19.220Z</time>
      </trkpt>
      <trkpt lat="47.527005" lon="7.997436">
        <ele>337.731280</ele>
        <time>2021-11-12T22:30:28.626Z</time>
      </trkpt>
      <trkpt lat="47.527061" lon="7.997361">
        <ele>337.732673</ele>
        <time>2021-11-12T22:30:30.358Z</time>
      </trkpt>
      <trkpt lat="47.527239" lon="7.997118">
        <ele>337.737139</ele>
        <time>2021-11-12T22:30:35.415Z</time>
      </trkpt>
      <trkpt lat="47.527390" lon="7.996879">
        <ele>337.741217</ele>
        <time>2021-11-12T22:30:41.082Z</time>
      </trkpt>
      <trkpt lat="47.528522" lon="7.994788">
        <ele>336.463878</ele>
        <time>2021-11-12T22:31:16.720Z</time>
      </trkpt>
      <trkpt lat="47.528851" lon="7.994185">
        <ele>335.412525</ele>
        <time>2021-11-12T22:31:24.550Z</time>
      </trkpt>
      <trkpt lat="47.529180" lon="7.994531">
        <ele>334.602098</ele>
        <time>2021-11-12T22:31:30.381Z</time>
      </trkpt>
      <trkpt lat="47.529261" lon="7.994394">
        <ele>334.355150</ele>
        <time>2021-11-12T22:31:31.637Z</time>
      </trkpt>
      <trkpt lat="47.529350" lon="7.994228">
        <ele>334.053235</ele>
        <time>2021-11-12T22:31:33.063Z</time>
      </trkpt>
      <trkpt lat="47.530141" lon="7.992757">
        <ele>331.056149</ele>
        <time>2021-11-12T22:31:45.819Z</time>
      </trkpt>
      <trkpt lat="47.530495" lon="7.992103">
        <ele>329.942000</ele>
        <time>2021-11-12T22:31:53.720Z</time>
      </trkpt>
      <trkpt lat="47.530776" lon="7.991586">
        <ele>330.156319</ele>
        <time>2021-11-12T22:32:01.047Z</time>
      </trkpt>
      <trkpt lat="47.530933" lon="7.991310">
        <ele>330.272858</ele>
        <time>2021-11-12T22:32:04.705Z</time>
      </trkpt>
      <trkpt lat="47.530979" lon="7.991211">
        <ele>330.311665</ele>
        <time>2021-11-12T22:32:06.236Z</time>
      </trkpt>
      <trkpt lat="47.531363" lon="7.990436">
        <ele>330.622080</ele>
        <time>2021-11-12T22:32:17.585Z</time>
      </trkpt>
      <trkpt lat="47.531667" lon="7.989873">
        <ele>330.956333</ele>
        <time>2021-11-12T22:32:27.405Z</time>
      </trkpt>
      <trkpt lat="47.531823" lon="7.989607">
        <ele>331.198357</ele>
        <time>2021-11-12T22:32:32.097Z</time>
      </trkpt>
      <trkpt lat="47.531897" lon="7.989450">
        <ele>331.329882</ele>
        <time>2021-11-12T22:32:34.624Z</time>
      </trkpt>
      <trkpt lat="47.532014" lon="7.989225">
        <ele>331.524962</ele>
        <time>2021-11-12T22:32:38.391Z</time>
      </trkpt>
      <trkpt lat="47.532299" lon="7.988577">
        <ele>332.056190</ele>
        <time>2021-11-12T22:32:48.187Z</time>
      </trkpt>
      <trkpt lat="47.532373" lon="7.988399">
        <ele>332.199780</ele>
        <time>2021-11-12T22:32:50.850Z</time>
      </trkpt>
      <trkpt lat="47.532401" lon="7.988331">
        <ele>332.254491</ele>
        <time>2021-11-12T22:32:51.841Z</time>
      </trkpt>
      <trkpt lat="47.532464" lon="7.988171">
        <ele>332.381720</ele>
        <time>2021-11-12T22:32:54.184Z</time>
      </trkpt>
      <trkpt lat="47.532544" lon="7.987973">
        <ele>332.540220</ele>
        <time>2021-11-12T22:32:56.979Z</time>
      </trkpt>
      <trkpt lat="47.532621" lon="7.987826">
        <ele>332.639825</ele>
        <time>2021-11-12T22:32:59.276Z</time>
      </trkpt>
      <trkpt lat="47.532716" lon="7.987667">
        <ele>332.729539</ele>
        <time>2021-11-12T22:33:01.845Z</time>
      </trkpt>
      <trkpt lat="47.532879" lon="7.987447">
        <ele>332.867552</ele>
        <time>2021-11-12T22:33:05.910Z</time>
      </trkpt>
      <trkpt lat="47.532888" lon="7.987434">
        <ele>332.875420</ele>
        <time>2021-11-12T22:33:06.149Z</time>
      </trkpt>
      <trkpt lat="47.533114" lon="7.987128">
        <ele>333.067052</ele>
        <time>2021-11-12T22:33:11.519Z</time>
      </trkpt>
      <trkpt lat="47.533208" lon="7.986980">
        <ele>333.152909</ele>
        <time>2021-11-12T22:33:14.020Z</time>
      </trkpt>
      <trkpt lat="47.533428" lon="7.986562">
        <ele>333.376855</ele>
        <time>2021-11-12T22:33:20.095Z</time>
      </trkpt>
      <trkpt lat="47.533546" lon="7.986336">
        <ele>333.497572</ele>
        <time>2021-11-12T22:33:23.107Z</time>
      </trkpt>
      <trkpt lat="47.533975" lon="7.985526">
        <ele>334.019489</ele>
        <time>2021-11-12T22:33:34.536Z</time>
      </trkpt>
      <trkpt lat="47.534197" lon="7.985105">
        <ele>334.337679</ele>
        <time>2021-11-12T22:33:40.708Z</time>
      </trkpt>
      <trkpt lat="47.534320" lon="7.984882">
        <ele>334.509200</ele>
        <time>2021-11-12T22:33:43.921Z</time>
      </trkpt>
      <trkpt lat="47.534722" lon="7.984096">
        <ele>335.096544</ele>
        <time>2021-11-12T22:33:56.298Z</time>
      </trkpt>
      <trkpt lat="47.534817" lon="7.983835">
        <ele>335.273159</ele>
        <time>2021-11-12T22:34:00.061Z</time>
      </trkpt>
      <trkpt lat="47.535231" lon="7.982582">
        <ele>337.132905</ele>
        <time>2021-11-12T22:34:22.001Z</time>
      </trkpt>
      <trkpt lat="47.535300" lon="7.982379">
        <ele>337.443067</ele>
        <time>2021-11-12T22:34:25.496Z</time>
      </trkpt>
      <trkpt lat="47.535328" lon="7.982298">
        <ele>337.567254</ele>
        <time>2021-11-12T22:34:26.903Z</time>
      </trkpt>
      <trkpt lat="47.535345" lon="7.982248">
        <ele>337.643653</ele>
        <time>2021-11-12T22:34:28.371Z</time>
      </trkpt>
      <trkpt lat="47.535452" lon="7.981933">
        <ele>338.124876</ele>
        <time>2021-11-12T22:34:33.962Z</time>
      </trkpt>
      <trkpt lat="47.535599" lon="7.981498">
        <ele>338.788729</ele>
        <time>2021-11-12T22:34:42.266Z</time>
      </trkpt>
      <trkpt lat="47.536061" lon="7.980200">
        <ele>339.403023</ele>
        <time>2021-11-12T22:35:03.595Z</time>
      </trkpt>
      <trkpt lat="47.536340" lon="7.979418">
        <ele>339.703476</ele>
        <time>2021-11-12T22:35:11.920Z</time>
      </trkpt>
      <trkpt lat="47.536403" lon="7.979241">
        <ele>339.771446</ele>
        <time>2021-11-12T22:35:13.544Z</time>
      </trkpt>
      <trkpt lat="47.536460" lon="7.979083">
        <ele>339.832299</ele>
        <time>2021-11-12T22:35:14.987Z</time>
      </trkpt>
      <trkpt lat="47.536866" lon="7.977996">
        <ele>337.960005</ele>
        <time>2021-11-12T22:35:24.214Z</time>
      </trkpt>
      <trkpt lat="47.537896" lon="7.975317">
        <ele>332.767566</ele>
        <time>2021-11-12T22:35:45.668Z</time>
      </trkpt>
      <trkpt lat="47.538106" lon="7.974772">
        <ele>331.650286</ele>
        <time>2021-11-12T22:35:50.191Z</time>
      </trkpt>
      <trkpt lat="47.538490" lon="7.973699">
        <ele>329.726040</ele>
        <time>2021-11-12T22:35:59.019Z</time>
      </trkpt>
      <trkpt lat="47.538687" lon="7.972850">
        <ele>328.397219</ele>
        <time>2021-11-12T22:36:05.591Z</time>
      </trkpt>
      <trkpt lat="47.538858" lon="7.971696">
        <ele>326.622624</ele>
        <time>2021-11-12T22:36:14.250Z</time>
      </trkpt>
      <trkpt lat="47.538935" lon="7.971210">
        <ele>325.821612</ele>
        <time>2021-11-12T22:36:17.901Z</time>
      </trkpt>
      <trkpt lat="47.538946" lon="7.971141">
        <ele>325.707852</ele>
        <time>2021-11-12T22:36:18.378Z</time>
      </trkpt>
      <trkpt lat="47.539014" lon="7.970688">
        <ele>324.963228</ele>
        <time>2021-11-12T22:36:21.711Z</time>
      </trkpt>
      <trkpt lat="47.539052" lon="7.970439">
        <ele>324.553609</ele>
        <time>2021-11-12T22:36:23.507Z</time>
      </trkpt>
      <trkpt lat="47.539144" lon="7.969781">
        <ele>323.475397</ele>
        <time>2021-11-12T22:36:28.316Z</time>
      </trkpt>
      <trkpt lat="47.539248" lon="7.969246">
        <ele>322.601766</ele>
        <time>2021-11-12T22:36:32.331Z</time>
      </trkpt>
      <trkpt lat="47.539403" lon="7.968640">
        <ele>321.769746</ele>
        <time>2021-11-12T22:36:37.079Z</time>
      </trkpt>
      <trkpt lat="47.539680" lon="7.967625">
        <ele>320.364130</ele>
        <time>2021-11-12T22:36:45.274Z</time>
      </trkpt>
      <trkpt lat="47.539909" lon="7.966784">
        <ele>319.213882</ele>
        <time>2021-11-12T22:36:52.129Z</time>
      </trkpt>
      <trkpt lat="47.540100" lon="7.966046">
        <ele>318.436397</ele>
        <time>2021-11-12T22:36:58.405Z</time>
      </trkpt>
      <trkpt lat="47.540200" lon="7.965632">
        <ele>318.003867</ele>
        <time>2021-11-12T22:37:01.922Z</time>
      </trkpt>
      <trkpt lat="47.540257" lon="7.965417">
        <ele>317.776650</ele>
        <time>2021-11-12T22:37:03.660Z</time>
      </trkpt>
      <trkpt lat="47.540467" lon="7.964759">
        <ele>317.060698</ele>
        <time>2021-11-12T22:37:09.402Z</time>
      </trkpt>
      <trkpt lat="47.540959" lon="7.963916">
        <ele>315.855845</ele>
        <time>2021-11-12T22:37:18.057Z</time>
      </trkpt>
      <trkpt lat="47.541019" lon="7.963815">
        <ele>315.702179</ele>
        <time>2021-11-12T22:37:19.008Z</time>
      </trkpt>
      <trkpt lat="47.541123" lon="7.963520">
        <ele>315.322060</ele>
        <time>2021-11-12T22:37:21.606Z</time>
      </trkpt>
      <trkpt lat="47.541217" lon="7.963187">
        <ele>314.909806</ele>
        <time>2021-11-12T22:37:24.363Z</time>
      </trkpt>
      <trkpt lat="47.541258" lon="7.962975">
        <ele>314.657927</ele>
        <time>2021-11-12T22:37:26.197Z</time>
      </trkpt>
      <trkpt lat="47.541293" lon="7.962730">
        <ele>314.371900</ele>
        <time>2021-11-12T22:37:28.041Z</time>
      </trkpt>
      <trkpt lat="47.541308" lon="7.962513">
        <ele>314.122755</ele>
        <time>2021-11-12T22:37:29.801Z</time>
      </trkpt>
      <trkpt lat="47.541314" lon="7.962377">
        <ele>313.967090</ele>
        <time>2021-11-12T22:37:30.868Z</time>
      </trkpt>
      <trkpt lat="47.541316" lon="7.962197">
        <ele>313.761474</ele>
        <time>2021-11-12T22:37:32.172Z</time>
      </trkpt>
      <trkpt lat="47.541242" lon="7.961294">
        <ele>312.103155</ele>
        <time>2021-11-12T22:37:38.819Z</time>
      </trkpt>
      <trkpt lat="47.541153" lon="7.960814">
        <ele>311.131352</ele>
        <time>2021-11-12T22:37:42.349Z</time>
      </trkpt>
      <trkpt lat="47.541060" lon="7.960321">
        <ele>310.132000</ele>
        <time>2021-11-12T22:37:45.939Z</time>
      </trkpt>
      <trkpt lat="47.541027" lon="7.959944">
        <ele>309.389825</ele>
        <time>2021-11-12T22:37:48.442Z</time>
      </trkpt>
      <trkpt lat="47.541019" lon="7.959792">
        <ele>309.092176</ele>
        <time>2021-11-12T22:37:49.486Z</time>
      </trkpt>
      <trkpt lat="47.541012" lon="7.959578">
        <ele>308.673895</ele>
        <time>2021-11-12T22:37:50.961Z</time>
      </trkpt>
      <trkpt lat="47.541016" lon="7.959388">
        <ele>308.285921</ele>
        <time>2021-11-12T22:37:52.164Z</time>
      </trkpt>
      <trkpt lat="47.541081" lon="7.958828">
        <ele>306.971717</ele>
        <time>2021-11-12T22:37:55.932Z</time>
      </trkpt>
      <trkpt lat="47.541226" lon="7.958150">
        <ele>305.326793</ele>
        <time>2021-11-12T22:38:00.693Z</time>
      </trkpt>
      <trkpt lat="47.541305" lon="7.957787">
        <ele>304.444679</ele>
        <time>2021-11-12T22:38:03.177Z</time>
      </trkpt>
      <trkpt lat="47.541355" lon="7.957559">
        <ele>303.890224</ele>
        <time>2021-11-12T22:38:04.879Z</time>
      </trkpt>
      <trkpt lat="47.541450" lon="7.956897">
        <ele>302.324912</ele>
        <time>2021-11-12T22:38:09.513Z</time>
      </trkpt>
      <trkpt lat="47.541464" lon="7.956698">
        <ele>302.109100</ele>
        <time>2021-11-12T22:38:10.919Z</time>
      </trkpt>
      <trkpt lat="47.541533" lon="7.955526">
        <ele>301.206583</ele>
        <time>2021-11-12T22:38:19.753Z</time>
      </trkpt>
      <trkpt lat="47.541554" lon="7.955311">
        <ele>301.039928</ele>
        <time>2021-11-12T22:38:21.790Z</time>
      </trkpt>
      <trkpt lat="47.541735" lon="7.953892">
        <ele>300.243487</ele>
        <time>2021-11-12T22:38:35.999Z</time>
      </trkpt>
      <trkpt lat="47.541773" lon="7.953695">
        <ele>300.277843</ele>
        <time>2021-11-12T22:38:38.247Z</time>
      </trkpt>
      <trkpt lat="47.541791" lon="7.953601">
        <ele>300.294227</ele>
        <time>2021-11-12T22:38:39.281Z</time>
      </trkpt>
      <trkpt lat="47.541991" lon="7.952667">
        <ele>300.458534</ele>
        <time>2021-11-12T22:38:50.137Z</time>
      </trkpt>
      <trkpt lat="47.542169" lon="7.951815">
        <ele>300.608085</ele>
        <time>2021-11-12T22:38:59.875Z</time>
      </trkpt>
      <trkpt lat="47.542192" lon="7.951713">
        <ele>300.626118</ele>
        <time>2021-11-12T22:39:01.138Z</time>
      </trkpt>
      <trkpt lat="47.542357" lon="7.951037">
        <ele>300.741387</ele>
        <time>2021-11-12T22:39:08.602Z</time>
      </trkpt>
      <trkpt lat="47.542444" lon="7.950687">
        <ele>300.800994</ele>
        <time>2021-11-12T22:39:12.433Z</time>
      </trkpt>
      <trkpt lat="47.542546" lon="7.950274">
        <ele>300.871276</ele>
        <time>2021-11-12T22:39:16.780Z</time>
      </trkpt>
      <trkpt lat="47.542554" lon="7.950231">
        <ele>300.878404</ele>
        <time>2021-11-12T22:39:17.267Z</time>
      </trkpt>
      <trkpt lat="47.542560" lon="7.950202">
        <ele>300.883252</ele>
        <time>2021-11-12T22:39:17.600Z</time>
      </trkpt>
      <trkpt lat="47.542609" lon="7.949914">
        <ele>300.930718</ele>
        <time>2021-11-12T22:39:20.599Z</time>
      </trkpt>
      <trkpt lat="47.542719" lon="7.949175">
        <ele>301.051657</ele>
        <time>2021-11-12T22:39:28.502Z</time>
      </trkpt>
      <trkpt lat="47.542826" lon="7.948298">
        <ele>301.758338</ele>
        <time>2021-11-12T22:39:39.445Z</time>
      </trkpt>
      <trkpt lat="47.542838" lon="7.948225">
        <ele>301.820964</ele>
        <time>2021-11-12T22:39:40.273Z</time>
      </trkpt>
      <trkpt lat="47.542875" lon="7.948001">
        <ele>302.013182</ele>
        <time>2021-11-12T22:39:43.156Z</time>
      </trkpt>
      <trkpt lat="47.542928" lon="7.947798">
        <ele>302.194602</ele>
        <time>2021-11-12T22:39:46.079Z</time>
      </trkpt>
      <trkpt lat="47.542957" lon="7.947651">
        <ele>302.322256</ele>
        <time>2021-11-12T22:39:47.787Z</time>
      </trkpt>
      <trkpt lat="47.543050" lon="7.947411">
        <ele>302.552919</ele>
        <time>2021-11-12T22:39:52.151Z</time>
      </trkpt>
      <trkpt lat="47.543087" lon="7.947317">
        <ele>302.643617</ele>
        <time>2021-11-12T22:39:53.430Z</time>
      </trkpt>
      <trkpt lat="47.543092" lon="7.947257">
        <ele>302.694008</ele>
        <time>2021-11-12T22:39:54.220Z</time>
      </trkpt>
      <trkpt lat="47.543097" lon="7.947186">
        <ele>302.753509</ele>
        <time>2021-11-12T22:39:55.069Z</time>
      </trkpt>
      <trkpt lat="47.543086" lon="7.947052">
        <ele>302.866024</ele>
        <time>2021-11-12T22:39:56.899Z</time>
      </trkpt>
      <trkpt lat="47.543056" lon="7.946935">
        <ele>302.970345</ele>
        <time>2021-11-12T22:39:59.266Z</time>
      </trkpt>
      <trkpt lat="47.543045" lon="7.946881">
        <ele>303.017360</ele>
        <time>2021-11-12T22:40:00.378Z</time>
      </trkpt>
      <trkpt lat="47.542982" lon="7.946547">
        <ele>303.317513</ele>
        <time>2021-11-12T22:40:04.977Z</time>
      </trkpt>
      <trkpt lat="47.542974" lon="7.946495">
        <ele>303.381495</ele>
        <time>2021-11-12T22:40:06.191Z</time>
      </trkpt>
      <trkpt lat="47.542960" lon="7.946400">
        <ele>303.498147</ele>
        <time>2021-11-12T22:40:08.027Z</time>
      </trkpt>
      <trkpt lat="47.542916" lon="7.945730">
        <ele>304.305719</ele>
        <time>2021-11-12T22:40:18.604Z</time>
      </trkpt>
      <trkpt lat="47.542913" lon="7.945267">
        <ele>304.861190</ele>
        <time>2021-11-12T22:40:26.090Z</time>
      </trkpt>
      <trkpt lat="47.543007" lon="7.943867">
        <ele>306.477763</ele>
        <time>2021-11-12T22:40:46.829Z</time>
      </trkpt>
      <trkpt lat="47.543161" lon="7.942213">
        <ele>306.479750</ele>
        <time>2021-11-12T22:41:05.235Z</time>
      </trkpt>
      <trkpt lat="47.543435" lon="7.940670">
        <ele>305.781744</ele>
        <time>2021-11-12T22:41:18.184Z</time>
      </trkpt>
      <trkpt lat="47.543826" lon="7.939433">
        <ele>304.335079</ele>
        <time>2021-11-12T22:41:28.585Z</time>
      </trkpt>
      <trkpt lat="47.544472" lon="7.937932">
        <ele>302.295719</ele>
        <time>2021-11-12T22:41:41.910Z</time>
      </trkpt>
      <trkpt lat="47.544705" lon="7.937395">
        <ele>301.533504</ele>
        <time>2021-11-12T22:41:46.791Z</time>
      </trkpt>
      <trkpt lat="47.544903" lon="7.936917">
        <ele>300.863880</ele>
        <time>2021-11-12T22:41:51.055Z</time>
      </trkpt>
      <trkpt lat="47.545074" lon="7.936484">
        <ele>300.327050</ele>
        <time>2021-11-12T22:41:54.882Z</time>
      </trkpt>
      <trkpt lat="47.545271" lon="7.935777">
        <ele>299.681113</ele>
        <time>2021-11-12T22:42:00.739Z</time>
      </trkpt>
      <trkpt lat="47.545414" lon="7.935264">
        <ele>299.212395</ele>
        <time>2021-11-12T22:42:04.970Z</time>
      </trkpt>
      <trkpt lat="47.545457" lon="7.935110">
        <ele>299.071654</ele>
        <time>2021-11-12T22:42:06.236Z</time>
      </trkpt>
      <trkpt lat="47.545674" lon="7.933625">
        <ele>298.473117</ele>
        <time>2021-11-12T22:42:19.361Z</time>
      </trkpt>
      <trkpt lat="47.545702" lon="7.933290">
        <ele>298.633182</ele>
        <time>2021-11-12T22:42:22.970Z</time>
      </trkpt>
      <trkpt lat="47.545724" lon="7.932758">
        <ele>298.885920</ele>
        <time>2021-11-12T22:42:29.017Z</time>
      </trkpt>
      <trkpt lat="47.545721" lon="7.931992">
        <ele>299.249150</ele>
        <time>2021-11-12T22:42:39.057Z</time>
      </trkpt>
      <trkpt lat="47.545696" lon="7.931497">
        <ele>299.484527</ele>
        <time>2021-11-12T22:42:46.263Z</time>
      </trkpt>
      <trkpt lat="47.545661" lon="7.930955">
        <ele>300.146103</ele>
        <time>2021-11-12T22:42:54.957Z</time>
      </trkpt>
      <trkpt lat="47.545563" lon="7.929641">
        <ele>301.775525</ele>
        <time>2021-11-12T22:43:17.297Z</time>
      </trkpt>
      <trkpt lat="47.545475" lon="7.928419">
        <ele>302.371853</ele>
        <time>2021-11-12T22:43:33.600Z</time>
      </trkpt>
      <trkpt lat="47.545421" lon="7.927686">
        <ele>301.661470</ele>
        <time>2021-11-12T22:43:39.703Z</time>
      </trkpt>
      <trkpt lat="47.545406" lon="7.927306">
        <ele>301.294743</ele>
        <time>2021-11-12T22:43:42.607Z</time>
      </trkpt>
      <trkpt lat="47.545407" lon="7.927001">
        <ele>301.000895</ele>
        <time>2021-11-12T22:43:44.894Z</time>
      </trkpt>
      <trkpt lat="47.545409" lon="7.926773">
        <ele>300.781216</ele>
        <time>2021-11-12T22:43:46.523Z</time>
      </trkpt>
      <trkpt lat="47.545417" lon="7.925848">
        <ele>299.360064</ele>
        <time>2021-11-12T22:43:52.858Z</time>
      </trkpt>
      <trkpt lat="47.545446" lon="7.925350">
        <ele>298.075070</ele>
        <time>2021-11-12T22:43:56.150Z</time>
      </trkpt>
      <trkpt lat="47.545466" lon="7.924880">
        <ele>296.864414</ele>
        <time>2021-11-12T22:43:59.203Z</time>
      </trkpt>
      <trkpt lat="47.545481" lon="7.924396">
        <ele>295.618855</ele>
        <time>2021-11-12T22:44:02.287Z</time>
      </trkpt>
      <trkpt lat="47.545521" lon="7.923709">
        <ele>293.846186</ele>
        <time>2021-11-12T22:44:06.812Z</time>
      </trkpt>
      <trkpt lat="47.545536" lon="7.923407">
        <ele>293.227787</ele>
        <time>2021-11-12T22:44:08.960Z</time>
      </trkpt>
      <trkpt lat="47.545553" lon="7.923142">
        <ele>292.921527</ele>
        <time>2021-11-12T22:44:10.791Z</time>
      </trkpt>
      <trkpt lat="47.545587" lon="7.922895">
        <ele>292.631500</ele>
        <time>2021-11-12T22:44:12.725Z</time>
      </trkpt>
      <trkpt lat="47.545641" lon="7.922610">
        <ele>292.290931</ele>
        <time>2021-11-12T22:44:14.870Z</time>
      </trkpt>
      <trkpt lat="47.545690" lon="7.922369">
        <ele>292.001351</ele>
        <time>2021-11-12T22:44:16.877Z</time>
      </trkpt>
      <trkpt lat="47.545699" lon="7.922325">
        <ele>291.948456</ele>
        <time>2021-11-12T22:44:17.171Z</time>
      </trkpt>
      <trkpt lat="47.545714" lon="7.922249">
        <ele>291.857355</ele>
        <time>2021-11-12T22:44:17.761Z</time>
      </trkpt>
      <trkpt lat="47.545778" lon="7.921947">
        <ele>291.493179</ele>
        <time>2021-11-12T22:44:20.463Z</time>
      </trkpt>
      <trkpt lat="47.545810" lon="7.921755">
        <ele>291.265647</ele>
        <time>2021-11-12T22:44:21.944Z</time>
      </trkpt>
      <trkpt lat="47.545881" lon="7.921096">
        <ele>290.497864</ele>
        <time>2021-11-12T22:44:27.406Z</time>
      </trkpt>
      <trkpt lat="47.545913" lon="7.920765">
        <ele>290.259971</ele>
        <time>2021-11-12T22:44:30.299Z</time>
      </trkpt>
      <trkpt lat="47.545973" lon="7.920313">
        <ele>290.165681</ele>
        <time>2021-11-12T22:44:34.769Z</time>
      </trkpt>
      <trkpt lat="47.546128" lon="7.919617">
        <ele>290.015665</ele>
        <time>2021-11-12T22:44:42.010Z</time>
      </trkpt>
      <trkpt lat="47.546262" lon="7.919081">
        <ele>289.898670</ele>
        <time>2021-11-12T22:44:48.058Z</time>
      </trkpt>
      <trkpt lat="47.546821" lon="7.916867">
        <ele>289.122716</ele>
        <time>2021-11-12T22:45:08.726Z</time>
      </trkpt>
      <trkpt lat="47.547032" lon="7.916218">
        <ele>288.845338</ele>
        <time>2021-11-12T22:45:15.033Z</time>
      </trkpt>
      <trkpt lat="47.547091" lon="7.916039">
        <ele>288.768635</ele>
        <time>2021-11-12T22:45:16.807Z</time>
      </trkpt>
      <trkpt lat="47.547113" lon="7.915971">
        <ele>288.739598</ele>
        <time>2021-11-12T22:45:17.398Z</time>
      </trkpt>
      <trkpt lat="47.547423" lon="7.915080">
        <ele>288.767122</ele>
        <time>2021-11-12T22:45:26.885Z</time>
      </trkpt>
      <trkpt lat="47.547994" lon="7.913433">
        <ele>288.941841</ele>
        <time>2021-11-12T22:45:46.589Z</time>
      </trkpt>
      <trkpt lat="47.548027" lon="7.913334">
        <ele>289.013683</ele>
        <time>2021-11-12T22:45:47.948Z</time>
      </trkpt>
      <trkpt lat="47.548412" lon="7.912168">
        <ele>289.858259</ele>
        <time>2021-11-12T22:46:04.351Z</time>
      </trkpt>
      <trkpt lat="47.549012" lon="7.910340">
        <ele>291.358585</ele>
        <time>2021-11-12T22:46:31.340Z</time>
      </trkpt>
      <trkpt lat="47.549102" lon="7.910058">
        <ele>291.622123</ele>
        <time>2021-11-12T22:46:35.466Z</time>
      </trkpt>
      <trkpt lat="47.549195" lon="7.909756">
        <ele>291.902567</ele>
        <time>2021-11-12T22:46:39.764Z</time>
      </trkpt>
      <trkpt lat="47.549273" lon="7.909498">
        <ele>292.141404</ele>
        <time>2021-11-12T22:46:43.437Z</time>
      </trkpt>
      <trkpt lat="47.549520" lon="7.908678">
        <ele>292.945457</ele>
        <time>2021-11-12T22:46:55.055Z</time>
      </trkpt>
      <trkpt lat="47.549539" lon="7.908625">
        <ele>293.032477</ele>
        <time>2021-11-12T22:46:55.798Z</time>
      </trkpt>
      <trkpt lat="47.550497" lon="7.905558">
        <ele>298.648011</ele>
        <time>2021-11-12T22:47:50.649Z</time>
      </trkpt>
      <trkpt lat="47.550283" lon="7.905413">
        <ele>299.446988</ele>
        <time>2021-11-12T22:47:58.815Z</time>
      </trkpt>
      <trkpt lat="47.550067" lon="7.905245">
        <ele>300.275291</ele>
        <time>2021-11-12T22:48:07.501Z</time>
      </trkpt>
      <trkpt lat="47.549867" lon="7.905155">
        <ele>300.984987</ele>
        <time>2021-11-12T22:48:15.172Z</time>
      </trkpt>
      <trkpt lat="47.549868" lon="7.905010">
        <ele>301.317297</ele>
        <time>2021-11-12T22:48:18.621Z</time>
      </trkpt>
      <trkpt lat="47.550025" lon="7.904774">
        <ele>302.076679</ele>
        <time>2021-11-12T22:48:26.647Z</time>
      </trkpt>
      <trkpt lat="47.550302" lon="7.904164">
        <ele>303.846034</ele>
        <time>2021-11-12T22:48:44.879Z</time>
      </trkpt>
      <trkpt lat="47.550498" lon="7.903445">
        <ele>305.780495</ele>
        <time>2021-11-12T22:49:04.546Z</time>
      </trkpt>
      <trkpt lat="47.550562" lon="7.903108">
        <ele>306.653851</ele>
        <time>2021-11-12T22:49:12.057Z</time>
      </trkpt>
      <trkpt lat="47.550683" lon="7.902479">
        <ele>308.285499</ele>
        <time>2021-11-12T22:49:26.151Z</time>
      </trkpt>
      <trkpt lat="47.550688" lon="7.902451">
        <ele>308.357754</ele>
        <time>2021-11-12T22:49:27.116Z</time>
      </trkpt>
      <trkpt lat="47.550757" lon="7.901591">
        <ele>310.656470</ele>
        <time>2021-11-12T22:49:46.793Z</time>
      </trkpt>
      <trkpt lat="47.550769" lon="7.901362">
        <ele>311.303996</ele>
        <time>2021-11-12T22:49:52.801Z</time>
      </trkpt>
      <trkpt lat="47.550801" lon="7.900244">
        <ele>314.458626</ele>
        <time>2021-11-12T22:50:17.207Z</time>
      </trkpt>
      <trkpt lat="47.550819" lon="7.898109">
        <ele>319.735598</ele>
        <time>2021-11-12T22:51:04.246Z</time>
      </trkpt>
      <trkpt lat="47.550648" lon="7.896481">
        <ele>323.083568</ele>
        <time>2021-11-12T22:51:31.902Z</time>
      </trkpt>
      <trkpt lat="47.550639" lon="7.896345">
        <ele>323.198556</ele>
        <time>2021-11-12T22:51:34.278Z</time>
      </trkpt>
      <trkpt lat="47.550660" lon="7.896255">
        <ele>323.278685</ele>
        <time>2021-11-12T22:51:35.077Z</time>
      </trkpt>
      <trkpt lat="47.550838" lon="7.895509">
        <ele>323.944487</ele>
        <time>2021-11-12T22:51:45.245Z</time>
      </trkpt>
      <trkpt lat="47.550878" lon="7.895158">
        <ele>324.244020</ele>
        <time>2021-11-12T22:51:49.308Z</time>
      </trkpt>
      <trkpt lat="47.550908" lon="7.894308">
        <ele>324.960237</ele>
        <time>2021-11-12T22:51:59.781Z</time>
      </trkpt>
      <trkpt lat="47.550892" lon="7.893176">
        <ele>327.141873</ele>
        <time>2021-11-12T22:52:14.498Z</time>
      </trkpt>
      <trkpt lat="47.550904" lon="7.891725">
        <ele>330.290506</ele>
        <time>2021-11-12T22:52:44.260Z</time>
      </trkpt>
      <trkpt lat="47.550915" lon="7.890600">
        <ele>334.356393</ele>
        <time>2021-11-12T22:53:13.100Z</time>
      </trkpt>
      <trkpt lat="47.550833" lon="7.889069">
        <ele>340.671782</ele>
        <time>2021-11-12T22:53:55.734Z</time>
      </trkpt>
      <trkpt lat="47.550831" lon="7.888611">
        <ele>342.534099</ele>
        <time>2021-11-12T22:54:08.304Z</time>
      </trkpt>
      <trkpt lat="47.550789" lon="7.887816">
        <ele>345.711654</ele>
        <time>2021-11-12T22:54:28.916Z</time>
      </trkpt>
      <trkpt lat="47.550758" lon="7.887295">
        <ele>347.795754</ele>
        <time>2021-11-12T22:54:42.737Z</time>
      </trkpt>
      <trkpt lat="47.550677" lon="7.886476">
        <ele>351.094110</ele>
        <time>2021-11-12T22:55:04.226Z</time>
      </trkpt>
      <trkpt lat="47.550548" lon="7.885799">
        <ele>353.611605</ele>
        <time>2021-11-12T22:55:21.429Z</time>
      </trkpt>
      <trkpt lat="47.550391" lon="7.885109">
        <ele>355.922453</ele>
        <time>2021-11-12T22:55:39.067Z</time>
      </trkpt>
      <trkpt lat="47.550332" lon="7.884727">
        <ele>357.166094</ele>
        <time>2021-11-12T22:55:47.757Z</time>
      </trkpt>
      <trkpt lat="47.550234" lon="7.883221">
        <ele>361.708702</ele>
        <time>2021-11-12T22:56:20.589Z</time>
      </trkpt>
      <trkpt lat="47.549927" lon="7.881490">
        <ele>365.941332</ele>
        <time>2021-11-12T22:56:52.852Z</time>
      </trkpt>
      <trkpt lat="47.549726" lon="7.880786">
        <ele>367.854753</ele>
        <time>2021-11-12T22:57:08.829Z</time>
      </trkpt>
      <trkpt lat="47.549327" lon="7.879547">
        <ele>371.793797</ele>
        <time>2021-11-12T22:57:38.613Z</time>
      </trkpt>
      <trkpt lat="47.549318" lon="7.879398">
        <ele>372.223040</ele>
        <time>2021-11-12T22:57:41.801Z</time>
      </trkpt>
      <trkpt lat="47.549140" lon="7.879391">
        <ele>372.980017</ele>
        <time>2021-11-12T22:57:48.672Z</time>
      </trkpt>
      <trkpt lat="47.548718" lon="7.879258">
        <ele>374.814158</ele>
        <time>2021-11-12T22:58:02.342Z</time>
      </trkpt>
      <trkpt lat="47.548422" lon="7.878959">
        <ele>375.587748</ele>
        <time>2021-11-12T22:58:12.989Z</time>
      </trkpt>
      <trkpt lat="47.548234" lon="7.878638">
        <ele>376.171359</ele>
        <time>2021-11-12T22:58:21.421Z</time>
      </trkpt>
      <trkpt lat="47.547992" lon="7.877974">
        <ele>377.207613</ele>
        <time>2021-11-12T22:58:34.519Z</time>
      </trkpt>
      <trkpt lat="47.547574" lon="7.876801">
        <ele>377.925734</ele>
        <time>2021-11-12T22:58:48.282Z</time>
      </trkpt>
      <trkpt lat="47.547126" lon="7.875801">
        <ele>375.703411</ele>
        <time>2021-11-12T22:58:57.064Z</time>
      </trkpt>
      <trkpt lat="47.546309" lon="7.874154">
        <ele>369.845707</ele>
        <time>2021-11-12T22:59:10.253Z</time>
      </trkpt>
      <trkpt lat="47.546135" lon="7.873859">
        <ele>368.239033</ele>
        <time>2021-11-12T22:59:12.635Z</time>
      </trkpt>
      <trkpt lat="47.546077" lon="7.873763">
        <ele>367.710643</ele>
        <time>2021-11-12T22:59:13.446Z</time>
      </trkpt>
      <trkpt lat="47.545934" lon="7.873549">
        <ele>366.475662</ele>
        <time>2021-11-12T22:59:15.250Z</time>
      </trkpt>
      <trkpt lat="47.545746" lon="7.873302">
        <ele>364.948925</ele>
        <time>2021-11-12T22:59:17.539Z</time>
      </trkpt>
      <trkpt lat="47.545515" lon="7.873015">
        <ele>363.117169</ele>
        <time>2021-11-12T22:59:20.237Z</time>
      </trkpt>
      <trkpt lat="47.545478" lon="7.872968">
        <ele>362.821038</ele>
        <time>2021-11-12T22:59:20.679Z</time>
      </trkpt>
      <trkpt lat="47.545375" lon="7.872836">
        <ele>361.916492</ele>
        <time>2021-11-12T22:59:21.873Z</time>
      </trkpt>
      <trkpt lat="47.545131" lon="7.872664">
        <ele>360.094822</ele>
        <time>2021-11-12T22:59:24.331Z</time>
      </trkpt>
      <trkpt lat="47.544883" lon="7.872555">
        <ele>358.350881</ele>
        <time>2021-11-12T22:59:26.654Z</time>
      </trkpt>
      <trkpt lat="47.544390" lon="7.872423">
        <ele>354.973432</ele>
        <time>2021-11-12T22:59:31.119Z</time>
      </trkpt>
      <trkpt lat="47.543332" lon="7.872237">
        <ele>350.571235</ele>
        <time>2021-11-12T22:59:40.886Z</time>
      </trkpt>
      <trkpt lat="47.543251" lon="7.872152">
        <ele>350.571235</ele>
        <time>2021-11-12T22:59:41.827Z</time>
      </trkpt>
      <trkpt lat="47.543233" lon="7.872082">
        <ele>350.571235</ele>
        <time>2021-11-12T22:59:42.247Z</time>
      </trkpt>
      <trkpt lat="47.543013" lon="7.872182">
        <ele>350.571235</ele>
        <time>2021-11-12T22:59:44.488Z</time>
      </trkpt>
      <trkpt lat="47.542919" lon="7.872226">
        <ele>350.571235</ele>
        <time>2021-11-12T22:59:45.409Z</time>
      </trkpt>
      <trkpt lat="47.542814" lon="7.872280">
        <ele>350.571235</ele>
        <time>2021-11-12T22:59:46.462Z</time>
      </trkpt>
      <trkpt lat="47.542714" lon="7.872334">
        <ele>350.571235</ele>
        <time>2021-11-12T22:59:47.550Z</time>
      </trkpt>
      <trkpt lat="47.542537" lon="7.872430">
        <ele>350.571235</ele>
        <time>2021-11-12T22:59:49.283Z</time>
      </trkpt>
      <trkpt lat="47.542436" lon="7.872494">
        <ele>350.571235</ele>
        <time>2021-11-12T22:59:50.618Z</time>
      </trkpt>
      <trkpt lat="47.542394" lon="7.872341">
        <ele>350.571235</ele>
        <time>2021-11-12T22:59:51.704Z</time>
      </trkpt>
      <trkpt lat="47.542218" lon="7.871866">
        <ele>350.571235</ele>
        <time>2021-11-12T22:59:55.375Z</time>
      </trkpt>
      <trkpt lat="47.542091" lon="7.871721">
        <ele>350.571235</ele>
        <time>2021-11-12T22:59:56.892Z</time>
      </trkpt>
      <trkpt lat="47.542067" lon="7.871664">
        <ele>350.571235</ele>
        <time>2021-11-12T22:59:57.620Z</time>
      </trkpt>
      <trkpt lat="47.542039" lon="7.871556">
        <ele>350.571235</ele>
        <time>2021-11-12T22:59:58.518Z</time>
      </trkpt>
      <trkpt lat="47.541953" lon="7.871286">
        <ele>350.571235</ele>
        <time>2021-11-12T23:00:00.703Z</time>
      </trkpt>
      <trkpt lat="47.541796" lon="7.871042">
        <ele>350.571235</ele>
        <time>2021-11-12T23:00:03.250Z</time>
      </trkpt>
      <trkpt lat="47.541779" lon="7.871014">
        <ele>350.571235</ele>
        <time>2021-11-12T23:00:03.564Z</time>
      </trkpt>
    </trkseg>
  </trk>
</gpx>